<?xml version="1.0" encoding="UTF-8" standalone="no" ?>
<gpx xmlns="http://www.topografix.com/GPX/1/1" xmlns:xsi="http://www.w3.org/2001/XMLSchema-instance" xsi:schemaLocation="http://www.topografix.com/GPX/1/1 http://www.topografix.com/GPX/1/1/gpx.xsd" version="1.1" creator="VisuGPX - https://www.visugpx.com">
  <metadata>
    <name>cabrieres / fontes</name>
    <desc><![CDATA[Sortie vtt typée XC / AM, très roulant avec pas mal de chemins quelques descentes en single. Bien pour une ballade.]]></desc>
  </metadata>
  <trk>
    <name><![CDATA[cabrieres / fontes_1]]></name>
    <trkseg>
      <trkpt lat="43.57729" lon="3.36265">
        <ele>171.2</ele>
        <time>2016-07-20T15:48:02Z</time>
      </trkpt>
      <trkpt lat="43.57729" lon="3.36265">
        <ele>171.2</ele>
        <time>2016-07-20T15:48:10Z</time>
      </trkpt>
      <trkpt lat="43.57736" lon="3.36262">
        <ele>173.6</ele>
        <time>2016-07-20T15:48:25Z</time>
      </trkpt>
      <trkpt lat="43.5773" lon="3.36262">
        <ele>173</ele>
        <time>2016-07-20T15:48:41Z</time>
      </trkpt>
      <trkpt lat="43.57736" lon="3.36268">
        <ele>171.2</ele>
        <time>2016-07-20T15:50:34Z</time>
      </trkpt>
      <trkpt lat="43.5774" lon="3.36278">
        <ele>170.6</ele>
        <time>2016-07-20T15:50:38Z</time>
      </trkpt>
      <trkpt lat="43.57746" lon="3.36285">
        <ele>170.3</ele>
        <time>2016-07-20T15:50:41Z</time>
      </trkpt>
      <trkpt lat="43.57747" lon="3.36298">
        <ele>169.8</ele>
        <time>2016-07-20T15:50:45Z</time>
      </trkpt>
      <trkpt lat="43.57753" lon="3.36306">
        <ele>169</ele>
        <time>2016-07-20T15:50:51Z</time>
      </trkpt>
      <trkpt lat="43.57761" lon="3.36308">
        <ele>168.7</ele>
        <time>2016-07-20T15:50:56Z</time>
      </trkpt>
      <trkpt lat="43.5777" lon="3.36309">
        <ele>168</ele>
        <time>2016-07-20T15:51:00Z</time>
      </trkpt>
      <trkpt lat="43.57778" lon="3.36309">
        <ele>167.7</ele>
        <time>2016-07-20T15:51:02Z</time>
      </trkpt>
      <trkpt lat="43.57786" lon="3.36311">
        <ele>167.5</ele>
        <time>2016-07-20T15:51:05Z</time>
      </trkpt>
      <trkpt lat="43.57794" lon="3.36317">
        <ele>167.5</ele>
        <time>2016-07-20T15:51:07Z</time>
      </trkpt>
      <trkpt lat="43.57802" lon="3.36323">
        <ele>166.9</ele>
        <time>2016-07-20T15:51:09Z</time>
      </trkpt>
      <trkpt lat="43.57811" lon="3.36329">
        <ele>166.1</ele>
        <time>2016-07-20T15:51:11Z</time>
      </trkpt>
      <trkpt lat="43.5782" lon="3.36335">
        <ele>165.2</ele>
        <time>2016-07-20T15:51:13Z</time>
      </trkpt>
      <trkpt lat="43.57828" lon="3.36339">
        <ele>165.1</ele>
        <time>2016-07-20T15:51:15Z</time>
      </trkpt>
      <trkpt lat="43.57837" lon="3.36351">
        <ele>165</ele>
        <time>2016-07-20T15:51:18Z</time>
      </trkpt>
      <trkpt lat="43.57832" lon="3.36359">
        <ele>164.9</ele>
        <time>2016-07-20T15:51:21Z</time>
      </trkpt>
      <trkpt lat="43.57823" lon="3.36367">
        <ele>162.3</ele>
        <time>2016-07-20T15:51:24Z</time>
      </trkpt>
      <trkpt lat="43.57816" lon="3.36374">
        <ele>160.9</ele>
        <time>2016-07-20T15:51:26Z</time>
      </trkpt>
      <trkpt lat="43.5781" lon="3.36381">
        <ele>160.1</ele>
        <time>2016-07-20T15:51:28Z</time>
      </trkpt>
      <trkpt lat="43.57801" lon="3.36386">
        <ele>160.6</ele>
        <time>2016-07-20T15:51:30Z</time>
      </trkpt>
      <trkpt lat="43.57791" lon="3.36393">
        <ele>159.6</ele>
        <time>2016-07-20T15:51:32Z</time>
      </trkpt>
      <trkpt lat="43.5778" lon="3.36395">
        <ele>158.5</ele>
        <time>2016-07-20T15:51:34Z</time>
      </trkpt>
      <trkpt lat="43.57769" lon="3.36399">
        <ele>158.7</ele>
        <time>2016-07-20T15:51:36Z</time>
      </trkpt>
      <trkpt lat="43.57758" lon="3.36402">
        <ele>159.2</ele>
        <time>2016-07-20T15:51:38Z</time>
      </trkpt>
      <trkpt lat="43.57751" lon="3.36405">
        <ele>160.5</ele>
        <time>2016-07-20T15:51:40Z</time>
      </trkpt>
      <trkpt lat="43.5774" lon="3.36403">
        <ele>161.6</ele>
        <time>2016-07-20T15:51:43Z</time>
      </trkpt>
      <trkpt lat="43.57731" lon="3.36401">
        <ele>161</ele>
        <time>2016-07-20T15:51:45Z</time>
      </trkpt>
      <trkpt lat="43.57722" lon="3.36402">
        <ele>161.4</ele>
        <time>2016-07-20T15:51:47Z</time>
      </trkpt>
      <trkpt lat="43.57714" lon="3.364">
        <ele>161.7</ele>
        <time>2016-07-20T15:51:49Z</time>
      </trkpt>
      <trkpt lat="43.57705" lon="3.36398">
        <ele>162</ele>
        <time>2016-07-20T15:51:52Z</time>
      </trkpt>
      <trkpt lat="43.57694" lon="3.36397">
        <ele>162.9</ele>
        <time>2016-07-20T15:51:55Z</time>
      </trkpt>
      <trkpt lat="43.57686" lon="3.36394">
        <ele>164.2</ele>
        <time>2016-07-20T15:51:57Z</time>
      </trkpt>
      <trkpt lat="43.57672" lon="3.36394">
        <ele>165.3</ele>
        <time>2016-07-20T15:52:00Z</time>
      </trkpt>
      <trkpt lat="43.5766" lon="3.36392">
        <ele>166.3</ele>
        <time>2016-07-20T15:52:02Z</time>
      </trkpt>
      <trkpt lat="43.5765" lon="3.36392">
        <ele>168</ele>
        <time>2016-07-20T15:52:04Z</time>
      </trkpt>
      <trkpt lat="43.57642" lon="3.36391">
        <ele>168.7</ele>
        <time>2016-07-20T15:52:06Z</time>
      </trkpt>
      <trkpt lat="43.57633" lon="3.36389">
        <ele>170.4</ele>
        <time>2016-07-20T15:52:08Z</time>
      </trkpt>
      <trkpt lat="43.57623" lon="3.36386">
        <ele>170.9</ele>
        <time>2016-07-20T15:52:10Z</time>
      </trkpt>
      <trkpt lat="43.57612" lon="3.36387">
        <ele>169.5</ele>
        <time>2016-07-20T15:52:12Z</time>
      </trkpt>
      <trkpt lat="43.57601" lon="3.36386">
        <ele>167.2</ele>
        <time>2016-07-20T15:52:14Z</time>
      </trkpt>
      <trkpt lat="43.57592" lon="3.36384">
        <ele>164.6</ele>
        <time>2016-07-20T15:52:16Z</time>
      </trkpt>
      <trkpt lat="43.57583" lon="3.36382">
        <ele>161.3</ele>
        <time>2016-07-20T15:52:18Z</time>
      </trkpt>
      <trkpt lat="43.57574" lon="3.36379">
        <ele>159.4</ele>
        <time>2016-07-20T15:52:20Z</time>
      </trkpt>
      <trkpt lat="43.57566" lon="3.36378">
        <ele>158.3</ele>
        <time>2016-07-20T15:52:22Z</time>
      </trkpt>
      <trkpt lat="43.57558" lon="3.36378">
        <ele>158.1</ele>
        <time>2016-07-20T15:52:24Z</time>
      </trkpt>
      <trkpt lat="43.57549" lon="3.36379">
        <ele>158.4</ele>
        <time>2016-07-20T15:52:26Z</time>
      </trkpt>
      <trkpt lat="43.57539" lon="3.36379">
        <ele>160.1</ele>
        <time>2016-07-20T15:52:28Z</time>
      </trkpt>
      <trkpt lat="43.57531" lon="3.36377">
        <ele>161.7</ele>
        <time>2016-07-20T15:52:30Z</time>
      </trkpt>
      <trkpt lat="43.57523" lon="3.36375">
        <ele>163</ele>
        <time>2016-07-20T15:52:32Z</time>
      </trkpt>
      <trkpt lat="43.57516" lon="3.36372">
        <ele>164</ele>
        <time>2016-07-20T15:52:34Z</time>
      </trkpt>
      <trkpt lat="43.57507" lon="3.3637">
        <ele>165.6</ele>
        <time>2016-07-20T15:52:36Z</time>
      </trkpt>
      <trkpt lat="43.57498" lon="3.36368">
        <ele>166</ele>
        <time>2016-07-20T15:52:38Z</time>
      </trkpt>
      <trkpt lat="43.57488" lon="3.36366">
        <ele>166.7</ele>
        <time>2016-07-20T15:52:40Z</time>
      </trkpt>
      <trkpt lat="43.5748" lon="3.36364">
        <ele>167.1</ele>
        <time>2016-07-20T15:52:42Z</time>
      </trkpt>
      <trkpt lat="43.57473" lon="3.36362">
        <ele>167.5</ele>
        <time>2016-07-20T15:52:44Z</time>
      </trkpt>
      <trkpt lat="43.57463" lon="3.36361">
        <ele>167.2</ele>
        <time>2016-07-20T15:52:46Z</time>
      </trkpt>
      <trkpt lat="43.57454" lon="3.36362">
        <ele>168.1</ele>
        <time>2016-07-20T15:52:48Z</time>
      </trkpt>
      <trkpt lat="43.57443" lon="3.36364">
        <ele>168.6</ele>
        <time>2016-07-20T15:52:50Z</time>
      </trkpt>
      <trkpt lat="43.57433" lon="3.36367">
        <ele>166.9</ele>
        <time>2016-07-20T15:52:52Z</time>
      </trkpt>
      <trkpt lat="43.57423" lon="3.36369">
        <ele>165</ele>
        <time>2016-07-20T15:52:54Z</time>
      </trkpt>
      <trkpt lat="43.57413" lon="3.36371">
        <ele>163.9</ele>
        <time>2016-07-20T15:52:56Z</time>
      </trkpt>
      <trkpt lat="43.57402" lon="3.36373">
        <ele>163.1</ele>
        <time>2016-07-20T15:52:58Z</time>
      </trkpt>
      <trkpt lat="43.5739" lon="3.36376">
        <ele>162.5</ele>
        <time>2016-07-20T15:53:00Z</time>
      </trkpt>
      <trkpt lat="43.57379" lon="3.36378">
        <ele>162.6</ele>
        <time>2016-07-20T15:53:02Z</time>
      </trkpt>
      <trkpt lat="43.57368" lon="3.36378">
        <ele>164.4</ele>
        <time>2016-07-20T15:53:04Z</time>
      </trkpt>
      <trkpt lat="43.57358" lon="3.36376">
        <ele>165.7</ele>
        <time>2016-07-20T15:53:06Z</time>
      </trkpt>
      <trkpt lat="43.57347" lon="3.36374">
        <ele>166.6</ele>
        <time>2016-07-20T15:53:08Z</time>
      </trkpt>
      <trkpt lat="43.57337" lon="3.3637">
        <ele>165.6</ele>
        <time>2016-07-20T15:53:10Z</time>
      </trkpt>
      <trkpt lat="43.57327" lon="3.36367">
        <ele>164.2</ele>
        <time>2016-07-20T15:53:12Z</time>
      </trkpt>
      <trkpt lat="43.57317" lon="3.36363">
        <ele>163.1</ele>
        <time>2016-07-20T15:53:14Z</time>
      </trkpt>
      <trkpt lat="43.57307" lon="3.3636">
        <ele>161.7</ele>
        <time>2016-07-20T15:53:16Z</time>
      </trkpt>
      <trkpt lat="43.57298" lon="3.36359">
        <ele>160.7</ele>
        <time>2016-07-20T15:53:18Z</time>
      </trkpt>
      <trkpt lat="43.57288" lon="3.36356">
        <ele>160.5</ele>
        <time>2016-07-20T15:53:20Z</time>
      </trkpt>
      <trkpt lat="43.57277" lon="3.36354">
        <ele>161.2</ele>
        <time>2016-07-20T15:53:22Z</time>
      </trkpt>
      <trkpt lat="43.57268" lon="3.36353">
        <ele>161.3</ele>
        <time>2016-07-20T15:53:24Z</time>
      </trkpt>
      <trkpt lat="43.57258" lon="3.36352">
        <ele>161.3</ele>
        <time>2016-07-20T15:53:26Z</time>
      </trkpt>
      <trkpt lat="43.57247" lon="3.36349">
        <ele>159.9</ele>
        <time>2016-07-20T15:53:28Z</time>
      </trkpt>
      <trkpt lat="43.57235" lon="3.36347">
        <ele>159.6</ele>
        <time>2016-07-20T15:53:30Z</time>
      </trkpt>
      <trkpt lat="43.57223" lon="3.36343">
        <ele>159.3</ele>
        <time>2016-07-20T15:53:32Z</time>
      </trkpt>
      <trkpt lat="43.57212" lon="3.3634">
        <ele>158.3</ele>
        <time>2016-07-20T15:53:34Z</time>
      </trkpt>
      <trkpt lat="43.57202" lon="3.36338">
        <ele>157.1</ele>
        <time>2016-07-20T15:53:36Z</time>
      </trkpt>
      <trkpt lat="43.57193" lon="3.36334">
        <ele>156.3</ele>
        <time>2016-07-20T15:53:38Z</time>
      </trkpt>
      <trkpt lat="43.57182" lon="3.36331">
        <ele>155.1</ele>
        <time>2016-07-20T15:53:40Z</time>
      </trkpt>
      <trkpt lat="43.57171" lon="3.36328">
        <ele>155</ele>
        <time>2016-07-20T15:53:42Z</time>
      </trkpt>
      <trkpt lat="43.57161" lon="3.36325">
        <ele>154.5</ele>
        <time>2016-07-20T15:53:44Z</time>
      </trkpt>
      <trkpt lat="43.57152" lon="3.36321">
        <ele>154.6</ele>
        <time>2016-07-20T15:53:46Z</time>
      </trkpt>
      <trkpt lat="43.57143" lon="3.36318">
        <ele>153.6</ele>
        <time>2016-07-20T15:53:48Z</time>
      </trkpt>
      <trkpt lat="43.57135" lon="3.36312">
        <ele>153.1</ele>
        <time>2016-07-20T15:53:50Z</time>
      </trkpt>
      <trkpt lat="43.57129" lon="3.36306">
        <ele>152.4</ele>
        <time>2016-07-20T15:53:52Z</time>
      </trkpt>
      <trkpt lat="43.57122" lon="3.36299">
        <ele>152.6</ele>
        <time>2016-07-20T15:53:54Z</time>
      </trkpt>
      <trkpt lat="43.57115" lon="3.36295">
        <ele>152</ele>
        <time>2016-07-20T15:53:56Z</time>
      </trkpt>
      <trkpt lat="43.57108" lon="3.36291">
        <ele>151.3</ele>
        <time>2016-07-20T15:53:58Z</time>
      </trkpt>
      <trkpt lat="43.57097" lon="3.36287">
        <ele>151.4</ele>
        <time>2016-07-20T15:54:01Z</time>
      </trkpt>
      <trkpt lat="43.5709" lon="3.36284">
        <ele>151.4</ele>
        <time>2016-07-20T15:54:03Z</time>
      </trkpt>
      <trkpt lat="43.57079" lon="3.3628">
        <ele>152.4</ele>
        <time>2016-07-20T15:54:06Z</time>
      </trkpt>
      <trkpt lat="43.5707" lon="3.36279">
        <ele>154.3</ele>
        <time>2016-07-20T15:54:08Z</time>
      </trkpt>
      <trkpt lat="43.57062" lon="3.36278">
        <ele>154.6</ele>
        <time>2016-07-20T15:54:10Z</time>
      </trkpt>
      <trkpt lat="43.57054" lon="3.36277">
        <ele>155.3</ele>
        <time>2016-07-20T15:54:12Z</time>
      </trkpt>
      <trkpt lat="43.57046" lon="3.36276">
        <ele>156.2</ele>
        <time>2016-07-20T15:54:14Z</time>
      </trkpt>
      <trkpt lat="43.57037" lon="3.36274">
        <ele>157.5</ele>
        <time>2016-07-20T15:54:16Z</time>
      </trkpt>
      <trkpt lat="43.57027" lon="3.36271">
        <ele>158.6</ele>
        <time>2016-07-20T15:54:18Z</time>
      </trkpt>
      <trkpt lat="43.57017" lon="3.3627">
        <ele>158.8</ele>
        <time>2016-07-20T15:54:20Z</time>
      </trkpt>
      <trkpt lat="43.57007" lon="3.36268">
        <ele>156.8</ele>
        <time>2016-07-20T15:54:22Z</time>
      </trkpt>
      <trkpt lat="43.56997" lon="3.36266">
        <ele>156.3</ele>
        <time>2016-07-20T15:54:24Z</time>
      </trkpt>
      <trkpt lat="43.56987" lon="3.36264">
        <ele>156.5</ele>
        <time>2016-07-20T15:54:26Z</time>
      </trkpt>
      <trkpt lat="43.56978" lon="3.36264">
        <ele>156.4</ele>
        <time>2016-07-20T15:54:28Z</time>
      </trkpt>
      <trkpt lat="43.56969" lon="3.36266">
        <ele>157.8</ele>
        <time>2016-07-20T15:54:30Z</time>
      </trkpt>
      <trkpt lat="43.56961" lon="3.36269">
        <ele>158.5</ele>
        <time>2016-07-20T15:54:32Z</time>
      </trkpt>
      <trkpt lat="43.56953" lon="3.36272">
        <ele>158.6</ele>
        <time>2016-07-20T15:54:34Z</time>
      </trkpt>
      <trkpt lat="43.56943" lon="3.36279">
        <ele>158.7</ele>
        <time>2016-07-20T15:54:37Z</time>
      </trkpt>
      <trkpt lat="43.56933" lon="3.36284">
        <ele>158.8</ele>
        <time>2016-07-20T15:54:40Z</time>
      </trkpt>
      <trkpt lat="43.56923" lon="3.36286">
        <ele>158.9</ele>
        <time>2016-07-20T15:54:43Z</time>
      </trkpt>
      <trkpt lat="43.56913" lon="3.36287">
        <ele>159.1</ele>
        <time>2016-07-20T15:54:46Z</time>
      </trkpt>
      <trkpt lat="43.56904" lon="3.36286">
        <ele>159.4</ele>
        <time>2016-07-20T15:54:48Z</time>
      </trkpt>
      <trkpt lat="43.56897" lon="3.36282">
        <ele>159.7</ele>
        <time>2016-07-20T15:54:50Z</time>
      </trkpt>
      <trkpt lat="43.56887" lon="3.36274">
        <ele>160.3</ele>
        <time>2016-07-20T15:54:53Z</time>
      </trkpt>
      <trkpt lat="43.56879" lon="3.36266">
        <ele>160.6</ele>
        <time>2016-07-20T15:54:56Z</time>
      </trkpt>
      <trkpt lat="43.5687" lon="3.36259">
        <ele>160.8</ele>
        <time>2016-07-20T15:54:59Z</time>
      </trkpt>
      <trkpt lat="43.56862" lon="3.36251">
        <ele>161</ele>
        <time>2016-07-20T15:55:02Z</time>
      </trkpt>
      <trkpt lat="43.56853" lon="3.36246">
        <ele>161.2</ele>
        <time>2016-07-20T15:55:05Z</time>
      </trkpt>
      <trkpt lat="43.56846" lon="3.36242">
        <ele>161.3</ele>
        <time>2016-07-20T15:55:07Z</time>
      </trkpt>
      <trkpt lat="43.56838" lon="3.36238">
        <ele>161.5</ele>
        <time>2016-07-20T15:55:09Z</time>
      </trkpt>
      <trkpt lat="43.56831" lon="3.36232">
        <ele>162.5</ele>
        <time>2016-07-20T15:55:11Z</time>
      </trkpt>
      <trkpt lat="43.56825" lon="3.36225">
        <ele>162.7</ele>
        <time>2016-07-20T15:55:13Z</time>
      </trkpt>
      <trkpt lat="43.56819" lon="3.36215">
        <ele>162.9</ele>
        <time>2016-07-20T15:55:16Z</time>
      </trkpt>
      <trkpt lat="43.56814" lon="3.36205">
        <ele>163.1</ele>
        <time>2016-07-20T15:55:19Z</time>
      </trkpt>
      <trkpt lat="43.56809" lon="3.36194">
        <ele>163.3</ele>
        <time>2016-07-20T15:55:22Z</time>
      </trkpt>
      <trkpt lat="43.56804" lon="3.36185">
        <ele>163.5</ele>
        <time>2016-07-20T15:55:25Z</time>
      </trkpt>
      <trkpt lat="43.56798" lon="3.36173">
        <ele>165.5</ele>
        <time>2016-07-20T15:55:28Z</time>
      </trkpt>
      <trkpt lat="43.56792" lon="3.36165">
        <ele>166.9</ele>
        <time>2016-07-20T15:55:30Z</time>
      </trkpt>
      <trkpt lat="43.56785" lon="3.36155">
        <ele>167.1</ele>
        <time>2016-07-20T15:55:32Z</time>
      </trkpt>
      <trkpt lat="43.56779" lon="3.36142">
        <ele>166.3</ele>
        <time>2016-07-20T15:55:34Z</time>
      </trkpt>
      <trkpt lat="43.56776" lon="3.36127">
        <ele>164.5</ele>
        <time>2016-07-20T15:55:36Z</time>
      </trkpt>
      <trkpt lat="43.56774" lon="3.36113">
        <ele>162.8</ele>
        <time>2016-07-20T15:55:38Z</time>
      </trkpt>
      <trkpt lat="43.56773" lon="3.36098">
        <ele>162.6</ele>
        <time>2016-07-20T15:55:40Z</time>
      </trkpt>
      <trkpt lat="43.56771" lon="3.36084">
        <ele>161.2</ele>
        <time>2016-07-20T15:55:42Z</time>
      </trkpt>
      <trkpt lat="43.56767" lon="3.36069">
        <ele>160.4</ele>
        <time>2016-07-20T15:55:44Z</time>
      </trkpt>
      <trkpt lat="43.56757" lon="3.36056">
        <ele>159</ele>
        <time>2016-07-20T15:55:46Z</time>
      </trkpt>
      <trkpt lat="43.56745" lon="3.36051">
        <ele>158.2</ele>
        <time>2016-07-20T15:55:48Z</time>
      </trkpt>
      <trkpt lat="43.56735" lon="3.36043">
        <ele>156.8</ele>
        <time>2016-07-20T15:55:50Z</time>
      </trkpt>
      <trkpt lat="43.56723" lon="3.36032">
        <ele>155</ele>
        <time>2016-07-20T15:55:52Z</time>
      </trkpt>
      <trkpt lat="43.56712" lon="3.36019">
        <ele>154</ele>
        <time>2016-07-20T15:55:54Z</time>
      </trkpt>
      <trkpt lat="43.56706" lon="3.36011">
        <ele>153.5</ele>
        <time>2016-07-20T15:55:55Z</time>
      </trkpt>
      <trkpt lat="43.567" lon="3.36001">
        <ele>153.2</ele>
        <time>2016-07-20T15:55:56Z</time>
      </trkpt>
      <trkpt lat="43.56693" lon="3.35993">
        <ele>152.7</ele>
        <time>2016-07-20T15:55:57Z</time>
      </trkpt>
      <trkpt lat="43.56687" lon="3.35986">
        <ele>152.5</ele>
        <time>2016-07-20T15:55:58Z</time>
      </trkpt>
      <trkpt lat="43.56681" lon="3.35979">
        <ele>152.5</ele>
        <time>2016-07-20T15:55:59Z</time>
      </trkpt>
      <trkpt lat="43.56675" lon="3.35973">
        <ele>152.4</ele>
        <time>2016-07-20T15:56:00Z</time>
      </trkpt>
      <trkpt lat="43.56669" lon="3.35966">
        <ele>152.2</ele>
        <time>2016-07-20T15:56:01Z</time>
      </trkpt>
      <trkpt lat="43.56663" lon="3.35961">
        <ele>152.1</ele>
        <time>2016-07-20T15:56:02Z</time>
      </trkpt>
      <trkpt lat="43.56657" lon="3.35955">
        <ele>152</ele>
        <time>2016-07-20T15:56:03Z</time>
      </trkpt>
      <trkpt lat="43.56646" lon="3.35944">
        <ele>151.2</ele>
        <time>2016-07-20T15:56:05Z</time>
      </trkpt>
      <trkpt lat="43.56634" lon="3.35933">
        <ele>150.6</ele>
        <time>2016-07-20T15:56:07Z</time>
      </trkpt>
      <trkpt lat="43.56624" lon="3.35922">
        <ele>150.4</ele>
        <time>2016-07-20T15:56:09Z</time>
      </trkpt>
      <trkpt lat="43.56616" lon="3.3591">
        <ele>149.3</ele>
        <time>2016-07-20T15:56:11Z</time>
      </trkpt>
      <trkpt lat="43.56609" lon="3.35897">
        <ele>149.5</ele>
        <time>2016-07-20T15:56:13Z</time>
      </trkpt>
      <trkpt lat="43.56602" lon="3.35885">
        <ele>149.3</ele>
        <time>2016-07-20T15:56:15Z</time>
      </trkpt>
      <trkpt lat="43.56595" lon="3.35873">
        <ele>148.8</ele>
        <time>2016-07-20T15:56:17Z</time>
      </trkpt>
      <trkpt lat="43.56588" lon="3.35861">
        <ele>149</ele>
        <time>2016-07-20T15:56:19Z</time>
      </trkpt>
      <trkpt lat="43.56581" lon="3.35847">
        <ele>148.9</ele>
        <time>2016-07-20T15:56:21Z</time>
      </trkpt>
      <trkpt lat="43.56577" lon="3.3583">
        <ele>148.7</ele>
        <time>2016-07-20T15:56:23Z</time>
      </trkpt>
      <trkpt lat="43.56577" lon="3.35815">
        <ele>148.5</ele>
        <time>2016-07-20T15:56:25Z</time>
      </trkpt>
      <trkpt lat="43.56576" lon="3.35803">
        <ele>147.8</ele>
        <time>2016-07-20T15:56:27Z</time>
      </trkpt>
      <trkpt lat="43.56576" lon="3.3579">
        <ele>147.1</ele>
        <time>2016-07-20T15:56:29Z</time>
      </trkpt>
      <trkpt lat="43.56575" lon="3.35777">
        <ele>147.2</ele>
        <time>2016-07-20T15:56:31Z</time>
      </trkpt>
      <trkpt lat="43.56574" lon="3.35767">
        <ele>147.5</ele>
        <time>2016-07-20T15:56:33Z</time>
      </trkpt>
      <trkpt lat="43.56571" lon="3.35756">
        <ele>147.5</ele>
        <time>2016-07-20T15:56:35Z</time>
      </trkpt>
      <trkpt lat="43.5657" lon="3.35744">
        <ele>147.5</ele>
        <time>2016-07-20T15:56:37Z</time>
      </trkpt>
      <trkpt lat="43.56567" lon="3.35732">
        <ele>146.6</ele>
        <time>2016-07-20T15:56:39Z</time>
      </trkpt>
      <trkpt lat="43.56563" lon="3.35721">
        <ele>146.2</ele>
        <time>2016-07-20T15:56:41Z</time>
      </trkpt>
      <trkpt lat="43.56559" lon="3.35709">
        <ele>146</ele>
        <time>2016-07-20T15:56:43Z</time>
      </trkpt>
      <trkpt lat="43.56554" lon="3.35699">
        <ele>145.8</ele>
        <time>2016-07-20T15:56:45Z</time>
      </trkpt>
      <trkpt lat="43.56548" lon="3.35689">
        <ele>146</ele>
        <time>2016-07-20T15:56:47Z</time>
      </trkpt>
      <trkpt lat="43.56543" lon="3.35681">
        <ele>146.1</ele>
        <time>2016-07-20T15:56:49Z</time>
      </trkpt>
      <trkpt lat="43.56537" lon="3.35673">
        <ele>146.1</ele>
        <time>2016-07-20T15:56:51Z</time>
      </trkpt>
      <trkpt lat="43.56531" lon="3.35663">
        <ele>146.2</ele>
        <time>2016-07-20T15:56:53Z</time>
      </trkpt>
      <trkpt lat="43.56526" lon="3.35654">
        <ele>147.1</ele>
        <time>2016-07-20T15:56:55Z</time>
      </trkpt>
      <trkpt lat="43.56519" lon="3.35642">
        <ele>149.3</ele>
        <time>2016-07-20T15:56:57Z</time>
      </trkpt>
      <trkpt lat="43.56514" lon="3.35632">
        <ele>151.9</ele>
        <time>2016-07-20T15:56:59Z</time>
      </trkpt>
      <trkpt lat="43.56507" lon="3.35621">
        <ele>153</ele>
        <time>2016-07-20T15:57:01Z</time>
      </trkpt>
      <trkpt lat="43.56501" lon="3.3561">
        <ele>153.7</ele>
        <time>2016-07-20T15:57:03Z</time>
      </trkpt>
      <trkpt lat="43.56496" lon="3.35601">
        <ele>152.2</ele>
        <time>2016-07-20T15:57:05Z</time>
      </trkpt>
      <trkpt lat="43.56494" lon="3.35588">
        <ele>150.4</ele>
        <time>2016-07-20T15:57:07Z</time>
      </trkpt>
      <trkpt lat="43.56491" lon="3.35577">
        <ele>150.7</ele>
        <time>2016-07-20T15:57:09Z</time>
      </trkpt>
      <trkpt lat="43.56488" lon="3.35564">
        <ele>151.7</ele>
        <time>2016-07-20T15:57:11Z</time>
      </trkpt>
      <trkpt lat="43.56488" lon="3.35552">
        <ele>152.3</ele>
        <time>2016-07-20T15:57:13Z</time>
      </trkpt>
      <trkpt lat="43.56491" lon="3.35538">
        <ele>152.5</ele>
        <time>2016-07-20T15:57:15Z</time>
      </trkpt>
      <trkpt lat="43.56495" lon="3.35523">
        <ele>153.3</ele>
        <time>2016-07-20T15:57:17Z</time>
      </trkpt>
      <trkpt lat="43.56498" lon="3.35511">
        <ele>153.4</ele>
        <time>2016-07-20T15:57:19Z</time>
      </trkpt>
      <trkpt lat="43.56497" lon="3.35497">
        <ele>153.4</ele>
        <time>2016-07-20T15:57:22Z</time>
      </trkpt>
      <trkpt lat="43.56494" lon="3.35483">
        <ele>155</ele>
        <time>2016-07-20T15:57:25Z</time>
      </trkpt>
      <trkpt lat="43.56489" lon="3.3547">
        <ele>155.8</ele>
        <time>2016-07-20T15:57:28Z</time>
      </trkpt>
      <trkpt lat="43.56486" lon="3.35461">
        <ele>155.7</ele>
        <time>2016-07-20T15:57:30Z</time>
      </trkpt>
      <trkpt lat="43.56482" lon="3.3545">
        <ele>155.8</ele>
        <time>2016-07-20T15:57:32Z</time>
      </trkpt>
      <trkpt lat="43.56477" lon="3.35438">
        <ele>155.1</ele>
        <time>2016-07-20T15:57:35Z</time>
      </trkpt>
      <trkpt lat="43.56474" lon="3.35429">
        <ele>155.2</ele>
        <time>2016-07-20T15:57:37Z</time>
      </trkpt>
      <trkpt lat="43.56469" lon="3.35415">
        <ele>154.9</ele>
        <time>2016-07-20T15:57:40Z</time>
      </trkpt>
      <trkpt lat="43.56466" lon="3.35405">
        <ele>154.6</ele>
        <time>2016-07-20T15:57:42Z</time>
      </trkpt>
      <trkpt lat="43.56463" lon="3.35395">
        <ele>154.3</ele>
        <time>2016-07-20T15:57:44Z</time>
      </trkpt>
      <trkpt lat="43.5646" lon="3.35384">
        <ele>154.7</ele>
        <time>2016-07-20T15:57:46Z</time>
      </trkpt>
      <trkpt lat="43.56457" lon="3.35372">
        <ele>154.9</ele>
        <time>2016-07-20T15:57:48Z</time>
      </trkpt>
      <trkpt lat="43.56454" lon="3.35361">
        <ele>155</ele>
        <time>2016-07-20T15:57:50Z</time>
      </trkpt>
      <trkpt lat="43.56452" lon="3.3535">
        <ele>156.2</ele>
        <time>2016-07-20T15:57:52Z</time>
      </trkpt>
      <trkpt lat="43.5645" lon="3.3534">
        <ele>156.4</ele>
        <time>2016-07-20T15:57:54Z</time>
      </trkpt>
      <trkpt lat="43.5645" lon="3.35326">
        <ele>156.4</ele>
        <time>2016-07-20T15:57:57Z</time>
      </trkpt>
      <trkpt lat="43.56451" lon="3.35314">
        <ele>156.5</ele>
        <time>2016-07-20T15:57:59Z</time>
      </trkpt>
      <trkpt lat="43.56452" lon="3.35303">
        <ele>156.8</ele>
        <time>2016-07-20T15:58:01Z</time>
      </trkpt>
      <trkpt lat="43.56452" lon="3.35291">
        <ele>155.9</ele>
        <time>2016-07-20T15:58:03Z</time>
      </trkpt>
      <trkpt lat="43.56453" lon="3.35278">
        <ele>155.9</ele>
        <time>2016-07-20T15:58:06Z</time>
      </trkpt>
      <trkpt lat="43.56452" lon="3.35267">
        <ele>156.1</ele>
        <time>2016-07-20T15:58:09Z</time>
      </trkpt>
      <trkpt lat="43.56448" lon="3.35255">
        <ele>156.4</ele>
        <time>2016-07-20T15:58:12Z</time>
      </trkpt>
      <trkpt lat="43.56444" lon="3.35246">
        <ele>156.6</ele>
        <time>2016-07-20T15:58:14Z</time>
      </trkpt>
      <trkpt lat="43.56441" lon="3.35237">
        <ele>156.9</ele>
        <time>2016-07-20T15:58:16Z</time>
      </trkpt>
      <trkpt lat="43.56436" lon="3.35225">
        <ele>158.3</ele>
        <time>2016-07-20T15:58:19Z</time>
      </trkpt>
      <trkpt lat="43.56432" lon="3.35214">
        <ele>158.7</ele>
        <time>2016-07-20T15:58:21Z</time>
      </trkpt>
      <trkpt lat="43.5643" lon="3.35204">
        <ele>160.4</ele>
        <time>2016-07-20T15:58:23Z</time>
      </trkpt>
      <trkpt lat="43.56429" lon="3.35193">
        <ele>160.5</ele>
        <time>2016-07-20T15:58:25Z</time>
      </trkpt>
      <trkpt lat="43.56428" lon="3.35183">
        <ele>160.6</ele>
        <time>2016-07-20T15:58:27Z</time>
      </trkpt>
      <trkpt lat="43.56426" lon="3.35173">
        <ele>160.6</ele>
        <time>2016-07-20T15:58:29Z</time>
      </trkpt>
      <trkpt lat="43.56424" lon="3.35162">
        <ele>160.7</ele>
        <time>2016-07-20T15:58:31Z</time>
      </trkpt>
      <trkpt lat="43.56422" lon="3.35152">
        <ele>161.3</ele>
        <time>2016-07-20T15:58:33Z</time>
      </trkpt>
      <trkpt lat="43.56419" lon="3.35142">
        <ele>163.7</ele>
        <time>2016-07-20T15:58:35Z</time>
      </trkpt>
      <trkpt lat="43.56417" lon="3.3513">
        <ele>164.9</ele>
        <time>2016-07-20T15:58:37Z</time>
      </trkpt>
      <trkpt lat="43.56413" lon="3.3512">
        <ele>165.4</ele>
        <time>2016-07-20T15:58:39Z</time>
      </trkpt>
      <trkpt lat="43.56409" lon="3.3511">
        <ele>165.7</ele>
        <time>2016-07-20T15:58:41Z</time>
      </trkpt>
      <trkpt lat="43.56405" lon="3.35098">
        <ele>165.9</ele>
        <time>2016-07-20T15:58:43Z</time>
      </trkpt>
      <trkpt lat="43.56401" lon="3.35085">
        <ele>166.7</ele>
        <time>2016-07-20T15:58:46Z</time>
      </trkpt>
      <trkpt lat="43.56397" lon="3.35074">
        <ele>167.2</ele>
        <time>2016-07-20T15:58:48Z</time>
      </trkpt>
      <trkpt lat="43.56394" lon="3.35064">
        <ele>167.2</ele>
        <time>2016-07-20T15:58:50Z</time>
      </trkpt>
      <trkpt lat="43.56392" lon="3.35054">
        <ele>167.3</ele>
        <time>2016-07-20T15:58:52Z</time>
      </trkpt>
      <trkpt lat="43.56391" lon="3.35038">
        <ele>167.3</ele>
        <time>2016-07-20T15:58:55Z</time>
      </trkpt>
      <trkpt lat="43.56397" lon="3.35027">
        <ele>167</ele>
        <time>2016-07-20T15:58:57Z</time>
      </trkpt>
      <trkpt lat="43.56403" lon="3.35021">
        <ele>167.1</ele>
        <time>2016-07-20T15:58:59Z</time>
      </trkpt>
      <trkpt lat="43.56411" lon="3.35014">
        <ele>167.3</ele>
        <time>2016-07-20T15:59:02Z</time>
      </trkpt>
      <trkpt lat="43.56417" lon="3.35004">
        <ele>167.5</ele>
        <time>2016-07-20T15:59:05Z</time>
      </trkpt>
      <trkpt lat="43.56417" lon="3.34994">
        <ele>167.5</ele>
        <time>2016-07-20T15:59:08Z</time>
      </trkpt>
      <trkpt lat="43.56411" lon="3.34982">
        <ele>167.7</ele>
        <time>2016-07-20T15:59:11Z</time>
      </trkpt>
      <trkpt lat="43.56406" lon="3.34975">
        <ele>168.1</ele>
        <time>2016-07-20T15:59:13Z</time>
      </trkpt>
      <trkpt lat="43.564" lon="3.34965">
        <ele>169.3</ele>
        <time>2016-07-20T15:59:15Z</time>
      </trkpt>
      <trkpt lat="43.56395" lon="3.34956">
        <ele>169.9</ele>
        <time>2016-07-20T15:59:17Z</time>
      </trkpt>
      <trkpt lat="43.56391" lon="3.34948">
        <ele>170.3</ele>
        <time>2016-07-20T15:59:19Z</time>
      </trkpt>
      <trkpt lat="43.56384" lon="3.34938">
        <ele>170.5</ele>
        <time>2016-07-20T15:59:21Z</time>
      </trkpt>
      <trkpt lat="43.56379" lon="3.34928">
        <ele>170.9</ele>
        <time>2016-07-20T15:59:23Z</time>
      </trkpt>
      <trkpt lat="43.56374" lon="3.34919">
        <ele>170.7</ele>
        <time>2016-07-20T15:59:25Z</time>
      </trkpt>
      <trkpt lat="43.5637" lon="3.34906">
        <ele>172</ele>
        <time>2016-07-20T15:59:27Z</time>
      </trkpt>
      <trkpt lat="43.56366" lon="3.34895">
        <ele>171.9</ele>
        <time>2016-07-20T15:59:29Z</time>
      </trkpt>
      <trkpt lat="43.56362" lon="3.34884">
        <ele>172.4</ele>
        <time>2016-07-20T15:59:31Z</time>
      </trkpt>
      <trkpt lat="43.56359" lon="3.34875">
        <ele>172.2</ele>
        <time>2016-07-20T15:59:33Z</time>
      </trkpt>
      <trkpt lat="43.56354" lon="3.34862">
        <ele>172.4</ele>
        <time>2016-07-20T15:59:36Z</time>
      </trkpt>
      <trkpt lat="43.5635" lon="3.3485">
        <ele>172.4</ele>
        <time>2016-07-20T15:59:39Z</time>
      </trkpt>
      <trkpt lat="43.56347" lon="3.34839">
        <ele>172.3</ele>
        <time>2016-07-20T15:59:42Z</time>
      </trkpt>
      <trkpt lat="43.56342" lon="3.34831">
        <ele>172.2</ele>
        <time>2016-07-20T15:59:45Z</time>
      </trkpt>
      <trkpt lat="43.56334" lon="3.34825">
        <ele>172.4</ele>
        <time>2016-07-20T15:59:48Z</time>
      </trkpt>
      <trkpt lat="43.56325" lon="3.3482">
        <ele>172.7</ele>
        <time>2016-07-20T15:59:51Z</time>
      </trkpt>
      <trkpt lat="43.56318" lon="3.34818">
        <ele>174.1</ele>
        <time>2016-07-20T15:59:53Z</time>
      </trkpt>
      <trkpt lat="43.56309" lon="3.34815">
        <ele>175.5</ele>
        <time>2016-07-20T15:59:55Z</time>
      </trkpt>
      <trkpt lat="43.56301" lon="3.34812">
        <ele>175.6</ele>
        <time>2016-07-20T15:59:57Z</time>
      </trkpt>
      <trkpt lat="43.56292" lon="3.34809">
        <ele>175.3</ele>
        <time>2016-07-20T15:59:59Z</time>
      </trkpt>
      <trkpt lat="43.56283" lon="3.34806">
        <ele>174.8</ele>
        <time>2016-07-20T16:00:01Z</time>
      </trkpt>
      <trkpt lat="43.56274" lon="3.34803">
        <ele>174.2</ele>
        <time>2016-07-20T16:00:03Z</time>
      </trkpt>
      <trkpt lat="43.56266" lon="3.34792">
        <ele>173.8</ele>
        <time>2016-07-20T16:00:05Z</time>
      </trkpt>
      <trkpt lat="43.56262" lon="3.34777">
        <ele>172</ele>
        <time>2016-07-20T16:00:07Z</time>
      </trkpt>
      <trkpt lat="43.56263" lon="3.3476">
        <ele>170.1</ele>
        <time>2016-07-20T16:00:09Z</time>
      </trkpt>
      <trkpt lat="43.56259" lon="3.34747">
        <ele>169.3</ele>
        <time>2016-07-20T16:00:11Z</time>
      </trkpt>
      <trkpt lat="43.56252" lon="3.34732">
        <ele>169.5</ele>
        <time>2016-07-20T16:00:13Z</time>
      </trkpt>
      <trkpt lat="43.56248" lon="3.34719">
        <ele>169.3</ele>
        <time>2016-07-20T16:00:15Z</time>
      </trkpt>
      <trkpt lat="43.56248" lon="3.34708">
        <ele>169.5</ele>
        <time>2016-07-20T16:00:17Z</time>
      </trkpt>
      <trkpt lat="43.56248" lon="3.34696">
        <ele>169.6</ele>
        <time>2016-07-20T16:00:19Z</time>
      </trkpt>
      <trkpt lat="43.56248" lon="3.34684">
        <ele>169.8</ele>
        <time>2016-07-20T16:00:21Z</time>
      </trkpt>
      <trkpt lat="43.56248" lon="3.34672">
        <ele>170</ele>
        <time>2016-07-20T16:00:23Z</time>
      </trkpt>
      <trkpt lat="43.56246" lon="3.34662">
        <ele>170.2</ele>
        <time>2016-07-20T16:00:25Z</time>
      </trkpt>
      <trkpt lat="43.56245" lon="3.34652">
        <ele>172.3</ele>
        <time>2016-07-20T16:00:28Z</time>
      </trkpt>
      <trkpt lat="43.56236" lon="3.34645">
        <ele>172.8</ele>
        <time>2016-07-20T16:00:32Z</time>
      </trkpt>
      <trkpt lat="43.56229" lon="3.34642">
        <ele>173.2</ele>
        <time>2016-07-20T16:00:35Z</time>
      </trkpt>
      <trkpt lat="43.56221" lon="3.34636">
        <ele>173.8</ele>
        <time>2016-07-20T16:00:39Z</time>
      </trkpt>
      <trkpt lat="43.56215" lon="3.34624">
        <ele>174</ele>
        <time>2016-07-20T16:00:42Z</time>
      </trkpt>
      <trkpt lat="43.5621" lon="3.34614">
        <ele>174.1</ele>
        <time>2016-07-20T16:00:44Z</time>
      </trkpt>
      <trkpt lat="43.56205" lon="3.34605">
        <ele>174.2</ele>
        <time>2016-07-20T16:00:46Z</time>
      </trkpt>
      <trkpt lat="43.56201" lon="3.34594">
        <ele>174.5</ele>
        <time>2016-07-20T16:00:49Z</time>
      </trkpt>
      <trkpt lat="43.56201" lon="3.34581">
        <ele>174.8</ele>
        <time>2016-07-20T16:00:52Z</time>
      </trkpt>
      <trkpt lat="43.56199" lon="3.34569">
        <ele>175.1</ele>
        <time>2016-07-20T16:00:55Z</time>
      </trkpt>
      <trkpt lat="43.56199" lon="3.34556">
        <ele>175.4</ele>
        <time>2016-07-20T16:00:58Z</time>
      </trkpt>
      <trkpt lat="43.56198" lon="3.34545">
        <ele>175.6</ele>
        <time>2016-07-20T16:01:01Z</time>
      </trkpt>
      <trkpt lat="43.56198" lon="3.3453">
        <ele>175.8</ele>
        <time>2016-07-20T16:01:04Z</time>
      </trkpt>
      <trkpt lat="43.56198" lon="3.34518">
        <ele>175.7</ele>
        <time>2016-07-20T16:01:07Z</time>
      </trkpt>
      <trkpt lat="43.56198" lon="3.34506">
        <ele>175.9</ele>
        <time>2016-07-20T16:01:10Z</time>
      </trkpt>
      <trkpt lat="43.56199" lon="3.34495">
        <ele>176</ele>
        <time>2016-07-20T16:01:12Z</time>
      </trkpt>
      <trkpt lat="43.562" lon="3.34484">
        <ele>176</ele>
        <time>2016-07-20T16:01:14Z</time>
      </trkpt>
      <trkpt lat="43.56201" lon="3.34471">
        <ele>176.3</ele>
        <time>2016-07-20T16:01:17Z</time>
      </trkpt>
      <trkpt lat="43.56204" lon="3.34457">
        <ele>176.5</ele>
        <time>2016-07-20T16:01:20Z</time>
      </trkpt>
      <trkpt lat="43.56206" lon="3.34445">
        <ele>175.7</ele>
        <time>2016-07-20T16:01:22Z</time>
      </trkpt>
      <trkpt lat="43.56208" lon="3.34431">
        <ele>176.2</ele>
        <time>2016-07-20T16:01:24Z</time>
      </trkpt>
      <trkpt lat="43.56208" lon="3.34419">
        <ele>177.1</ele>
        <time>2016-07-20T16:01:26Z</time>
      </trkpt>
      <trkpt lat="43.56207" lon="3.34404">
        <ele>177.5</ele>
        <time>2016-07-20T16:01:29Z</time>
      </trkpt>
      <trkpt lat="43.56207" lon="3.34393">
        <ele>177.2</ele>
        <time>2016-07-20T16:01:31Z</time>
      </trkpt>
      <trkpt lat="43.56206" lon="3.34383">
        <ele>177.6</ele>
        <time>2016-07-20T16:01:33Z</time>
      </trkpt>
      <trkpt lat="43.56205" lon="3.34368">
        <ele>178.4</ele>
        <time>2016-07-20T16:01:35Z</time>
      </trkpt>
      <trkpt lat="43.56204" lon="3.34354">
        <ele>178.9</ele>
        <time>2016-07-20T16:01:37Z</time>
      </trkpt>
      <trkpt lat="43.56204" lon="3.34342">
        <ele>178</ele>
        <time>2016-07-20T16:01:39Z</time>
      </trkpt>
      <trkpt lat="43.56203" lon="3.34331">
        <ele>176.4</ele>
        <time>2016-07-20T16:01:41Z</time>
      </trkpt>
      <trkpt lat="43.56203" lon="3.34318">
        <ele>176.5</ele>
        <time>2016-07-20T16:01:43Z</time>
      </trkpt>
      <trkpt lat="43.56201" lon="3.34308">
        <ele>176.6</ele>
        <time>2016-07-20T16:01:45Z</time>
      </trkpt>
      <trkpt lat="43.56199" lon="3.34298">
        <ele>176.6</ele>
        <time>2016-07-20T16:01:47Z</time>
      </trkpt>
      <trkpt lat="43.56197" lon="3.34289">
        <ele>176</ele>
        <time>2016-07-20T16:01:49Z</time>
      </trkpt>
      <trkpt lat="43.56194" lon="3.34277">
        <ele>175.2</ele>
        <time>2016-07-20T16:01:51Z</time>
      </trkpt>
      <trkpt lat="43.56193" lon="3.34267">
        <ele>175.2</ele>
        <time>2016-07-20T16:01:53Z</time>
      </trkpt>
      <trkpt lat="43.56192" lon="3.34257">
        <ele>176.6</ele>
        <time>2016-07-20T16:01:55Z</time>
      </trkpt>
      <trkpt lat="43.5619" lon="3.34243">
        <ele>176.7</ele>
        <time>2016-07-20T16:01:58Z</time>
      </trkpt>
      <trkpt lat="43.56189" lon="3.34232">
        <ele>177</ele>
        <time>2016-07-20T16:02:00Z</time>
      </trkpt>
      <trkpt lat="43.5619" lon="3.3422">
        <ele>177.2</ele>
        <time>2016-07-20T16:02:02Z</time>
      </trkpt>
      <trkpt lat="43.5619" lon="3.3421">
        <ele>177.4</ele>
        <time>2016-07-20T16:02:04Z</time>
      </trkpt>
      <trkpt lat="43.56191" lon="3.342">
        <ele>177.5</ele>
        <time>2016-07-20T16:02:06Z</time>
      </trkpt>
      <trkpt lat="43.56195" lon="3.34187">
        <ele>177.8</ele>
        <time>2016-07-20T16:02:09Z</time>
      </trkpt>
      <trkpt lat="43.562" lon="3.34175">
        <ele>178.3</ele>
        <time>2016-07-20T16:02:12Z</time>
      </trkpt>
      <trkpt lat="43.56204" lon="3.34166">
        <ele>178.7</ele>
        <time>2016-07-20T16:02:14Z</time>
      </trkpt>
      <trkpt lat="43.5621" lon="3.34155">
        <ele>179.4</ele>
        <time>2016-07-20T16:02:17Z</time>
      </trkpt>
      <trkpt lat="43.56215" lon="3.34143">
        <ele>180.3</ele>
        <time>2016-07-20T16:02:20Z</time>
      </trkpt>
      <trkpt lat="43.56218" lon="3.34134">
        <ele>180.7</ele>
        <time>2016-07-20T16:02:22Z</time>
      </trkpt>
      <trkpt lat="43.56222" lon="3.34125">
        <ele>181.3</ele>
        <time>2016-07-20T16:02:24Z</time>
      </trkpt>
      <trkpt lat="43.56227" lon="3.34112">
        <ele>181.9</ele>
        <time>2016-07-20T16:02:27Z</time>
      </trkpt>
      <trkpt lat="43.56232" lon="3.34104">
        <ele>182.3</ele>
        <time>2016-07-20T16:02:29Z</time>
      </trkpt>
      <trkpt lat="43.56237" lon="3.34096">
        <ele>184.6</ele>
        <time>2016-07-20T16:02:31Z</time>
      </trkpt>
      <trkpt lat="43.56243" lon="3.3409">
        <ele>185</ele>
        <time>2016-07-20T16:02:33Z</time>
      </trkpt>
      <trkpt lat="43.56249" lon="3.3408">
        <ele>185.6</ele>
        <time>2016-07-20T16:02:36Z</time>
      </trkpt>
      <trkpt lat="43.56255" lon="3.34071">
        <ele>186</ele>
        <time>2016-07-20T16:02:38Z</time>
      </trkpt>
      <trkpt lat="43.56261" lon="3.34063">
        <ele>186.6</ele>
        <time>2016-07-20T16:02:41Z</time>
      </trkpt>
      <trkpt lat="43.56267" lon="3.34054">
        <ele>187.1</ele>
        <time>2016-07-20T16:02:44Z</time>
      </trkpt>
      <trkpt lat="43.56272" lon="3.34045">
        <ele>187.2</ele>
        <time>2016-07-20T16:02:47Z</time>
      </trkpt>
      <trkpt lat="43.5628" lon="3.34038">
        <ele>187.3</ele>
        <time>2016-07-20T16:02:49Z</time>
      </trkpt>
      <trkpt lat="43.56288" lon="3.34032">
        <ele>187.3</ele>
        <time>2016-07-20T16:02:51Z</time>
      </trkpt>
      <trkpt lat="43.56295" lon="3.34022">
        <ele>187.1</ele>
        <time>2016-07-20T16:02:53Z</time>
      </trkpt>
      <trkpt lat="43.56305" lon="3.34016">
        <ele>188.2</ele>
        <time>2016-07-20T16:02:55Z</time>
      </trkpt>
      <trkpt lat="43.56317" lon="3.34016">
        <ele>190.3</ele>
        <time>2016-07-20T16:02:57Z</time>
      </trkpt>
      <trkpt lat="43.56328" lon="3.34019">
        <ele>191.6</ele>
        <time>2016-07-20T16:02:59Z</time>
      </trkpt>
      <trkpt lat="43.56339" lon="3.3402">
        <ele>193.1</ele>
        <time>2016-07-20T16:03:01Z</time>
      </trkpt>
      <trkpt lat="43.5635" lon="3.34019">
        <ele>194.3</ele>
        <time>2016-07-20T16:03:03Z</time>
      </trkpt>
      <trkpt lat="43.56362" lon="3.34014">
        <ele>195.3</ele>
        <time>2016-07-20T16:03:05Z</time>
      </trkpt>
      <trkpt lat="43.56373" lon="3.34005">
        <ele>195.5</ele>
        <time>2016-07-20T16:03:07Z</time>
      </trkpt>
      <trkpt lat="43.56379" lon="3.33997">
        <ele>194.8</ele>
        <time>2016-07-20T16:03:09Z</time>
      </trkpt>
      <trkpt lat="43.56381" lon="3.33984">
        <ele>194.9</ele>
        <time>2016-07-20T16:03:12Z</time>
      </trkpt>
      <trkpt lat="43.56382" lon="3.33974">
        <ele>193.9</ele>
        <time>2016-07-20T16:03:14Z</time>
      </trkpt>
      <trkpt lat="43.56383" lon="3.33961">
        <ele>192.6</ele>
        <time>2016-07-20T16:03:17Z</time>
      </trkpt>
      <trkpt lat="43.56385" lon="3.33949">
        <ele>191.7</ele>
        <time>2016-07-20T16:03:19Z</time>
      </trkpt>
      <trkpt lat="43.56388" lon="3.33935">
        <ele>190.8</ele>
        <time>2016-07-20T16:03:21Z</time>
      </trkpt>
      <trkpt lat="43.56386" lon="3.33925">
        <ele>190.3</ele>
        <time>2016-07-20T16:03:23Z</time>
      </trkpt>
      <trkpt lat="43.56386" lon="3.33909">
        <ele>188.9</ele>
        <time>2016-07-20T16:03:26Z</time>
      </trkpt>
      <trkpt lat="43.56385" lon="3.33898">
        <ele>189.7</ele>
        <time>2016-07-20T16:03:28Z</time>
      </trkpt>
      <trkpt lat="43.56383" lon="3.33887">
        <ele>189.1</ele>
        <time>2016-07-20T16:03:30Z</time>
      </trkpt>
      <trkpt lat="43.56383" lon="3.33877">
        <ele>188.7</ele>
        <time>2016-07-20T16:03:32Z</time>
      </trkpt>
      <trkpt lat="43.56382" lon="3.33864">
        <ele>189.4</ele>
        <time>2016-07-20T16:03:34Z</time>
      </trkpt>
      <trkpt lat="43.56383" lon="3.33849">
        <ele>190.3</ele>
        <time>2016-07-20T16:03:36Z</time>
      </trkpt>
      <trkpt lat="43.56386" lon="3.33839">
        <ele>190.4</ele>
        <time>2016-07-20T16:03:38Z</time>
      </trkpt>
      <trkpt lat="43.56391" lon="3.3383">
        <ele>190.3</ele>
        <time>2016-07-20T16:03:40Z</time>
      </trkpt>
      <trkpt lat="43.56396" lon="3.33823">
        <ele>190.4</ele>
        <time>2016-07-20T16:03:42Z</time>
      </trkpt>
      <trkpt lat="43.56403" lon="3.33816">
        <ele>190.5</ele>
        <time>2016-07-20T16:03:44Z</time>
      </trkpt>
      <trkpt lat="43.5641" lon="3.33811">
        <ele>192.7</ele>
        <time>2016-07-20T16:03:46Z</time>
      </trkpt>
      <trkpt lat="43.56418" lon="3.33807">
        <ele>193.8</ele>
        <time>2016-07-20T16:03:48Z</time>
      </trkpt>
      <trkpt lat="43.56426" lon="3.33802">
        <ele>194.6</ele>
        <time>2016-07-20T16:03:50Z</time>
      </trkpt>
      <trkpt lat="43.56433" lon="3.33803">
        <ele>195.4</ele>
        <time>2016-07-20T16:03:52Z</time>
      </trkpt>
      <trkpt lat="43.56443" lon="3.33802">
        <ele>195.4</ele>
        <time>2016-07-20T16:03:55Z</time>
      </trkpt>
      <trkpt lat="43.56454" lon="3.33798">
        <ele>195.5</ele>
        <time>2016-07-20T16:03:58Z</time>
      </trkpt>
      <trkpt lat="43.56462" lon="3.33793">
        <ele>195.8</ele>
        <time>2016-07-20T16:04:00Z</time>
      </trkpt>
      <trkpt lat="43.56469" lon="3.33788">
        <ele>195.1</ele>
        <time>2016-07-20T16:04:02Z</time>
      </trkpt>
      <trkpt lat="43.56478" lon="3.33783">
        <ele>194.9</ele>
        <time>2016-07-20T16:04:05Z</time>
      </trkpt>
      <trkpt lat="43.56487" lon="3.33777">
        <ele>195</ele>
        <time>2016-07-20T16:04:08Z</time>
      </trkpt>
      <trkpt lat="43.56495" lon="3.33768">
        <ele>195.3</ele>
        <time>2016-07-20T16:04:11Z</time>
      </trkpt>
      <trkpt lat="43.56502" lon="3.33763">
        <ele>195.2</ele>
        <time>2016-07-20T16:04:13Z</time>
      </trkpt>
      <trkpt lat="43.56507" lon="3.33757">
        <ele>195.3</ele>
        <time>2016-07-20T16:04:15Z</time>
      </trkpt>
      <trkpt lat="43.56513" lon="3.33748">
        <ele>195.3</ele>
        <time>2016-07-20T16:04:17Z</time>
      </trkpt>
      <trkpt lat="43.56519" lon="3.3374">
        <ele>195.2</ele>
        <time>2016-07-20T16:04:19Z</time>
      </trkpt>
      <trkpt lat="43.56524" lon="3.33731">
        <ele>195.2</ele>
        <time>2016-07-20T16:04:21Z</time>
      </trkpt>
      <trkpt lat="43.56526" lon="3.3372">
        <ele>195.1</ele>
        <time>2016-07-20T16:04:24Z</time>
      </trkpt>
      <trkpt lat="43.56526" lon="3.33709">
        <ele>195.1</ele>
        <time>2016-07-20T16:04:27Z</time>
      </trkpt>
      <trkpt lat="43.56524" lon="3.33698">
        <ele>195.3</ele>
        <time>2016-07-20T16:04:29Z</time>
      </trkpt>
      <trkpt lat="43.56521" lon="3.33686">
        <ele>195.3</ele>
        <time>2016-07-20T16:04:32Z</time>
      </trkpt>
      <trkpt lat="43.56518" lon="3.33672">
        <ele>195.4</ele>
        <time>2016-07-20T16:04:35Z</time>
      </trkpt>
      <trkpt lat="43.56516" lon="3.33661">
        <ele>195.4</ele>
        <time>2016-07-20T16:04:37Z</time>
      </trkpt>
      <trkpt lat="43.56514" lon="3.33652">
        <ele>195.2</ele>
        <time>2016-07-20T16:04:40Z</time>
      </trkpt>
      <trkpt lat="43.56512" lon="3.33639">
        <ele>195.1</ele>
        <time>2016-07-20T16:04:44Z</time>
      </trkpt>
      <trkpt lat="43.56519" lon="3.33639">
        <ele>195.4</ele>
        <time>2016-07-20T16:04:48Z</time>
      </trkpt>
      <trkpt lat="43.56523" lon="3.33638">
        <ele>196</ele>
        <time>2016-07-20T16:04:55Z</time>
      </trkpt>
      <trkpt lat="43.56514" lon="3.33637">
        <ele>197.3</ele>
        <time>2016-07-20T16:05:10Z</time>
      </trkpt>
      <trkpt lat="43.56507" lon="3.3363">
        <ele>197.5</ele>
        <time>2016-07-20T16:05:13Z</time>
      </trkpt>
      <trkpt lat="43.56502" lon="3.3362">
        <ele>197.8</ele>
        <time>2016-07-20T16:05:16Z</time>
      </trkpt>
      <trkpt lat="43.56497" lon="3.3361">
        <ele>198.2</ele>
        <time>2016-07-20T16:05:19Z</time>
      </trkpt>
      <trkpt lat="43.56491" lon="3.336">
        <ele>198.4</ele>
        <time>2016-07-20T16:05:22Z</time>
      </trkpt>
      <trkpt lat="43.56485" lon="3.33592">
        <ele>200.1</ele>
        <time>2016-07-20T16:05:25Z</time>
      </trkpt>
      <trkpt lat="43.56481" lon="3.33582">
        <ele>202.4</ele>
        <time>2016-07-20T16:05:27Z</time>
      </trkpt>
      <trkpt lat="43.56477" lon="3.33571">
        <ele>202.9</ele>
        <time>2016-07-20T16:05:30Z</time>
      </trkpt>
      <trkpt lat="43.56472" lon="3.33559">
        <ele>203</ele>
        <time>2016-07-20T16:05:33Z</time>
      </trkpt>
      <trkpt lat="43.56468" lon="3.33546">
        <ele>202.9</ele>
        <time>2016-07-20T16:05:36Z</time>
      </trkpt>
      <trkpt lat="43.56462" lon="3.33533">
        <ele>202.8</ele>
        <time>2016-07-20T16:05:39Z</time>
      </trkpt>
      <trkpt lat="43.56457" lon="3.33526">
        <ele>202.8</ele>
        <time>2016-07-20T16:05:41Z</time>
      </trkpt>
      <trkpt lat="43.5645" lon="3.33518">
        <ele>203</ele>
        <time>2016-07-20T16:05:43Z</time>
      </trkpt>
      <trkpt lat="43.56444" lon="3.3351">
        <ele>203.3</ele>
        <time>2016-07-20T16:05:45Z</time>
      </trkpt>
      <trkpt lat="43.56437" lon="3.335">
        <ele>203.8</ele>
        <time>2016-07-20T16:05:48Z</time>
      </trkpt>
      <trkpt lat="43.56432" lon="3.33491">
        <ele>204.2</ele>
        <time>2016-07-20T16:05:51Z</time>
      </trkpt>
      <trkpt lat="43.56425" lon="3.3348">
        <ele>205</ele>
        <time>2016-07-20T16:05:54Z</time>
      </trkpt>
      <trkpt lat="43.56418" lon="3.33469">
        <ele>206.5</ele>
        <time>2016-07-20T16:05:56Z</time>
      </trkpt>
      <trkpt lat="43.56412" lon="3.33458">
        <ele>206.7</ele>
        <time>2016-07-20T16:05:58Z</time>
      </trkpt>
      <trkpt lat="43.56403" lon="3.33444">
        <ele>206</ele>
        <time>2016-07-20T16:06:00Z</time>
      </trkpt>
      <trkpt lat="43.56394" lon="3.33431">
        <ele>204.6</ele>
        <time>2016-07-20T16:06:02Z</time>
      </trkpt>
      <trkpt lat="43.56386" lon="3.33417">
        <ele>203.6</ele>
        <time>2016-07-20T16:06:04Z</time>
      </trkpt>
      <trkpt lat="43.56379" lon="3.33402">
        <ele>202.8</ele>
        <time>2016-07-20T16:06:06Z</time>
      </trkpt>
      <trkpt lat="43.56372" lon="3.3339">
        <ele>204.5</ele>
        <time>2016-07-20T16:06:08Z</time>
      </trkpt>
      <trkpt lat="43.56367" lon="3.33376">
        <ele>204.6</ele>
        <time>2016-07-20T16:06:10Z</time>
      </trkpt>
      <trkpt lat="43.56364" lon="3.33361">
        <ele>205.1</ele>
        <time>2016-07-20T16:06:12Z</time>
      </trkpt>
      <trkpt lat="43.56361" lon="3.33347">
        <ele>205.3</ele>
        <time>2016-07-20T16:06:14Z</time>
      </trkpt>
      <trkpt lat="43.56358" lon="3.33335">
        <ele>205</ele>
        <time>2016-07-20T16:06:16Z</time>
      </trkpt>
      <trkpt lat="43.56355" lon="3.33325">
        <ele>203.9</ele>
        <time>2016-07-20T16:06:18Z</time>
      </trkpt>
      <trkpt lat="43.56352" lon="3.33315">
        <ele>203.1</ele>
        <time>2016-07-20T16:06:20Z</time>
      </trkpt>
      <trkpt lat="43.56348" lon="3.33305">
        <ele>203.3</ele>
        <time>2016-07-20T16:06:22Z</time>
      </trkpt>
      <trkpt lat="43.56344" lon="3.33295">
        <ele>203.5</ele>
        <time>2016-07-20T16:06:24Z</time>
      </trkpt>
      <trkpt lat="43.5634" lon="3.33285">
        <ele>205</ele>
        <time>2016-07-20T16:06:26Z</time>
      </trkpt>
      <trkpt lat="43.56335" lon="3.33277">
        <ele>205.3</ele>
        <time>2016-07-20T16:06:28Z</time>
      </trkpt>
      <trkpt lat="43.56331" lon="3.33267">
        <ele>206.3</ele>
        <time>2016-07-20T16:06:30Z</time>
      </trkpt>
      <trkpt lat="43.56328" lon="3.33256">
        <ele>206.4</ele>
        <time>2016-07-20T16:06:32Z</time>
      </trkpt>
      <trkpt lat="43.56325" lon="3.33246">
        <ele>208.1</ele>
        <time>2016-07-20T16:06:34Z</time>
      </trkpt>
      <trkpt lat="43.56322" lon="3.33235">
        <ele>208.6</ele>
        <time>2016-07-20T16:06:36Z</time>
      </trkpt>
      <trkpt lat="43.56319" lon="3.33225">
        <ele>209.8</ele>
        <time>2016-07-20T16:06:38Z</time>
      </trkpt>
      <trkpt lat="43.56318" lon="3.33213">
        <ele>209.9</ele>
        <time>2016-07-20T16:06:40Z</time>
      </trkpt>
      <trkpt lat="43.56316" lon="3.33201">
        <ele>210</ele>
        <time>2016-07-20T16:06:42Z</time>
      </trkpt>
      <trkpt lat="43.56312" lon="3.33191">
        <ele>211.5</ele>
        <time>2016-07-20T16:06:44Z</time>
      </trkpt>
      <trkpt lat="43.56306" lon="3.3318">
        <ele>212.4</ele>
        <time>2016-07-20T16:06:46Z</time>
      </trkpt>
      <trkpt lat="43.56303" lon="3.33168">
        <ele>212.3</ele>
        <time>2016-07-20T16:06:48Z</time>
      </trkpt>
      <trkpt lat="43.56301" lon="3.33156">
        <ele>212.7</ele>
        <time>2016-07-20T16:06:50Z</time>
      </trkpt>
      <trkpt lat="43.56298" lon="3.33146">
        <ele>212.8</ele>
        <time>2016-07-20T16:06:52Z</time>
      </trkpt>
      <trkpt lat="43.56296" lon="3.33133">
        <ele>213</ele>
        <time>2016-07-20T16:06:55Z</time>
      </trkpt>
      <trkpt lat="43.56295" lon="3.33122">
        <ele>213.1</ele>
        <time>2016-07-20T16:06:57Z</time>
      </trkpt>
      <trkpt lat="43.56293" lon="3.3311">
        <ele>213.1</ele>
        <time>2016-07-20T16:06:59Z</time>
      </trkpt>
      <trkpt lat="43.56291" lon="3.33099">
        <ele>212.9</ele>
        <time>2016-07-20T16:07:01Z</time>
      </trkpt>
      <trkpt lat="43.56291" lon="3.33086">
        <ele>210.9</ele>
        <time>2016-07-20T16:07:03Z</time>
      </trkpt>
      <trkpt lat="43.56291" lon="3.33074">
        <ele>210.8</ele>
        <time>2016-07-20T16:07:05Z</time>
      </trkpt>
      <trkpt lat="43.56291" lon="3.33061">
        <ele>211.2</ele>
        <time>2016-07-20T16:07:07Z</time>
      </trkpt>
      <trkpt lat="43.56292" lon="3.33047">
        <ele>211.2</ele>
        <time>2016-07-20T16:07:09Z</time>
      </trkpt>
      <trkpt lat="43.56293" lon="3.33034">
        <ele>211.6</ele>
        <time>2016-07-20T16:07:11Z</time>
      </trkpt>
      <trkpt lat="43.56293" lon="3.33024">
        <ele>211.5</ele>
        <time>2016-07-20T16:07:13Z</time>
      </trkpt>
      <trkpt lat="43.56291" lon="3.33014">
        <ele>211.6</ele>
        <time>2016-07-20T16:07:15Z</time>
      </trkpt>
      <trkpt lat="43.56286" lon="3.33001">
        <ele>210.9</ele>
        <time>2016-07-20T16:07:18Z</time>
      </trkpt>
      <trkpt lat="43.56277" lon="3.32991">
        <ele>209.4</ele>
        <time>2016-07-20T16:07:21Z</time>
      </trkpt>
      <trkpt lat="43.56271" lon="3.32986">
        <ele>208</ele>
        <time>2016-07-20T16:07:23Z</time>
      </trkpt>
      <trkpt lat="43.56262" lon="3.32983">
        <ele>207.4</ele>
        <time>2016-07-20T16:07:25Z</time>
      </trkpt>
      <trkpt lat="43.56253" lon="3.32976">
        <ele>208.5</ele>
        <time>2016-07-20T16:07:28Z</time>
      </trkpt>
      <trkpt lat="43.56255" lon="3.32962">
        <ele>208.7</ele>
        <time>2016-07-20T16:07:31Z</time>
      </trkpt>
      <trkpt lat="43.56255" lon="3.3295">
        <ele>208.8</ele>
        <time>2016-07-20T16:07:33Z</time>
      </trkpt>
      <trkpt lat="43.56256" lon="3.32939">
        <ele>208.8</ele>
        <time>2016-07-20T16:07:35Z</time>
      </trkpt>
      <trkpt lat="43.56256" lon="3.32928">
        <ele>208.7</ele>
        <time>2016-07-20T16:07:37Z</time>
      </trkpt>
      <trkpt lat="43.56255" lon="3.32918">
        <ele>208.7</ele>
        <time>2016-07-20T16:07:39Z</time>
      </trkpt>
      <trkpt lat="43.56255" lon="3.32908">
        <ele>208.7</ele>
        <time>2016-07-20T16:07:41Z</time>
      </trkpt>
      <trkpt lat="43.56254" lon="3.32894">
        <ele>208.6</ele>
        <time>2016-07-20T16:07:44Z</time>
      </trkpt>
      <trkpt lat="43.56253" lon="3.32881">
        <ele>208.6</ele>
        <time>2016-07-20T16:07:47Z</time>
      </trkpt>
      <trkpt lat="43.56255" lon="3.32868">
        <ele>208.7</ele>
        <time>2016-07-20T16:07:50Z</time>
      </trkpt>
      <trkpt lat="43.56255" lon="3.32856">
        <ele>208.8</ele>
        <time>2016-07-20T16:07:53Z</time>
      </trkpt>
      <trkpt lat="43.56255" lon="3.32842">
        <ele>209</ele>
        <time>2016-07-20T16:07:56Z</time>
      </trkpt>
      <trkpt lat="43.56255" lon="3.32828">
        <ele>208.9</ele>
        <time>2016-07-20T16:07:59Z</time>
      </trkpt>
      <trkpt lat="43.56255" lon="3.32815">
        <ele>208.9</ele>
        <time>2016-07-20T16:08:02Z</time>
      </trkpt>
      <trkpt lat="43.56258" lon="3.32802">
        <ele>208.9</ele>
        <time>2016-07-20T16:08:04Z</time>
      </trkpt>
      <trkpt lat="43.56262" lon="3.32789">
        <ele>209.1</ele>
        <time>2016-07-20T16:08:07Z</time>
      </trkpt>
      <trkpt lat="43.56265" lon="3.32779">
        <ele>209.2</ele>
        <time>2016-07-20T16:08:09Z</time>
      </trkpt>
      <trkpt lat="43.56266" lon="3.32767">
        <ele>209.2</ele>
        <time>2016-07-20T16:08:12Z</time>
      </trkpt>
      <trkpt lat="43.56268" lon="3.32756">
        <ele>209.4</ele>
        <time>2016-07-20T16:08:14Z</time>
      </trkpt>
      <trkpt lat="43.5627" lon="3.32741">
        <ele>209.5</ele>
        <time>2016-07-20T16:08:17Z</time>
      </trkpt>
      <trkpt lat="43.5627" lon="3.32728">
        <ele>210</ele>
        <time>2016-07-20T16:08:20Z</time>
      </trkpt>
      <trkpt lat="43.56272" lon="3.32716">
        <ele>210.3</ele>
        <time>2016-07-20T16:08:23Z</time>
      </trkpt>
      <trkpt lat="43.56269" lon="3.32703">
        <ele>210.7</ele>
        <time>2016-07-20T16:08:26Z</time>
      </trkpt>
      <trkpt lat="43.56269" lon="3.32692">
        <ele>211.3</ele>
        <time>2016-07-20T16:08:29Z</time>
      </trkpt>
      <trkpt lat="43.56267" lon="3.3268">
        <ele>211.6</ele>
        <time>2016-07-20T16:08:32Z</time>
      </trkpt>
      <trkpt lat="43.56267" lon="3.3267">
        <ele>211.9</ele>
        <time>2016-07-20T16:08:34Z</time>
      </trkpt>
      <trkpt lat="43.56265" lon="3.32658">
        <ele>212.1</ele>
        <time>2016-07-20T16:08:37Z</time>
      </trkpt>
      <trkpt lat="43.56263" lon="3.32645">
        <ele>212.2</ele>
        <time>2016-07-20T16:08:40Z</time>
      </trkpt>
      <trkpt lat="43.56262" lon="3.32635">
        <ele>212.3</ele>
        <time>2016-07-20T16:08:42Z</time>
      </trkpt>
      <trkpt lat="43.5626" lon="3.32623">
        <ele>212.4</ele>
        <time>2016-07-20T16:08:45Z</time>
      </trkpt>
      <trkpt lat="43.5626" lon="3.32611">
        <ele>212.6</ele>
        <time>2016-07-20T16:08:48Z</time>
      </trkpt>
      <trkpt lat="43.5626" lon="3.32597">
        <ele>213</ele>
        <time>2016-07-20T16:08:51Z</time>
      </trkpt>
      <trkpt lat="43.56258" lon="3.32584">
        <ele>213.5</ele>
        <time>2016-07-20T16:08:54Z</time>
      </trkpt>
      <trkpt lat="43.56256" lon="3.32571">
        <ele>213.8</ele>
        <time>2016-07-20T16:08:57Z</time>
      </trkpt>
      <trkpt lat="43.56255" lon="3.32559">
        <ele>214.1</ele>
        <time>2016-07-20T16:09:00Z</time>
      </trkpt>
      <trkpt lat="43.56257" lon="3.32545">
        <ele>214.4</ele>
        <time>2016-07-20T16:09:03Z</time>
      </trkpt>
      <trkpt lat="43.56255" lon="3.32535">
        <ele>214.7</ele>
        <time>2016-07-20T16:09:05Z</time>
      </trkpt>
      <trkpt lat="43.56257" lon="3.32524">
        <ele>215</ele>
        <time>2016-07-20T16:09:07Z</time>
      </trkpt>
      <trkpt lat="43.56259" lon="3.32514">
        <ele>215.6</ele>
        <time>2016-07-20T16:09:10Z</time>
      </trkpt>
      <trkpt lat="43.56258" lon="3.32502">
        <ele>216.1</ele>
        <time>2016-07-20T16:09:13Z</time>
      </trkpt>
      <trkpt lat="43.5626" lon="3.32488">
        <ele>216.6</ele>
        <time>2016-07-20T16:09:16Z</time>
      </trkpt>
      <trkpt lat="43.5626" lon="3.32476">
        <ele>217</ele>
        <time>2016-07-20T16:09:19Z</time>
      </trkpt>
      <trkpt lat="43.5626" lon="3.32463">
        <ele>217.2</ele>
        <time>2016-07-20T16:09:22Z</time>
      </trkpt>
      <trkpt lat="43.5626" lon="3.32449">
        <ele>217.8</ele>
        <time>2016-07-20T16:09:25Z</time>
      </trkpt>
      <trkpt lat="43.56263" lon="3.32439">
        <ele>218.4</ele>
        <time>2016-07-20T16:09:27Z</time>
      </trkpt>
      <trkpt lat="43.56266" lon="3.32429">
        <ele>218.9</ele>
        <time>2016-07-20T16:09:29Z</time>
      </trkpt>
      <trkpt lat="43.56268" lon="3.32418">
        <ele>219.4</ele>
        <time>2016-07-20T16:09:31Z</time>
      </trkpt>
      <trkpt lat="43.56271" lon="3.32406">
        <ele>219.9</ele>
        <time>2016-07-20T16:09:34Z</time>
      </trkpt>
      <trkpt lat="43.56273" lon="3.32393">
        <ele>220.5</ele>
        <time>2016-07-20T16:09:37Z</time>
      </trkpt>
      <trkpt lat="43.56274" lon="3.32381">
        <ele>221</ele>
        <time>2016-07-20T16:09:40Z</time>
      </trkpt>
      <trkpt lat="43.56271" lon="3.32371">
        <ele>221.5</ele>
        <time>2016-07-20T16:09:44Z</time>
      </trkpt>
      <trkpt lat="43.56268" lon="3.32381">
        <ele>222.4</ele>
        <time>2016-07-20T16:09:50Z</time>
      </trkpt>
      <trkpt lat="43.56265" lon="3.32394">
        <ele>223.2</ele>
        <time>2016-07-20T16:09:54Z</time>
      </trkpt>
      <trkpt lat="43.56263" lon="3.32403">
        <ele>223.9</ele>
        <time>2016-07-20T16:09:57Z</time>
      </trkpt>
      <trkpt lat="43.56259" lon="3.32413">
        <ele>224.3</ele>
        <time>2016-07-20T16:10:00Z</time>
      </trkpt>
      <trkpt lat="43.56255" lon="3.32424">
        <ele>224.8</ele>
        <time>2016-07-20T16:10:03Z</time>
      </trkpt>
      <trkpt lat="43.56253" lon="3.32436">
        <ele>225.2</ele>
        <time>2016-07-20T16:10:06Z</time>
      </trkpt>
      <trkpt lat="43.56251" lon="3.32448">
        <ele>225.6</ele>
        <time>2016-07-20T16:10:09Z</time>
      </trkpt>
      <trkpt lat="43.5625" lon="3.3246">
        <ele>226.1</ele>
        <time>2016-07-20T16:10:12Z</time>
      </trkpt>
      <trkpt lat="43.56247" lon="3.32472">
        <ele>226.6</ele>
        <time>2016-07-20T16:10:15Z</time>
      </trkpt>
      <trkpt lat="43.56243" lon="3.32484">
        <ele>227</ele>
        <time>2016-07-20T16:10:18Z</time>
      </trkpt>
      <trkpt lat="43.56241" lon="3.32495">
        <ele>227.4</ele>
        <time>2016-07-20T16:10:20Z</time>
      </trkpt>
      <trkpt lat="43.56236" lon="3.32504">
        <ele>230.1</ele>
        <time>2016-07-20T16:10:23Z</time>
      </trkpt>
      <trkpt lat="43.5623" lon="3.32515">
        <ele>230.7</ele>
        <time>2016-07-20T16:10:26Z</time>
      </trkpt>
      <trkpt lat="43.56226" lon="3.32522">
        <ele>231.2</ele>
        <time>2016-07-20T16:10:29Z</time>
      </trkpt>
      <trkpt lat="43.56219" lon="3.32532">
        <ele>231.7</ele>
        <time>2016-07-20T16:10:32Z</time>
      </trkpt>
      <trkpt lat="43.56212" lon="3.32526">
        <ele>233.4</ele>
        <time>2016-07-20T16:10:38Z</time>
      </trkpt>
      <trkpt lat="43.56215" lon="3.32516">
        <ele>234.3</ele>
        <time>2016-07-20T16:10:41Z</time>
      </trkpt>
      <trkpt lat="43.56218" lon="3.32506">
        <ele>234.9</ele>
        <time>2016-07-20T16:10:44Z</time>
      </trkpt>
      <trkpt lat="43.5622" lon="3.32495">
        <ele>235.4</ele>
        <time>2016-07-20T16:10:47Z</time>
      </trkpt>
      <trkpt lat="43.56222" lon="3.32484">
        <ele>236.5</ele>
        <time>2016-07-20T16:10:51Z</time>
      </trkpt>
      <trkpt lat="43.56223" lon="3.32473">
        <ele>237.3</ele>
        <time>2016-07-20T16:10:55Z</time>
      </trkpt>
      <trkpt lat="43.56222" lon="3.32461">
        <ele>238.3</ele>
        <time>2016-07-20T16:10:59Z</time>
      </trkpt>
      <trkpt lat="43.56221" lon="3.32449">
        <ele>239.4</ele>
        <time>2016-07-20T16:11:03Z</time>
      </trkpt>
      <trkpt lat="43.5622" lon="3.32438">
        <ele>240.1</ele>
        <time>2016-07-20T16:11:06Z</time>
      </trkpt>
      <trkpt lat="43.56219" lon="3.32428">
        <ele>240.8</ele>
        <time>2016-07-20T16:11:09Z</time>
      </trkpt>
      <trkpt lat="43.56219" lon="3.32414">
        <ele>241.8</ele>
        <time>2016-07-20T16:11:13Z</time>
      </trkpt>
      <trkpt lat="43.5622" lon="3.32404">
        <ele>242.4</ele>
        <time>2016-07-20T16:11:16Z</time>
      </trkpt>
      <trkpt lat="43.56216" lon="3.32392">
        <ele>243.1</ele>
        <time>2016-07-20T16:11:20Z</time>
      </trkpt>
      <trkpt lat="43.56212" lon="3.32383">
        <ele>243.8</ele>
        <time>2016-07-20T16:11:24Z</time>
      </trkpt>
      <trkpt lat="43.56212" lon="3.32391">
        <ele>244.9</ele>
        <time>2016-07-20T16:11:31Z</time>
      </trkpt>
      <trkpt lat="43.5621" lon="3.32403">
        <ele>245.5</ele>
        <time>2016-07-20T16:11:35Z</time>
      </trkpt>
      <trkpt lat="43.56208" lon="3.32413">
        <ele>246.1</ele>
        <time>2016-07-20T16:11:39Z</time>
      </trkpt>
      <trkpt lat="43.56204" lon="3.32423">
        <ele>246.3</ele>
        <time>2016-07-20T16:11:42Z</time>
      </trkpt>
      <trkpt lat="43.56201" lon="3.32433">
        <ele>246.6</ele>
        <time>2016-07-20T16:11:45Z</time>
      </trkpt>
      <trkpt lat="43.56198" lon="3.32444">
        <ele>247.3</ele>
        <time>2016-07-20T16:11:49Z</time>
      </trkpt>
      <trkpt lat="43.56195" lon="3.32454">
        <ele>247.8</ele>
        <time>2016-07-20T16:11:53Z</time>
      </trkpt>
      <trkpt lat="43.56192" lon="3.32465">
        <ele>248</ele>
        <time>2016-07-20T16:11:56Z</time>
      </trkpt>
      <trkpt lat="43.56189" lon="3.32474">
        <ele>248.4</ele>
        <time>2016-07-20T16:11:59Z</time>
      </trkpt>
      <trkpt lat="43.56184" lon="3.32486">
        <ele>249</ele>
        <time>2016-07-20T16:12:03Z</time>
      </trkpt>
      <trkpt lat="43.56179" lon="3.32495">
        <ele>249.5</ele>
        <time>2016-07-20T16:12:06Z</time>
      </trkpt>
      <trkpt lat="43.56175" lon="3.32505">
        <ele>250.2</ele>
        <time>2016-07-20T16:12:10Z</time>
      </trkpt>
      <trkpt lat="43.5617" lon="3.32513">
        <ele>251.1</ele>
        <time>2016-07-20T16:12:14Z</time>
      </trkpt>
      <trkpt lat="43.56165" lon="3.32522">
        <ele>251.7</ele>
        <time>2016-07-20T16:12:17Z</time>
      </trkpt>
      <trkpt lat="43.56159" lon="3.3253">
        <ele>252.3</ele>
        <time>2016-07-20T16:12:20Z</time>
      </trkpt>
      <trkpt lat="43.56154" lon="3.32538">
        <ele>252.9</ele>
        <time>2016-07-20T16:12:23Z</time>
      </trkpt>
      <trkpt lat="43.56149" lon="3.32549">
        <ele>253.6</ele>
        <time>2016-07-20T16:12:27Z</time>
      </trkpt>
      <trkpt lat="43.56143" lon="3.32558">
        <ele>254</ele>
        <time>2016-07-20T16:12:30Z</time>
      </trkpt>
      <trkpt lat="43.56137" lon="3.32567">
        <ele>254.5</ele>
        <time>2016-07-20T16:12:33Z</time>
      </trkpt>
      <trkpt lat="43.56131" lon="3.32575">
        <ele>255</ele>
        <time>2016-07-20T16:12:36Z</time>
      </trkpt>
      <trkpt lat="43.56125" lon="3.32583">
        <ele>255.5</ele>
        <time>2016-07-20T16:12:39Z</time>
      </trkpt>
      <trkpt lat="43.56118" lon="3.3259">
        <ele>255.9</ele>
        <time>2016-07-20T16:12:42Z</time>
      </trkpt>
      <trkpt lat="43.56111" lon="3.32597">
        <ele>256.5</ele>
        <time>2016-07-20T16:12:46Z</time>
      </trkpt>
      <trkpt lat="43.56103" lon="3.32602">
        <ele>257</ele>
        <time>2016-07-20T16:12:49Z</time>
      </trkpt>
      <trkpt lat="43.56095" lon="3.32607">
        <ele>257.8</ele>
        <time>2016-07-20T16:12:52Z</time>
      </trkpt>
      <trkpt lat="43.56088" lon="3.32611">
        <ele>258.5</ele>
        <time>2016-07-20T16:12:55Z</time>
      </trkpt>
      <trkpt lat="43.56081" lon="3.32615">
        <ele>259.2</ele>
        <time>2016-07-20T16:12:58Z</time>
      </trkpt>
      <trkpt lat="43.56073" lon="3.32619">
        <ele>260.3</ele>
        <time>2016-07-20T16:13:02Z</time>
      </trkpt>
      <trkpt lat="43.56065" lon="3.32623">
        <ele>261.4</ele>
        <time>2016-07-20T16:13:06Z</time>
      </trkpt>
      <trkpt lat="43.56057" lon="3.32626">
        <ele>262.1</ele>
        <time>2016-07-20T16:13:09Z</time>
      </trkpt>
      <trkpt lat="43.56051" lon="3.32631">
        <ele>262.5</ele>
        <time>2016-07-20T16:13:12Z</time>
      </trkpt>
      <trkpt lat="43.56044" lon="3.3264">
        <ele>263.5</ele>
        <time>2016-07-20T16:13:16Z</time>
      </trkpt>
      <trkpt lat="43.56043" lon="3.32653">
        <ele>264.6</ele>
        <time>2016-07-20T16:13:20Z</time>
      </trkpt>
      <trkpt lat="43.56042" lon="3.32664">
        <ele>265.2</ele>
        <time>2016-07-20T16:13:23Z</time>
      </trkpt>
      <trkpt lat="43.56041" lon="3.32676">
        <ele>265.7</ele>
        <time>2016-07-20T16:13:26Z</time>
      </trkpt>
      <trkpt lat="43.56038" lon="3.32689">
        <ele>266.4</ele>
        <time>2016-07-20T16:13:29Z</time>
      </trkpt>
      <trkpt lat="43.56035" lon="3.32697">
        <ele>266.7</ele>
        <time>2016-07-20T16:13:31Z</time>
      </trkpt>
      <trkpt lat="43.5603" lon="3.3271">
        <ele>267.3</ele>
        <time>2016-07-20T16:13:35Z</time>
      </trkpt>
      <trkpt lat="43.56025" lon="3.3272">
        <ele>268.7</ele>
        <time>2016-07-20T16:13:38Z</time>
      </trkpt>
      <trkpt lat="43.56029" lon="3.3273">
        <ele>270.1</ele>
        <time>2016-07-20T16:13:43Z</time>
      </trkpt>
      <trkpt lat="43.56035" lon="3.3274">
        <ele>271</ele>
        <time>2016-07-20T16:13:46Z</time>
      </trkpt>
      <trkpt lat="43.5604" lon="3.32751">
        <ele>271.6</ele>
        <time>2016-07-20T16:13:49Z</time>
      </trkpt>
      <trkpt lat="43.56044" lon="3.32763">
        <ele>272.2</ele>
        <time>2016-07-20T16:13:52Z</time>
      </trkpt>
      <trkpt lat="43.56044" lon="3.32778">
        <ele>272.9</ele>
        <time>2016-07-20T16:13:55Z</time>
      </trkpt>
      <trkpt lat="43.56045" lon="3.32791">
        <ele>273.6</ele>
        <time>2016-07-20T16:13:58Z</time>
      </trkpt>
      <trkpt lat="43.56044" lon="3.32805">
        <ele>274</ele>
        <time>2016-07-20T16:14:01Z</time>
      </trkpt>
      <trkpt lat="43.56042" lon="3.32817">
        <ele>274.4</ele>
        <time>2016-07-20T16:14:04Z</time>
      </trkpt>
      <trkpt lat="43.5604" lon="3.32827">
        <ele>274.8</ele>
        <time>2016-07-20T16:14:07Z</time>
      </trkpt>
      <trkpt lat="43.56037" lon="3.32839">
        <ele>275.3</ele>
        <time>2016-07-20T16:14:10Z</time>
      </trkpt>
      <trkpt lat="43.56033" lon="3.3285">
        <ele>275.9</ele>
        <time>2016-07-20T16:14:13Z</time>
      </trkpt>
      <trkpt lat="43.56029" lon="3.32863">
        <ele>276.3</ele>
        <time>2016-07-20T16:14:16Z</time>
      </trkpt>
      <trkpt lat="43.56025" lon="3.32873">
        <ele>276.7</ele>
        <time>2016-07-20T16:14:19Z</time>
      </trkpt>
      <trkpt lat="43.5602" lon="3.32883">
        <ele>277.1</ele>
        <time>2016-07-20T16:14:22Z</time>
      </trkpt>
      <trkpt lat="43.56014" lon="3.32892">
        <ele>277.5</ele>
        <time>2016-07-20T16:14:26Z</time>
      </trkpt>
      <trkpt lat="43.56009" lon="3.32899">
        <ele>277.8</ele>
        <time>2016-07-20T16:14:28Z</time>
      </trkpt>
      <trkpt lat="43.56001" lon="3.32907">
        <ele>278.4</ele>
        <time>2016-07-20T16:14:31Z</time>
      </trkpt>
      <trkpt lat="43.55995" lon="3.32911">
        <ele>278.9</ele>
        <time>2016-07-20T16:14:34Z</time>
      </trkpt>
      <trkpt lat="43.55987" lon="3.32913">
        <ele>280</ele>
        <time>2016-07-20T16:14:41Z</time>
      </trkpt>
      <trkpt lat="43.5598" lon="3.32913">
        <ele>280.6</ele>
        <time>2016-07-20T16:14:44Z</time>
      </trkpt>
      <trkpt lat="43.55982" lon="3.32913">
        <ele>281.5</ele>
        <time>2016-07-20T16:14:51Z</time>
      </trkpt>
      <trkpt lat="43.55989" lon="3.32908">
        <ele>281.8</ele>
        <time>2016-07-20T16:14:55Z</time>
      </trkpt>
      <trkpt lat="43.55992" lon="3.32903">
        <ele>282.2</ele>
        <time>2016-07-20T16:15:02Z</time>
      </trkpt>
      <trkpt lat="43.55996" lon="3.32903">
        <ele>281.8</ele>
        <time>2016-07-20T16:15:26Z</time>
      </trkpt>
      <trkpt lat="43.55999" lon="3.32908">
        <ele>282.1</ele>
        <time>2016-07-20T16:15:33Z</time>
      </trkpt>
      <trkpt lat="43.55992" lon="3.32912">
        <ele>282.1</ele>
        <time>2016-07-20T16:15:38Z</time>
      </trkpt>
      <trkpt lat="43.55985" lon="3.32915">
        <ele>282.2</ele>
        <time>2016-07-20T16:15:43Z</time>
      </trkpt>
      <trkpt lat="43.55979" lon="3.32919">
        <ele>282.4</ele>
        <time>2016-07-20T16:15:47Z</time>
      </trkpt>
      <trkpt lat="43.5597" lon="3.32923">
        <ele>282.8</ele>
        <time>2016-07-20T16:15:53Z</time>
      </trkpt>
      <trkpt lat="43.55963" lon="3.32928">
        <ele>283.1</ele>
        <time>2016-07-20T16:15:56Z</time>
      </trkpt>
      <trkpt lat="43.55956" lon="3.32933">
        <ele>283.4</ele>
        <time>2016-07-20T16:15:59Z</time>
      </trkpt>
      <trkpt lat="43.55949" lon="3.32938">
        <ele>283.6</ele>
        <time>2016-07-20T16:16:01Z</time>
      </trkpt>
      <trkpt lat="43.55944" lon="3.32948">
        <ele>283.9</ele>
        <time>2016-07-20T16:16:04Z</time>
      </trkpt>
      <trkpt lat="43.55938" lon="3.32959">
        <ele>284.3</ele>
        <time>2016-07-20T16:16:07Z</time>
      </trkpt>
      <trkpt lat="43.55934" lon="3.32969">
        <ele>284.3</ele>
        <time>2016-07-20T16:16:10Z</time>
      </trkpt>
      <trkpt lat="43.55939" lon="3.32978">
        <ele>285.3</ele>
        <time>2016-07-20T16:16:12Z</time>
      </trkpt>
      <trkpt lat="43.5593" lon="3.32986">
        <ele>286.2</ele>
        <time>2016-07-20T16:16:14Z</time>
      </trkpt>
      <trkpt lat="43.55921" lon="3.32994">
        <ele>286.3</ele>
        <time>2016-07-20T16:16:16Z</time>
      </trkpt>
      <trkpt lat="43.55917" lon="3.33002">
        <ele>286.5</ele>
        <time>2016-07-20T16:16:19Z</time>
      </trkpt>
      <trkpt lat="43.55914" lon="3.33012">
        <ele>286.7</ele>
        <time>2016-07-20T16:16:22Z</time>
      </trkpt>
      <trkpt lat="43.55911" lon="3.33022">
        <ele>286.9</ele>
        <time>2016-07-20T16:16:25Z</time>
      </trkpt>
      <trkpt lat="43.55907" lon="3.33031">
        <ele>286.9</ele>
        <time>2016-07-20T16:16:27Z</time>
      </trkpt>
      <trkpt lat="43.55903" lon="3.3304">
        <ele>287</ele>
        <time>2016-07-20T16:16:29Z</time>
      </trkpt>
      <trkpt lat="43.55897" lon="3.3305">
        <ele>288</ele>
        <time>2016-07-20T16:16:31Z</time>
      </trkpt>
      <trkpt lat="43.5589" lon="3.33062">
        <ele>288.8</ele>
        <time>2016-07-20T16:16:34Z</time>
      </trkpt>
      <trkpt lat="43.55883" lon="3.33069">
        <ele>288.8</ele>
        <time>2016-07-20T16:16:36Z</time>
      </trkpt>
      <trkpt lat="43.55876" lon="3.33079">
        <ele>289</ele>
        <time>2016-07-20T16:16:38Z</time>
      </trkpt>
      <trkpt lat="43.55869" lon="3.33088">
        <ele>289.7</ele>
        <time>2016-07-20T16:16:40Z</time>
      </trkpt>
      <trkpt lat="43.55863" lon="3.33097">
        <ele>289.8</ele>
        <time>2016-07-20T16:16:42Z</time>
      </trkpt>
      <trkpt lat="43.55858" lon="3.33106">
        <ele>289.9</ele>
        <time>2016-07-20T16:16:44Z</time>
      </trkpt>
      <trkpt lat="43.55854" lon="3.33118">
        <ele>289.9</ele>
        <time>2016-07-20T16:16:47Z</time>
      </trkpt>
      <trkpt lat="43.5585" lon="3.3313">
        <ele>290</ele>
        <time>2016-07-20T16:16:50Z</time>
      </trkpt>
      <trkpt lat="43.55846" lon="3.33139">
        <ele>290.2</ele>
        <time>2016-07-20T16:16:52Z</time>
      </trkpt>
      <trkpt lat="43.55841" lon="3.33148">
        <ele>290.5</ele>
        <time>2016-07-20T16:16:54Z</time>
      </trkpt>
      <trkpt lat="43.55835" lon="3.33158">
        <ele>290.7</ele>
        <time>2016-07-20T16:16:57Z</time>
      </trkpt>
      <trkpt lat="43.55828" lon="3.33167">
        <ele>290.9</ele>
        <time>2016-07-20T16:17:00Z</time>
      </trkpt>
      <trkpt lat="43.55822" lon="3.33177">
        <ele>291.2</ele>
        <time>2016-07-20T16:17:03Z</time>
      </trkpt>
      <trkpt lat="43.55816" lon="3.3319">
        <ele>291.4</ele>
        <time>2016-07-20T16:17:06Z</time>
      </trkpt>
      <trkpt lat="43.5581" lon="3.33201">
        <ele>291.8</ele>
        <time>2016-07-20T16:17:09Z</time>
      </trkpt>
      <trkpt lat="43.55807" lon="3.33212">
        <ele>292.2</ele>
        <time>2016-07-20T16:17:12Z</time>
      </trkpt>
      <trkpt lat="43.55804" lon="3.33222">
        <ele>292.4</ele>
        <time>2016-07-20T16:17:15Z</time>
      </trkpt>
      <trkpt lat="43.55801" lon="3.33234">
        <ele>292.7</ele>
        <time>2016-07-20T16:17:18Z</time>
      </trkpt>
      <trkpt lat="43.55797" lon="3.33246">
        <ele>292.9</ele>
        <time>2016-07-20T16:17:21Z</time>
      </trkpt>
      <trkpt lat="43.55792" lon="3.33258">
        <ele>293.7</ele>
        <time>2016-07-20T16:17:23Z</time>
      </trkpt>
      <trkpt lat="43.55787" lon="3.33269">
        <ele>293.7</ele>
        <time>2016-07-20T16:17:26Z</time>
      </trkpt>
      <trkpt lat="43.55784" lon="3.3328">
        <ele>293.9</ele>
        <time>2016-07-20T16:17:29Z</time>
      </trkpt>
      <trkpt lat="43.55781" lon="3.33292">
        <ele>294.1</ele>
        <time>2016-07-20T16:17:33Z</time>
      </trkpt>
      <trkpt lat="43.55778" lon="3.33302">
        <ele>294.1</ele>
        <time>2016-07-20T16:17:36Z</time>
      </trkpt>
      <trkpt lat="43.55774" lon="3.33314">
        <ele>294.3</ele>
        <time>2016-07-20T16:17:39Z</time>
      </trkpt>
      <trkpt lat="43.5577" lon="3.33324">
        <ele>294.6</ele>
        <time>2016-07-20T16:17:42Z</time>
      </trkpt>
      <trkpt lat="43.55765" lon="3.33336">
        <ele>294.9</ele>
        <time>2016-07-20T16:17:45Z</time>
      </trkpt>
      <trkpt lat="43.55761" lon="3.33347">
        <ele>295.3</ele>
        <time>2016-07-20T16:17:48Z</time>
      </trkpt>
      <trkpt lat="43.55756" lon="3.33357">
        <ele>295.7</ele>
        <time>2016-07-20T16:17:51Z</time>
      </trkpt>
      <trkpt lat="43.55752" lon="3.33366">
        <ele>296.3</ele>
        <time>2016-07-20T16:17:54Z</time>
      </trkpt>
      <trkpt lat="43.55747" lon="3.33376">
        <ele>296.7</ele>
        <time>2016-07-20T16:17:57Z</time>
      </trkpt>
      <trkpt lat="43.55741" lon="3.33387">
        <ele>297.3</ele>
        <time>2016-07-20T16:18:00Z</time>
      </trkpt>
      <trkpt lat="43.55737" lon="3.33396">
        <ele>297.9</ele>
        <time>2016-07-20T16:18:03Z</time>
      </trkpt>
      <trkpt lat="43.55731" lon="3.33404">
        <ele>298.4</ele>
        <time>2016-07-20T16:18:06Z</time>
      </trkpt>
      <trkpt lat="43.55726" lon="3.33411">
        <ele>298.8</ele>
        <time>2016-07-20T16:18:09Z</time>
      </trkpt>
      <trkpt lat="43.5572" lon="3.33421">
        <ele>299.3</ele>
        <time>2016-07-20T16:18:13Z</time>
      </trkpt>
      <trkpt lat="43.55715" lon="3.3343">
        <ele>299.8</ele>
        <time>2016-07-20T16:18:17Z</time>
      </trkpt>
      <trkpt lat="43.55712" lon="3.3344">
        <ele>300.1</ele>
        <time>2016-07-20T16:18:20Z</time>
      </trkpt>
      <trkpt lat="43.55707" lon="3.33449">
        <ele>300.3</ele>
        <time>2016-07-20T16:18:22Z</time>
      </trkpt>
      <trkpt lat="43.55701" lon="3.3346">
        <ele>300.5</ele>
        <time>2016-07-20T16:18:25Z</time>
      </trkpt>
      <trkpt lat="43.55696" lon="3.33471">
        <ele>300.7</ele>
        <time>2016-07-20T16:18:28Z</time>
      </trkpt>
      <trkpt lat="43.55694" lon="3.33481">
        <ele>301</ele>
        <time>2016-07-20T16:18:31Z</time>
      </trkpt>
      <trkpt lat="43.55692" lon="3.33493">
        <ele>301.5</ele>
        <time>2016-07-20T16:18:35Z</time>
      </trkpt>
      <trkpt lat="43.55691" lon="3.33504">
        <ele>301.6</ele>
        <time>2016-07-20T16:18:38Z</time>
      </trkpt>
      <trkpt lat="43.55688" lon="3.33515">
        <ele>301.9</ele>
        <time>2016-07-20T16:18:41Z</time>
      </trkpt>
      <trkpt lat="43.55686" lon="3.33527">
        <ele>302.4</ele>
        <time>2016-07-20T16:18:44Z</time>
      </trkpt>
      <trkpt lat="43.55686" lon="3.33539">
        <ele>302.9</ele>
        <time>2016-07-20T16:18:47Z</time>
      </trkpt>
      <trkpt lat="43.55684" lon="3.3355">
        <ele>303.3</ele>
        <time>2016-07-20T16:18:50Z</time>
      </trkpt>
      <trkpt lat="43.55683" lon="3.33562">
        <ele>303.8</ele>
        <time>2016-07-20T16:18:53Z</time>
      </trkpt>
      <trkpt lat="43.55682" lon="3.33574">
        <ele>304.5</ele>
        <time>2016-07-20T16:18:56Z</time>
      </trkpt>
      <trkpt lat="43.5568" lon="3.33587">
        <ele>305.3</ele>
        <time>2016-07-20T16:19:00Z</time>
      </trkpt>
      <trkpt lat="43.55678" lon="3.33596">
        <ele>305.6</ele>
        <time>2016-07-20T16:19:03Z</time>
      </trkpt>
      <trkpt lat="43.55675" lon="3.33607">
        <ele>306.1</ele>
        <time>2016-07-20T16:19:06Z</time>
      </trkpt>
      <trkpt lat="43.55672" lon="3.33618">
        <ele>306.8</ele>
        <time>2016-07-20T16:19:09Z</time>
      </trkpt>
      <trkpt lat="43.55669" lon="3.33628">
        <ele>307.5</ele>
        <time>2016-07-20T16:19:12Z</time>
      </trkpt>
      <trkpt lat="43.55668" lon="3.33639">
        <ele>307.9</ele>
        <time>2016-07-20T16:19:15Z</time>
      </trkpt>
      <trkpt lat="43.55666" lon="3.3365">
        <ele>308.2</ele>
        <time>2016-07-20T16:19:19Z</time>
      </trkpt>
      <trkpt lat="43.55663" lon="3.33662">
        <ele>308.5</ele>
        <time>2016-07-20T16:19:22Z</time>
      </trkpt>
      <trkpt lat="43.55661" lon="3.33674">
        <ele>308.8</ele>
        <time>2016-07-20T16:19:25Z</time>
      </trkpt>
      <trkpt lat="43.55659" lon="3.33685">
        <ele>309.1</ele>
        <time>2016-07-20T16:19:28Z</time>
      </trkpt>
      <trkpt lat="43.55658" lon="3.33696">
        <ele>309.4</ele>
        <time>2016-07-20T16:19:31Z</time>
      </trkpt>
      <trkpt lat="43.55657" lon="3.33706">
        <ele>309.7</ele>
        <time>2016-07-20T16:19:34Z</time>
      </trkpt>
      <trkpt lat="43.55657" lon="3.33717">
        <ele>310.1</ele>
        <time>2016-07-20T16:19:37Z</time>
      </trkpt>
      <trkpt lat="43.55656" lon="3.33727">
        <ele>310.3</ele>
        <time>2016-07-20T16:19:40Z</time>
      </trkpt>
      <trkpt lat="43.55654" lon="3.33739">
        <ele>310.7</ele>
        <time>2016-07-20T16:19:43Z</time>
      </trkpt>
      <trkpt lat="43.55653" lon="3.33749">
        <ele>311.5</ele>
        <time>2016-07-20T16:19:47Z</time>
      </trkpt>
      <trkpt lat="43.55652" lon="3.33762">
        <ele>311.9</ele>
        <time>2016-07-20T16:19:50Z</time>
      </trkpt>
      <trkpt lat="43.55651" lon="3.33772">
        <ele>312.2</ele>
        <time>2016-07-20T16:19:53Z</time>
      </trkpt>
      <trkpt lat="43.55648" lon="3.33783">
        <ele>312.6</ele>
        <time>2016-07-20T16:19:57Z</time>
      </trkpt>
      <trkpt lat="43.55645" lon="3.33793">
        <ele>313</ele>
        <time>2016-07-20T16:20:00Z</time>
      </trkpt>
      <trkpt lat="43.55642" lon="3.33802">
        <ele>313.5</ele>
        <time>2016-07-20T16:20:03Z</time>
      </trkpt>
      <trkpt lat="43.55638" lon="3.33815">
        <ele>314.1</ele>
        <time>2016-07-20T16:20:07Z</time>
      </trkpt>
      <trkpt lat="43.55634" lon="3.33826">
        <ele>314.7</ele>
        <time>2016-07-20T16:20:10Z</time>
      </trkpt>
      <trkpt lat="43.5563" lon="3.33837">
        <ele>315.3</ele>
        <time>2016-07-20T16:20:14Z</time>
      </trkpt>
      <trkpt lat="43.55628" lon="3.33847">
        <ele>315.8</ele>
        <time>2016-07-20T16:20:17Z</time>
      </trkpt>
      <trkpt lat="43.55627" lon="3.33859">
        <ele>316.5</ele>
        <time>2016-07-20T16:20:21Z</time>
      </trkpt>
      <trkpt lat="43.55626" lon="3.33871">
        <ele>317.2</ele>
        <time>2016-07-20T16:20:25Z</time>
      </trkpt>
      <trkpt lat="43.55626" lon="3.33884">
        <ele>317.8</ele>
        <time>2016-07-20T16:20:29Z</time>
      </trkpt>
      <trkpt lat="43.55625" lon="3.33897">
        <ele>318.6</ele>
        <time>2016-07-20T16:20:32Z</time>
      </trkpt>
      <trkpt lat="43.55624" lon="3.33908">
        <ele>319.2</ele>
        <time>2016-07-20T16:20:35Z</time>
      </trkpt>
      <trkpt lat="43.55623" lon="3.33918">
        <ele>319.7</ele>
        <time>2016-07-20T16:20:38Z</time>
      </trkpt>
      <trkpt lat="43.55623" lon="3.33928">
        <ele>320.2</ele>
        <time>2016-07-20T16:20:41Z</time>
      </trkpt>
      <trkpt lat="43.55623" lon="3.33939">
        <ele>320.7</ele>
        <time>2016-07-20T16:20:44Z</time>
      </trkpt>
      <trkpt lat="43.55624" lon="3.33952">
        <ele>321.6</ele>
        <time>2016-07-20T16:20:48Z</time>
      </trkpt>
      <trkpt lat="43.55623" lon="3.33964">
        <ele>322.1</ele>
        <time>2016-07-20T16:20:51Z</time>
      </trkpt>
      <trkpt lat="43.55622" lon="3.33974">
        <ele>322.7</ele>
        <time>2016-07-20T16:20:54Z</time>
      </trkpt>
      <trkpt lat="43.55622" lon="3.33986">
        <ele>323.3</ele>
        <time>2016-07-20T16:20:57Z</time>
      </trkpt>
      <trkpt lat="43.55621" lon="3.33997">
        <ele>323.8</ele>
        <time>2016-07-20T16:21:00Z</time>
      </trkpt>
      <trkpt lat="43.55619" lon="3.3401">
        <ele>324.5</ele>
        <time>2016-07-20T16:21:04Z</time>
      </trkpt>
      <trkpt lat="43.55617" lon="3.34022">
        <ele>325.1</ele>
        <time>2016-07-20T16:21:07Z</time>
      </trkpt>
      <trkpt lat="43.55617" lon="3.34032">
        <ele>325.6</ele>
        <time>2016-07-20T16:21:10Z</time>
      </trkpt>
      <trkpt lat="43.55616" lon="3.34042">
        <ele>326.4</ele>
        <time>2016-07-20T16:21:14Z</time>
      </trkpt>
      <trkpt lat="43.55616" lon="3.34054">
        <ele>327.2</ele>
        <time>2016-07-20T16:21:18Z</time>
      </trkpt>
      <trkpt lat="43.55619" lon="3.34065">
        <ele>328.5</ele>
        <time>2016-07-20T16:21:23Z</time>
      </trkpt>
      <trkpt lat="43.55622" lon="3.34076">
        <ele>329.6</ele>
        <time>2016-07-20T16:21:27Z</time>
      </trkpt>
      <trkpt lat="43.55626" lon="3.34086">
        <ele>330.9</ele>
        <time>2016-07-20T16:21:31Z</time>
      </trkpt>
      <trkpt lat="43.55632" lon="3.34095">
        <ele>332.1</ele>
        <time>2016-07-20T16:21:35Z</time>
      </trkpt>
      <trkpt lat="43.55637" lon="3.34104">
        <ele>333.1</ele>
        <time>2016-07-20T16:21:39Z</time>
      </trkpt>
      <trkpt lat="43.55642" lon="3.34114">
        <ele>334.5</ele>
        <time>2016-07-20T16:21:43Z</time>
      </trkpt>
      <trkpt lat="43.55646" lon="3.34122">
        <ele>336</ele>
        <time>2016-07-20T16:21:48Z</time>
      </trkpt>
      <trkpt lat="43.55649" lon="3.34133">
        <ele>336.7</ele>
        <time>2016-07-20T16:21:51Z</time>
      </trkpt>
      <trkpt lat="43.55652" lon="3.34143">
        <ele>337.1</ele>
        <time>2016-07-20T16:21:53Z</time>
      </trkpt>
      <trkpt lat="43.55655" lon="3.34152">
        <ele>337.5</ele>
        <time>2016-07-20T16:21:55Z</time>
      </trkpt>
      <trkpt lat="43.55654" lon="3.34164">
        <ele>338.1</ele>
        <time>2016-07-20T16:21:59Z</time>
      </trkpt>
      <trkpt lat="43.5565" lon="3.34173">
        <ele>338.8</ele>
        <time>2016-07-20T16:22:03Z</time>
      </trkpt>
      <trkpt lat="43.55644" lon="3.34181">
        <ele>339.3</ele>
        <time>2016-07-20T16:22:07Z</time>
      </trkpt>
      <trkpt lat="43.55638" lon="3.34187">
        <ele>339.5</ele>
        <time>2016-07-20T16:22:10Z</time>
      </trkpt>
      <trkpt lat="43.55631" lon="3.34196">
        <ele>340.1</ele>
        <time>2016-07-20T16:22:15Z</time>
      </trkpt>
      <trkpt lat="43.55627" lon="3.34204">
        <ele>340.6</ele>
        <time>2016-07-20T16:22:19Z</time>
      </trkpt>
      <trkpt lat="43.5562" lon="3.34213">
        <ele>341.2</ele>
        <time>2016-07-20T16:22:23Z</time>
      </trkpt>
      <trkpt lat="43.55615" lon="3.34221">
        <ele>341.5</ele>
        <time>2016-07-20T16:22:26Z</time>
      </trkpt>
      <trkpt lat="43.5561" lon="3.34228">
        <ele>342.1</ele>
        <time>2016-07-20T16:22:30Z</time>
      </trkpt>
      <trkpt lat="43.55605" lon="3.34237">
        <ele>342.4</ele>
        <time>2016-07-20T16:22:34Z</time>
      </trkpt>
      <trkpt lat="43.55601" lon="3.34246">
        <ele>342.8</ele>
        <time>2016-07-20T16:22:38Z</time>
      </trkpt>
      <trkpt lat="43.55594" lon="3.34255">
        <ele>343.2</ele>
        <time>2016-07-20T16:22:42Z</time>
      </trkpt>
      <trkpt lat="43.55588" lon="3.34263">
        <ele>343.9</ele>
        <time>2016-07-20T16:22:46Z</time>
      </trkpt>
      <trkpt lat="43.55583" lon="3.34271">
        <ele>344.5</ele>
        <time>2016-07-20T16:22:50Z</time>
      </trkpt>
      <trkpt lat="43.55578" lon="3.3428">
        <ele>345.3</ele>
        <time>2016-07-20T16:22:54Z</time>
      </trkpt>
      <trkpt lat="43.55571" lon="3.34289">
        <ele>346.4</ele>
        <time>2016-07-20T16:22:59Z</time>
      </trkpt>
      <trkpt lat="43.55565" lon="3.34298">
        <ele>347.2</ele>
        <time>2016-07-20T16:23:03Z</time>
      </trkpt>
      <trkpt lat="43.55561" lon="3.34306">
        <ele>348</ele>
        <time>2016-07-20T16:23:07Z</time>
      </trkpt>
      <trkpt lat="43.55554" lon="3.34315">
        <ele>349</ele>
        <time>2016-07-20T16:23:11Z</time>
      </trkpt>
      <trkpt lat="43.55549" lon="3.34324">
        <ele>349.9</ele>
        <time>2016-07-20T16:23:14Z</time>
      </trkpt>
      <trkpt lat="43.55543" lon="3.34333">
        <ele>351.1</ele>
        <time>2016-07-20T16:23:18Z</time>
      </trkpt>
      <trkpt lat="43.55538" lon="3.34341">
        <ele>351.8</ele>
        <time>2016-07-20T16:23:21Z</time>
      </trkpt>
      <trkpt lat="43.55533" lon="3.34349">
        <ele>352.6</ele>
        <time>2016-07-20T16:23:25Z</time>
      </trkpt>
      <trkpt lat="43.55528" lon="3.34357">
        <ele>353.1</ele>
        <time>2016-07-20T16:23:28Z</time>
      </trkpt>
      <trkpt lat="43.55524" lon="3.34366">
        <ele>353.6</ele>
        <time>2016-07-20T16:23:31Z</time>
      </trkpt>
      <trkpt lat="43.5552" lon="3.34375">
        <ele>354.1</ele>
        <time>2016-07-20T16:23:34Z</time>
      </trkpt>
      <trkpt lat="43.55516" lon="3.34383">
        <ele>354.6</ele>
        <time>2016-07-20T16:23:37Z</time>
      </trkpt>
      <trkpt lat="43.55512" lon="3.34392">
        <ele>355.2</ele>
        <time>2016-07-20T16:23:41Z</time>
      </trkpt>
      <trkpt lat="43.55507" lon="3.34401">
        <ele>355.5</ele>
        <time>2016-07-20T16:23:44Z</time>
      </trkpt>
      <trkpt lat="43.55503" lon="3.3441">
        <ele>355.8</ele>
        <time>2016-07-20T16:23:47Z</time>
      </trkpt>
      <trkpt lat="43.55499" lon="3.34418">
        <ele>356.3</ele>
        <time>2016-07-20T16:23:51Z</time>
      </trkpt>
      <trkpt lat="43.55493" lon="3.34426">
        <ele>356.9</ele>
        <time>2016-07-20T16:23:55Z</time>
      </trkpt>
      <trkpt lat="43.55489" lon="3.34435">
        <ele>357.3</ele>
        <time>2016-07-20T16:23:58Z</time>
      </trkpt>
      <trkpt lat="43.55485" lon="3.34443">
        <ele>357.7</ele>
        <time>2016-07-20T16:24:01Z</time>
      </trkpt>
      <trkpt lat="43.5548" lon="3.34453">
        <ele>358.2</ele>
        <time>2016-07-20T16:24:05Z</time>
      </trkpt>
      <trkpt lat="43.55477" lon="3.34464">
        <ele>358.7</ele>
        <time>2016-07-20T16:24:08Z</time>
      </trkpt>
      <trkpt lat="43.55474" lon="3.34476">
        <ele>358.9</ele>
        <time>2016-07-20T16:24:11Z</time>
      </trkpt>
      <trkpt lat="43.5547" lon="3.34491">
        <ele>359</ele>
        <time>2016-07-20T16:24:14Z</time>
      </trkpt>
      <trkpt lat="43.55468" lon="3.34503">
        <ele>359.2</ele>
        <time>2016-07-20T16:24:17Z</time>
      </trkpt>
      <trkpt lat="43.55467" lon="3.34515">
        <ele>359.3</ele>
        <time>2016-07-20T16:24:20Z</time>
      </trkpt>
      <trkpt lat="43.55465" lon="3.34528">
        <ele>359.7</ele>
        <time>2016-07-20T16:24:23Z</time>
      </trkpt>
      <trkpt lat="43.55463" lon="3.34537">
        <ele>360</ele>
        <time>2016-07-20T16:24:26Z</time>
      </trkpt>
      <trkpt lat="43.5546" lon="3.34547">
        <ele>360.3</ele>
        <time>2016-07-20T16:24:29Z</time>
      </trkpt>
      <trkpt lat="43.55457" lon="3.34557">
        <ele>360.9</ele>
        <time>2016-07-20T16:24:33Z</time>
      </trkpt>
      <trkpt lat="43.55451" lon="3.34565">
        <ele>361.9</ele>
        <time>2016-07-20T16:24:38Z</time>
      </trkpt>
      <trkpt lat="43.55443" lon="3.34571">
        <ele>362.4</ele>
        <time>2016-07-20T16:24:42Z</time>
      </trkpt>
      <trkpt lat="43.55434" lon="3.34578">
        <ele>364</ele>
        <time>2016-07-20T16:24:45Z</time>
      </trkpt>
      <trkpt lat="43.5543" lon="3.34586">
        <ele>365.9</ele>
        <time>2016-07-20T16:24:47Z</time>
      </trkpt>
      <trkpt lat="43.55425" lon="3.34597">
        <ele>366.1</ele>
        <time>2016-07-20T16:24:50Z</time>
      </trkpt>
      <trkpt lat="43.55424" lon="3.34599">
        <ele>366.6</ele>
        <time>2016-07-20T16:24:57Z</time>
      </trkpt>
      <trkpt lat="43.55423" lon="3.34603">
        <ele>368.2</ele>
        <time>2016-07-20T16:24:27Z</time>
      </trkpt>
      <trkpt lat="43.55419" lon="3.34615">
        <ele>368.4</ele>
        <time>2016-07-20T16:25:35Z</time>
      </trkpt>
      <trkpt lat="43.55416" lon="3.34628">
        <ele>368.5</ele>
        <time>2016-07-20T16:25:38Z</time>
      </trkpt>
      <trkpt lat="43.55412" lon="3.34641">
        <ele>368.3</ele>
        <time>2016-07-20T16:25:40Z</time>
      </trkpt>
      <trkpt lat="43.55407" lon="3.34654">
        <ele>368.8</ele>
        <time>2016-07-20T16:25:42Z</time>
      </trkpt>
      <trkpt lat="43.55401" lon="3.34668">
        <ele>368.6</ele>
        <time>2016-07-20T16:25:44Z</time>
      </trkpt>
      <trkpt lat="43.55392" lon="3.34683">
        <ele>367.8</ele>
        <time>2016-07-20T16:25:46Z</time>
      </trkpt>
      <trkpt lat="43.55384" lon="3.34698">
        <ele>366.7</ele>
        <time>2016-07-20T16:25:48Z</time>
      </trkpt>
      <trkpt lat="43.55379" lon="3.34712">
        <ele>365.7</ele>
        <time>2016-07-20T16:25:50Z</time>
      </trkpt>
      <trkpt lat="43.55378" lon="3.34724">
        <ele>364.9</ele>
        <time>2016-07-20T16:25:52Z</time>
      </trkpt>
      <trkpt lat="43.55374" lon="3.34735">
        <ele>363.8</ele>
        <time>2016-07-20T16:25:54Z</time>
      </trkpt>
      <trkpt lat="43.55369" lon="3.34743">
        <ele>363.1</ele>
        <time>2016-07-20T16:25:56Z</time>
      </trkpt>
      <trkpt lat="43.5536" lon="3.34748">
        <ele>362.9</ele>
        <time>2016-07-20T16:25:58Z</time>
      </trkpt>
      <trkpt lat="43.5535" lon="3.34746">
        <ele>360.4</ele>
        <time>2016-07-20T16:26:00Z</time>
      </trkpt>
      <trkpt lat="43.55343" lon="3.34739">
        <ele>360.2</ele>
        <time>2016-07-20T16:26:02Z</time>
      </trkpt>
      <trkpt lat="43.55339" lon="3.3473">
        <ele>359.7</ele>
        <time>2016-07-20T16:26:06Z</time>
      </trkpt>
      <trkpt lat="43.55335" lon="3.34718">
        <ele>359.2</ele>
        <time>2016-07-20T16:26:09Z</time>
      </trkpt>
      <trkpt lat="43.55331" lon="3.34707">
        <ele>358.8</ele>
        <time>2016-07-20T16:26:11Z</time>
      </trkpt>
      <trkpt lat="43.55328" lon="3.34697">
        <ele>358.5</ele>
        <time>2016-07-20T16:26:13Z</time>
      </trkpt>
      <trkpt lat="43.55325" lon="3.34681">
        <ele>357.1</ele>
        <time>2016-07-20T16:26:16Z</time>
      </trkpt>
      <trkpt lat="43.55319" lon="3.34672">
        <ele>354.9</ele>
        <time>2016-07-20T16:26:19Z</time>
      </trkpt>
      <trkpt lat="43.55311" lon="3.34673">
        <ele>354.5</ele>
        <time>2016-07-20T16:26:22Z</time>
      </trkpt>
      <trkpt lat="43.55304" lon="3.34681">
        <ele>353.9</ele>
        <time>2016-07-20T16:26:25Z</time>
      </trkpt>
      <trkpt lat="43.55294" lon="3.34672">
        <ele>349.5</ele>
        <time>2016-07-20T16:26:27Z</time>
      </trkpt>
      <trkpt lat="43.55284" lon="3.34663">
        <ele>346.7</ele>
        <time>2016-07-20T16:26:29Z</time>
      </trkpt>
      <trkpt lat="43.55274" lon="3.34663">
        <ele>344.2</ele>
        <time>2016-07-20T16:26:31Z</time>
      </trkpt>
      <trkpt lat="43.5527" lon="3.34672">
        <ele>342.7</ele>
        <time>2016-07-20T16:26:33Z</time>
      </trkpt>
      <trkpt lat="43.55266" lon="3.34681">
        <ele>340.4</ele>
        <time>2016-07-20T16:26:35Z</time>
      </trkpt>
      <trkpt lat="43.55265" lon="3.34697">
        <ele>337.9</ele>
        <time>2016-07-20T16:26:38Z</time>
      </trkpt>
      <trkpt lat="43.55259" lon="3.34711">
        <ele>337.5</ele>
        <time>2016-07-20T16:26:40Z</time>
      </trkpt>
      <trkpt lat="43.55251" lon="3.34727">
        <ele>332.8</ele>
        <time>2016-07-20T16:26:42Z</time>
      </trkpt>
      <trkpt lat="43.55244" lon="3.34732">
        <ele>331.6</ele>
        <time>2016-07-20T16:26:43Z</time>
      </trkpt>
      <trkpt lat="43.55237" lon="3.34737">
        <ele>330.7</ele>
        <time>2016-07-20T16:26:44Z</time>
      </trkpt>
      <trkpt lat="43.55224" lon="3.34743">
        <ele>328.9</ele>
        <time>2016-07-20T16:26:46Z</time>
      </trkpt>
      <trkpt lat="43.55212" lon="3.34741">
        <ele>328.1</ele>
        <time>2016-07-20T16:26:48Z</time>
      </trkpt>
      <trkpt lat="43.55202" lon="3.34747">
        <ele>327.2</ele>
        <time>2016-07-20T16:26:50Z</time>
      </trkpt>
      <trkpt lat="43.55192" lon="3.34761">
        <ele>325.9</ele>
        <time>2016-07-20T16:26:52Z</time>
      </trkpt>
      <trkpt lat="43.55186" lon="3.34768">
        <ele>325.7</ele>
        <time>2016-07-20T16:26:53Z</time>
      </trkpt>
      <trkpt lat="43.5518" lon="3.34776">
        <ele>324.7</ele>
        <time>2016-07-20T16:26:54Z</time>
      </trkpt>
      <trkpt lat="43.55173" lon="3.34784">
        <ele>323.1</ele>
        <time>2016-07-20T16:26:55Z</time>
      </trkpt>
      <trkpt lat="43.55167" lon="3.34791">
        <ele>322.2</ele>
        <time>2016-07-20T16:26:56Z</time>
      </trkpt>
      <trkpt lat="43.5516" lon="3.34796">
        <ele>321.5</ele>
        <time>2016-07-20T16:26:57Z</time>
      </trkpt>
      <trkpt lat="43.55153" lon="3.34801">
        <ele>320.6</ele>
        <time>2016-07-20T16:26:58Z</time>
      </trkpt>
      <trkpt lat="43.55147" lon="3.34806">
        <ele>319.8</ele>
        <time>2016-07-20T16:26:59Z</time>
      </trkpt>
      <trkpt lat="43.5514" lon="3.34814">
        <ele>318.6</ele>
        <time>2016-07-20T16:27:00Z</time>
      </trkpt>
      <trkpt lat="43.55133" lon="3.34821">
        <ele>317.7</ele>
        <time>2016-07-20T16:27:01Z</time>
      </trkpt>
      <trkpt lat="43.55125" lon="3.34829">
        <ele>317.3</ele>
        <time>2016-07-20T16:27:02Z</time>
      </trkpt>
      <trkpt lat="43.55116" lon="3.34835">
        <ele>316.9</ele>
        <time>2016-07-20T16:27:03Z</time>
      </trkpt>
      <trkpt lat="43.55108" lon="3.34841">
        <ele>316.2</ele>
        <time>2016-07-20T16:27:04Z</time>
      </trkpt>
      <trkpt lat="43.55101" lon="3.34845">
        <ele>314.9</ele>
        <time>2016-07-20T16:27:05Z</time>
      </trkpt>
      <trkpt lat="43.55094" lon="3.34851">
        <ele>313.3</ele>
        <time>2016-07-20T16:27:06Z</time>
      </trkpt>
      <trkpt lat="43.55084" lon="3.34865">
        <ele>311.1</ele>
        <time>2016-07-20T16:27:08Z</time>
      </trkpt>
      <trkpt lat="43.55072" lon="3.34867">
        <ele>310</ele>
        <time>2016-07-20T16:27:10Z</time>
      </trkpt>
      <trkpt lat="43.55065" lon="3.34867">
        <ele>309.6</ele>
        <time>2016-07-20T16:27:11Z</time>
      </trkpt>
      <trkpt lat="43.55055" lon="3.34863">
        <ele>307.8</ele>
        <time>2016-07-20T16:27:13Z</time>
      </trkpt>
      <trkpt lat="43.55048" lon="3.34854">
        <ele>305.9</ele>
        <time>2016-07-20T16:27:15Z</time>
      </trkpt>
      <trkpt lat="43.5504" lon="3.34845">
        <ele>304.4</ele>
        <time>2016-07-20T16:27:17Z</time>
      </trkpt>
      <trkpt lat="43.55031" lon="3.34839">
        <ele>303.4</ele>
        <time>2016-07-20T16:27:19Z</time>
      </trkpt>
      <trkpt lat="43.55021" lon="3.34845">
        <ele>302.3</ele>
        <time>2016-07-20T16:27:21Z</time>
      </trkpt>
      <trkpt lat="43.55013" lon="3.34855">
        <ele>301.6</ele>
        <time>2016-07-20T16:27:23Z</time>
      </trkpt>
      <trkpt lat="43.55007" lon="3.3487">
        <ele>300.3</ele>
        <time>2016-07-20T16:27:25Z</time>
      </trkpt>
      <trkpt lat="43.55003" lon="3.34879">
        <ele>300.2</ele>
        <time>2016-07-20T16:27:26Z</time>
      </trkpt>
      <trkpt lat="43.54999" lon="3.34888">
        <ele>299.9</ele>
        <time>2016-07-20T16:27:27Z</time>
      </trkpt>
      <trkpt lat="43.54995" lon="3.34896">
        <ele>299.5</ele>
        <time>2016-07-20T16:27:28Z</time>
      </trkpt>
      <trkpt lat="43.54992" lon="3.34905">
        <ele>298.9</ele>
        <time>2016-07-20T16:27:29Z</time>
      </trkpt>
      <trkpt lat="43.54987" lon="3.34913">
        <ele>298.4</ele>
        <time>2016-07-20T16:27:30Z</time>
      </trkpt>
      <trkpt lat="43.54982" lon="3.34922">
        <ele>297.6</ele>
        <time>2016-07-20T16:27:31Z</time>
      </trkpt>
      <trkpt lat="43.54972" lon="3.34938">
        <ele>295.6</ele>
        <time>2016-07-20T16:27:33Z</time>
      </trkpt>
      <trkpt lat="43.54968" lon="3.34946">
        <ele>294.5</ele>
        <time>2016-07-20T16:27:34Z</time>
      </trkpt>
      <trkpt lat="43.54963" lon="3.34955">
        <ele>293.7</ele>
        <time>2016-07-20T16:27:35Z</time>
      </trkpt>
      <trkpt lat="43.54959" lon="3.34966">
        <ele>293</ele>
        <time>2016-07-20T16:27:36Z</time>
      </trkpt>
      <trkpt lat="43.54955" lon="3.34977">
        <ele>292.5</ele>
        <time>2016-07-20T16:27:37Z</time>
      </trkpt>
      <trkpt lat="43.54952" lon="3.34986">
        <ele>291.9</ele>
        <time>2016-07-20T16:27:38Z</time>
      </trkpt>
      <trkpt lat="43.54948" lon="3.34998">
        <ele>291.6</ele>
        <time>2016-07-20T16:27:39Z</time>
      </trkpt>
      <trkpt lat="43.54945" lon="3.35009">
        <ele>290.9</ele>
        <time>2016-07-20T16:27:40Z</time>
      </trkpt>
      <trkpt lat="43.54942" lon="3.3502">
        <ele>290.5</ele>
        <time>2016-07-20T16:27:41Z</time>
      </trkpt>
      <trkpt lat="43.54939" lon="3.35031">
        <ele>289.9</ele>
        <time>2016-07-20T16:27:42Z</time>
      </trkpt>
      <trkpt lat="43.54936" lon="3.35044">
        <ele>289.2</ele>
        <time>2016-07-20T16:27:43Z</time>
      </trkpt>
      <trkpt lat="43.54933" lon="3.35057">
        <ele>289.1</ele>
        <time>2016-07-20T16:27:44Z</time>
      </trkpt>
      <trkpt lat="43.5493" lon="3.35068">
        <ele>288.2</ele>
        <time>2016-07-20T16:27:45Z</time>
      </trkpt>
      <trkpt lat="43.54927" lon="3.35081">
        <ele>287.8</ele>
        <time>2016-07-20T16:27:46Z</time>
      </trkpt>
      <trkpt lat="43.54925" lon="3.35092">
        <ele>286.6</ele>
        <time>2016-07-20T16:27:47Z</time>
      </trkpt>
      <trkpt lat="43.54923" lon="3.35103">
        <ele>285.5</ele>
        <time>2016-07-20T16:27:48Z</time>
      </trkpt>
      <trkpt lat="43.54912" lon="3.35117">
        <ele>283.5</ele>
        <time>2016-07-20T16:27:50Z</time>
      </trkpt>
      <trkpt lat="43.54902" lon="3.35125">
        <ele>281.7</ele>
        <time>2016-07-20T16:27:52Z</time>
      </trkpt>
      <trkpt lat="43.5489" lon="3.35131">
        <ele>281.2</ele>
        <time>2016-07-20T16:27:54Z</time>
      </trkpt>
      <trkpt lat="43.54878" lon="3.35134">
        <ele>281.6</ele>
        <time>2016-07-20T16:27:56Z</time>
      </trkpt>
      <trkpt lat="43.54868" lon="3.35143">
        <ele>281.1</ele>
        <time>2016-07-20T16:27:58Z</time>
      </trkpt>
      <trkpt lat="43.5486" lon="3.35153">
        <ele>280.8</ele>
        <time>2016-07-20T16:28:00Z</time>
      </trkpt>
      <trkpt lat="43.54852" lon="3.35163">
        <ele>280.5</ele>
        <time>2016-07-20T16:28:02Z</time>
      </trkpt>
      <trkpt lat="43.54843" lon="3.35172">
        <ele>280.2</ele>
        <time>2016-07-20T16:28:04Z</time>
      </trkpt>
      <trkpt lat="43.54834" lon="3.35183">
        <ele>280.4</ele>
        <time>2016-07-20T16:28:06Z</time>
      </trkpt>
      <trkpt lat="43.54827" lon="3.35197">
        <ele>279.7</ele>
        <time>2016-07-20T16:28:08Z</time>
      </trkpt>
      <trkpt lat="43.54822" lon="3.35208">
        <ele>279.4</ele>
        <time>2016-07-20T16:28:10Z</time>
      </trkpt>
      <trkpt lat="43.54816" lon="3.35218">
        <ele>279.2</ele>
        <time>2016-07-20T16:28:12Z</time>
      </trkpt>
      <trkpt lat="43.54811" lon="3.35231">
        <ele>278.8</ele>
        <time>2016-07-20T16:28:15Z</time>
      </trkpt>
      <trkpt lat="43.54805" lon="3.35241">
        <ele>278.7</ele>
        <time>2016-07-20T16:28:18Z</time>
      </trkpt>
      <trkpt lat="43.54802" lon="3.3525">
        <ele>279</ele>
        <time>2016-07-20T16:28:23Z</time>
      </trkpt>
      <trkpt lat="43.54796" lon="3.3526">
        <ele>279.2</ele>
        <time>2016-07-20T16:28:27Z</time>
      </trkpt>
      <trkpt lat="43.54788" lon="3.35266">
        <ele>279.6</ele>
        <time>2016-07-20T16:28:31Z</time>
      </trkpt>
      <trkpt lat="43.54779" lon="3.3527">
        <ele>280</ele>
        <time>2016-07-20T16:28:34Z</time>
      </trkpt>
      <trkpt lat="43.54769" lon="3.35273">
        <ele>280.3</ele>
        <time>2016-07-20T16:28:37Z</time>
      </trkpt>
      <trkpt lat="43.54758" lon="3.35271">
        <ele>280.8</ele>
        <time>2016-07-20T16:28:40Z</time>
      </trkpt>
      <trkpt lat="43.54751" lon="3.35275">
        <ele>281.2</ele>
        <time>2016-07-20T16:28:43Z</time>
      </trkpt>
      <trkpt lat="43.54745" lon="3.35283">
        <ele>281.8</ele>
        <time>2016-07-20T16:28:48Z</time>
      </trkpt>
      <trkpt lat="43.54738" lon="3.3529">
        <ele>282.1</ele>
        <time>2016-07-20T16:28:52Z</time>
      </trkpt>
      <trkpt lat="43.5473" lon="3.35288">
        <ele>282.4</ele>
        <time>2016-07-20T16:28:57Z</time>
      </trkpt>
      <trkpt lat="43.54722" lon="3.35289">
        <ele>282.6</ele>
        <time>2016-07-20T16:29:01Z</time>
      </trkpt>
      <trkpt lat="43.54715" lon="3.35298">
        <ele>282.3</ele>
        <time>2016-07-20T16:29:06Z</time>
      </trkpt>
      <trkpt lat="43.54706" lon="3.35302">
        <ele>282.2</ele>
        <time>2016-07-20T16:29:08Z</time>
      </trkpt>
      <trkpt lat="43.54698" lon="3.35302">
        <ele>281.9</ele>
        <time>2016-07-20T16:29:10Z</time>
      </trkpt>
      <trkpt lat="43.54688" lon="3.35296">
        <ele>278.5</ele>
        <time>2016-07-20T16:29:13Z</time>
      </trkpt>
      <trkpt lat="43.54681" lon="3.35288">
        <ele>277.9</ele>
        <time>2016-07-20T16:29:16Z</time>
      </trkpt>
      <trkpt lat="43.54672" lon="3.35285">
        <ele>274.4</ele>
        <time>2016-07-20T16:29:19Z</time>
      </trkpt>
      <trkpt lat="43.54663" lon="3.35283">
        <ele>270.2</ele>
        <time>2016-07-20T16:29:21Z</time>
      </trkpt>
      <trkpt lat="43.54656" lon="3.3528">
        <ele>270</ele>
        <time>2016-07-20T16:29:23Z</time>
      </trkpt>
      <trkpt lat="43.54645" lon="3.35274">
        <ele>267.3</ele>
        <time>2016-07-20T16:29:26Z</time>
      </trkpt>
      <trkpt lat="43.54638" lon="3.3527">
        <ele>266.4</ele>
        <time>2016-07-20T16:29:27Z</time>
      </trkpt>
      <trkpt lat="43.54626" lon="3.35265">
        <ele>263.8</ele>
        <time>2016-07-20T16:29:29Z</time>
      </trkpt>
      <trkpt lat="43.54619" lon="3.35261">
        <ele>262.4</ele>
        <time>2016-07-20T16:29:30Z</time>
      </trkpt>
      <trkpt lat="43.54607" lon="3.35254">
        <ele>259.5</ele>
        <time>2016-07-20T16:29:32Z</time>
      </trkpt>
      <trkpt lat="43.54595" lon="3.35248">
        <ele>257.7</ele>
        <time>2016-07-20T16:29:34Z</time>
      </trkpt>
      <trkpt lat="43.54583" lon="3.35246">
        <ele>257</ele>
        <time>2016-07-20T16:29:36Z</time>
      </trkpt>
      <trkpt lat="43.54573" lon="3.35247">
        <ele>256.9</ele>
        <time>2016-07-20T16:29:38Z</time>
      </trkpt>
      <trkpt lat="43.54565" lon="3.3525">
        <ele>257</ele>
        <time>2016-07-20T16:29:40Z</time>
      </trkpt>
      <trkpt lat="43.54554" lon="3.35253">
        <ele>256.8</ele>
        <time>2016-07-20T16:29:42Z</time>
      </trkpt>
      <trkpt lat="43.54544" lon="3.35257">
        <ele>256.4</ele>
        <time>2016-07-20T16:29:44Z</time>
      </trkpt>
      <trkpt lat="43.54534" lon="3.35261">
        <ele>256.1</ele>
        <time>2016-07-20T16:29:46Z</time>
      </trkpt>
      <trkpt lat="43.54525" lon="3.35264">
        <ele>255.7</ele>
        <time>2016-07-20T16:29:48Z</time>
      </trkpt>
      <trkpt lat="43.54518" lon="3.3527">
        <ele>255.5</ele>
        <time>2016-07-20T16:29:51Z</time>
      </trkpt>
      <trkpt lat="43.54511" lon="3.35277">
        <ele>255.5</ele>
        <time>2016-07-20T16:29:54Z</time>
      </trkpt>
      <trkpt lat="43.54503" lon="3.35286">
        <ele>255.5</ele>
        <time>2016-07-20T16:29:57Z</time>
      </trkpt>
      <trkpt lat="43.54497" lon="3.35296">
        <ele>255.3</ele>
        <time>2016-07-20T16:30:00Z</time>
      </trkpt>
      <trkpt lat="43.54491" lon="3.35307">
        <ele>255.2</ele>
        <time>2016-07-20T16:30:03Z</time>
      </trkpt>
      <trkpt lat="43.54488" lon="3.35317">
        <ele>255.2</ele>
        <time>2016-07-20T16:30:06Z</time>
      </trkpt>
      <trkpt lat="43.54486" lon="3.35329">
        <ele>255.1</ele>
        <time>2016-07-20T16:30:09Z</time>
      </trkpt>
      <trkpt lat="43.54482" lon="3.35339">
        <ele>254.9</ele>
        <time>2016-07-20T16:30:11Z</time>
      </trkpt>
      <trkpt lat="43.54478" lon="3.35354">
        <ele>254.9</ele>
        <time>2016-07-20T16:30:14Z</time>
      </trkpt>
      <trkpt lat="43.54475" lon="3.35366">
        <ele>254.9</ele>
        <time>2016-07-20T16:30:17Z</time>
      </trkpt>
      <trkpt lat="43.54472" lon="3.35376">
        <ele>255</ele>
        <time>2016-07-20T16:30:19Z</time>
      </trkpt>
      <trkpt lat="43.54468" lon="3.35385">
        <ele>255</ele>
        <time>2016-07-20T16:30:21Z</time>
      </trkpt>
      <trkpt lat="43.54464" lon="3.35398">
        <ele>254.8</ele>
        <time>2016-07-20T16:30:24Z</time>
      </trkpt>
      <trkpt lat="43.54462" lon="3.35409">
        <ele>254.6</ele>
        <time>2016-07-20T16:30:26Z</time>
      </trkpt>
      <trkpt lat="43.54461" lon="3.35423">
        <ele>254.5</ele>
        <time>2016-07-20T16:30:29Z</time>
      </trkpt>
      <trkpt lat="43.5446" lon="3.35437">
        <ele>254.4</ele>
        <time>2016-07-20T16:30:32Z</time>
      </trkpt>
      <trkpt lat="43.54461" lon="3.35448">
        <ele>254.4</ele>
        <time>2016-07-20T16:30:34Z</time>
      </trkpt>
      <trkpt lat="43.54459" lon="3.3546">
        <ele>253.9</ele>
        <time>2016-07-20T16:30:36Z</time>
      </trkpt>
      <trkpt lat="43.54457" lon="3.35474">
        <ele>254.6</ele>
        <time>2016-07-20T16:30:38Z</time>
      </trkpt>
      <trkpt lat="43.54456" lon="3.35488">
        <ele>255</ele>
        <time>2016-07-20T16:30:41Z</time>
      </trkpt>
      <trkpt lat="43.54453" lon="3.355">
        <ele>254.9</ele>
        <time>2016-07-20T16:30:43Z</time>
      </trkpt>
      <trkpt lat="43.5445" lon="3.35512">
        <ele>253.7</ele>
        <time>2016-07-20T16:30:45Z</time>
      </trkpt>
      <trkpt lat="43.54447" lon="3.35525">
        <ele>252.1</ele>
        <time>2016-07-20T16:30:47Z</time>
      </trkpt>
      <trkpt lat="43.54444" lon="3.35536">
        <ele>251.6</ele>
        <time>2016-07-20T16:30:49Z</time>
      </trkpt>
      <trkpt lat="43.54442" lon="3.35546">
        <ele>251.6</ele>
        <time>2016-07-20T16:30:51Z</time>
      </trkpt>
      <trkpt lat="43.54437" lon="3.3556">
        <ele>251.6</ele>
        <time>2016-07-20T16:30:54Z</time>
      </trkpt>
      <trkpt lat="43.54435" lon="3.35571">
        <ele>251.7</ele>
        <time>2016-07-20T16:30:56Z</time>
      </trkpt>
      <trkpt lat="43.54433" lon="3.35581">
        <ele>252.3</ele>
        <time>2016-07-20T16:30:58Z</time>
      </trkpt>
      <trkpt lat="43.5443" lon="3.35594">
        <ele>252.4</ele>
        <time>2016-07-20T16:31:01Z</time>
      </trkpt>
      <trkpt lat="43.54426" lon="3.35603">
        <ele>252.5</ele>
        <time>2016-07-20T16:31:03Z</time>
      </trkpt>
      <trkpt lat="43.5442" lon="3.35614">
        <ele>252.5</ele>
        <time>2016-07-20T16:31:06Z</time>
      </trkpt>
      <trkpt lat="43.54418" lon="3.35626">
        <ele>252.8</ele>
        <time>2016-07-20T16:31:09Z</time>
      </trkpt>
      <trkpt lat="43.54418" lon="3.35637">
        <ele>253</ele>
        <time>2016-07-20T16:31:13Z</time>
      </trkpt>
      <trkpt lat="43.54418" lon="3.3565">
        <ele>253.2</ele>
        <time>2016-07-20T16:31:18Z</time>
      </trkpt>
      <trkpt lat="43.54417" lon="3.35662">
        <ele>253.6</ele>
        <time>2016-07-20T16:31:21Z</time>
      </trkpt>
      <trkpt lat="43.54418" lon="3.35675">
        <ele>254.1</ele>
        <time>2016-07-20T16:31:24Z</time>
      </trkpt>
      <trkpt lat="43.54416" lon="3.35685">
        <ele>254.4</ele>
        <time>2016-07-20T16:31:27Z</time>
      </trkpt>
      <trkpt lat="43.54408" lon="3.35688">
        <ele>254.7</ele>
        <time>2016-07-20T16:31:31Z</time>
      </trkpt>
      <trkpt lat="43.54402" lon="3.35682">
        <ele>255.1</ele>
        <time>2016-07-20T16:31:35Z</time>
      </trkpt>
      <trkpt lat="43.54395" lon="3.35676">
        <ele>255.4</ele>
        <time>2016-07-20T16:31:39Z</time>
      </trkpt>
      <trkpt lat="43.54393" lon="3.35672">
        <ele>256.1</ele>
        <time>2016-07-20T16:31:46Z</time>
      </trkpt>
      <trkpt lat="43.54396" lon="3.35678">
        <ele>257</ele>
        <time>2016-07-20T16:32:04Z</time>
      </trkpt>
      <trkpt lat="43.5439" lon="3.35672">
        <ele>257.5</ele>
        <time>2016-07-20T16:32:10Z</time>
      </trkpt>
      <trkpt lat="43.54387" lon="3.3566">
        <ele>257.7</ele>
        <time>2016-07-20T16:32:16Z</time>
      </trkpt>
      <trkpt lat="43.54385" lon="3.35649">
        <ele>258.1</ele>
        <time>2016-07-20T16:32:19Z</time>
      </trkpt>
      <trkpt lat="43.54385" lon="3.35637">
        <ele>258.4</ele>
        <time>2016-07-20T16:32:22Z</time>
      </trkpt>
      <trkpt lat="43.54384" lon="3.35625">
        <ele>258.8</ele>
        <time>2016-07-20T16:32:25Z</time>
      </trkpt>
      <trkpt lat="43.54379" lon="3.35617">
        <ele>259.1</ele>
        <time>2016-07-20T16:32:29Z</time>
      </trkpt>
      <trkpt lat="43.54373" lon="3.35612">
        <ele>259.6</ele>
        <time>2016-07-20T16:32:32Z</time>
      </trkpt>
      <trkpt lat="43.54363" lon="3.3561">
        <ele>260.1</ele>
        <time>2016-07-20T16:32:36Z</time>
      </trkpt>
      <trkpt lat="43.54354" lon="3.35613">
        <ele>260.5</ele>
        <time>2016-07-20T16:32:40Z</time>
      </trkpt>
      <trkpt lat="43.54346" lon="3.35618">
        <ele>261</ele>
        <time>2016-07-20T16:32:44Z</time>
      </trkpt>
      <trkpt lat="43.54344" lon="3.35628">
        <ele>261.4</ele>
        <time>2016-07-20T16:32:48Z</time>
      </trkpt>
      <trkpt lat="43.54346" lon="3.35638">
        <ele>261.7</ele>
        <time>2016-07-20T16:32:52Z</time>
      </trkpt>
      <trkpt lat="43.54349" lon="3.3565">
        <ele>262.1</ele>
        <time>2016-07-20T16:32:56Z</time>
      </trkpt>
      <trkpt lat="43.54348" lon="3.35661">
        <ele>262.5</ele>
        <time>2016-07-20T16:32:59Z</time>
      </trkpt>
      <trkpt lat="43.54347" lon="3.35672">
        <ele>262.8</ele>
        <time>2016-07-20T16:33:02Z</time>
      </trkpt>
      <trkpt lat="43.54344" lon="3.35685">
        <ele>263.3</ele>
        <time>2016-07-20T16:33:06Z</time>
      </trkpt>
      <trkpt lat="43.54337" lon="3.35693">
        <ele>264.1</ele>
        <time>2016-07-20T16:33:10Z</time>
      </trkpt>
      <trkpt lat="43.54329" lon="3.35701">
        <ele>264.8</ele>
        <time>2016-07-20T16:33:13Z</time>
      </trkpt>
      <trkpt lat="43.54323" lon="3.35706">
        <ele>265</ele>
        <time>2016-07-20T16:33:15Z</time>
      </trkpt>
      <trkpt lat="43.54316" lon="3.35712">
        <ele>265.2</ele>
        <time>2016-07-20T16:33:17Z</time>
      </trkpt>
      <trkpt lat="43.5431" lon="3.35718">
        <ele>265.7</ele>
        <time>2016-07-20T16:33:20Z</time>
      </trkpt>
      <trkpt lat="43.54303" lon="3.35723">
        <ele>266</ele>
        <time>2016-07-20T16:33:23Z</time>
      </trkpt>
      <trkpt lat="43.54296" lon="3.35731">
        <ele>266.4</ele>
        <time>2016-07-20T16:33:26Z</time>
      </trkpt>
      <trkpt lat="43.54289" lon="3.35736">
        <ele>266.8</ele>
        <time>2016-07-20T16:33:29Z</time>
      </trkpt>
      <trkpt lat="43.54281" lon="3.3574">
        <ele>267.1</ele>
        <time>2016-07-20T16:33:32Z</time>
      </trkpt>
      <trkpt lat="43.54273" lon="3.35748">
        <ele>267.5</ele>
        <time>2016-07-20T16:33:35Z</time>
      </trkpt>
      <trkpt lat="43.54268" lon="3.35754">
        <ele>267.7</ele>
        <time>2016-07-20T16:33:37Z</time>
      </trkpt>
      <trkpt lat="43.54261" lon="3.35764">
        <ele>268.1</ele>
        <time>2016-07-20T16:33:40Z</time>
      </trkpt>
      <trkpt lat="43.54255" lon="3.35772">
        <ele>268.3</ele>
        <time>2016-07-20T16:33:43Z</time>
      </trkpt>
      <trkpt lat="43.54249" lon="3.35779">
        <ele>268.6</ele>
        <time>2016-07-20T16:33:46Z</time>
      </trkpt>
      <trkpt lat="43.54242" lon="3.35785">
        <ele>268.8</ele>
        <time>2016-07-20T16:33:49Z</time>
      </trkpt>
      <trkpt lat="43.54235" lon="3.35789">
        <ele>268.9</ele>
        <time>2016-07-20T16:33:51Z</time>
      </trkpt>
      <trkpt lat="43.54225" lon="3.35793">
        <ele>269.1</ele>
        <time>2016-07-20T16:33:54Z</time>
      </trkpt>
      <trkpt lat="43.54217" lon="3.35796">
        <ele>269.8</ele>
        <time>2016-07-20T16:33:56Z</time>
      </trkpt>
      <trkpt lat="43.54211" lon="3.35805">
        <ele>269.7</ele>
        <time>2016-07-20T16:33:59Z</time>
      </trkpt>
      <trkpt lat="43.54204" lon="3.35818">
        <ele>269.1</ele>
        <time>2016-07-20T16:34:02Z</time>
      </trkpt>
      <trkpt lat="43.54199" lon="3.3583">
        <ele>269</ele>
        <time>2016-07-20T16:34:04Z</time>
      </trkpt>
      <trkpt lat="43.54195" lon="3.35843">
        <ele>268.9</ele>
        <time>2016-07-20T16:34:06Z</time>
      </trkpt>
      <trkpt lat="43.54191" lon="3.35856">
        <ele>268.6</ele>
        <time>2016-07-20T16:34:08Z</time>
      </trkpt>
      <trkpt lat="43.54186" lon="3.35867">
        <ele>268.4</ele>
        <time>2016-07-20T16:34:10Z</time>
      </trkpt>
      <trkpt lat="43.5418" lon="3.35874">
        <ele>268.4</ele>
        <time>2016-07-20T16:34:12Z</time>
      </trkpt>
      <trkpt lat="43.54169" lon="3.35874">
        <ele>268.4</ele>
        <time>2016-07-20T16:34:14Z</time>
      </trkpt>
      <trkpt lat="43.54163" lon="3.35866">
        <ele>268</ele>
        <time>2016-07-20T16:34:16Z</time>
      </trkpt>
      <trkpt lat="43.54157" lon="3.35858">
        <ele>268.1</ele>
        <time>2016-07-20T16:34:19Z</time>
      </trkpt>
      <trkpt lat="43.54151" lon="3.3585">
        <ele>268.4</ele>
        <time>2016-07-20T16:34:22Z</time>
      </trkpt>
      <trkpt lat="43.54145" lon="3.35839">
        <ele>269</ele>
        <time>2016-07-20T16:34:27Z</time>
      </trkpt>
      <trkpt lat="43.5414" lon="3.3583">
        <ele>269.2</ele>
        <time>2016-07-20T16:34:29Z</time>
      </trkpt>
      <trkpt lat="43.54134" lon="3.35821">
        <ele>269.3</ele>
        <time>2016-07-20T16:34:31Z</time>
      </trkpt>
      <trkpt lat="43.54128" lon="3.35814">
        <ele>269.2</ele>
        <time>2016-07-20T16:34:34Z</time>
      </trkpt>
      <trkpt lat="43.5412" lon="3.35806">
        <ele>269.5</ele>
        <time>2016-07-20T16:34:38Z</time>
      </trkpt>
      <trkpt lat="43.54113" lon="3.35799">
        <ele>269.7</ele>
        <time>2016-07-20T16:34:41Z</time>
      </trkpt>
      <trkpt lat="43.54104" lon="3.35792">
        <ele>269.9</ele>
        <time>2016-07-20T16:34:44Z</time>
      </trkpt>
      <trkpt lat="43.54096" lon="3.35787">
        <ele>271.3</ele>
        <time>2016-07-20T16:34:46Z</time>
      </trkpt>
      <trkpt lat="43.54088" lon="3.35786">
        <ele>272</ele>
        <time>2016-07-20T16:34:48Z</time>
      </trkpt>
      <trkpt lat="43.5408" lon="3.35784">
        <ele>273.6</ele>
        <time>2016-07-20T16:34:50Z</time>
      </trkpt>
      <trkpt lat="43.54072" lon="3.35781">
        <ele>273.7</ele>
        <time>2016-07-20T16:34:52Z</time>
      </trkpt>
      <trkpt lat="43.54064" lon="3.35778">
        <ele>274.7</ele>
        <time>2016-07-20T16:34:54Z</time>
      </trkpt>
      <trkpt lat="43.54055" lon="3.35774">
        <ele>275.2</ele>
        <time>2016-07-20T16:34:56Z</time>
      </trkpt>
      <trkpt lat="43.54047" lon="3.35769">
        <ele>275</ele>
        <time>2016-07-20T16:34:58Z</time>
      </trkpt>
      <trkpt lat="43.54038" lon="3.35763">
        <ele>274.6</ele>
        <time>2016-07-20T16:35:00Z</time>
      </trkpt>
      <trkpt lat="43.54029" lon="3.35755">
        <ele>275.4</ele>
        <time>2016-07-20T16:35:02Z</time>
      </trkpt>
      <trkpt lat="43.5402" lon="3.35746">
        <ele>275.1</ele>
        <time>2016-07-20T16:35:04Z</time>
      </trkpt>
      <trkpt lat="43.54014" lon="3.35739">
        <ele>274.8</ele>
        <time>2016-07-20T16:35:06Z</time>
      </trkpt>
      <trkpt lat="43.54007" lon="3.35734">
        <ele>274.7</ele>
        <time>2016-07-20T16:35:08Z</time>
      </trkpt>
      <trkpt lat="43.54001" lon="3.35728">
        <ele>274.6</ele>
        <time>2016-07-20T16:35:10Z</time>
      </trkpt>
      <trkpt lat="43.53994" lon="3.35722">
        <ele>274.5</ele>
        <time>2016-07-20T16:35:12Z</time>
      </trkpt>
      <trkpt lat="43.53986" lon="3.35715">
        <ele>274.4</ele>
        <time>2016-07-20T16:35:15Z</time>
      </trkpt>
      <trkpt lat="43.5398" lon="3.35709">
        <ele>274.4</ele>
        <time>2016-07-20T16:35:18Z</time>
      </trkpt>
      <trkpt lat="43.53971" lon="3.35702">
        <ele>274.3</ele>
        <time>2016-07-20T16:35:21Z</time>
      </trkpt>
      <trkpt lat="43.53962" lon="3.35695">
        <ele>274.3</ele>
        <time>2016-07-20T16:35:24Z</time>
      </trkpt>
      <trkpt lat="43.53955" lon="3.35691">
        <ele>274.4</ele>
        <time>2016-07-20T16:35:26Z</time>
      </trkpt>
      <trkpt lat="43.53949" lon="3.35683">
        <ele>274.4</ele>
        <time>2016-07-20T16:35:29Z</time>
      </trkpt>
      <trkpt lat="43.53941" lon="3.35671">
        <ele>274.6</ele>
        <time>2016-07-20T16:35:32Z</time>
      </trkpt>
      <trkpt lat="43.53938" lon="3.35661">
        <ele>274.6</ele>
        <time>2016-07-20T16:35:34Z</time>
      </trkpt>
      <trkpt lat="43.53937" lon="3.35648">
        <ele>274.8</ele>
        <time>2016-07-20T16:35:37Z</time>
      </trkpt>
      <trkpt lat="43.53934" lon="3.35633">
        <ele>274.4</ele>
        <time>2016-07-20T16:35:40Z</time>
      </trkpt>
      <trkpt lat="43.53932" lon="3.35623">
        <ele>274.4</ele>
        <time>2016-07-20T16:35:42Z</time>
      </trkpt>
      <trkpt lat="43.5393" lon="3.35614">
        <ele>274.4</ele>
        <time>2016-07-20T16:35:44Z</time>
      </trkpt>
      <trkpt lat="43.53927" lon="3.35602">
        <ele>274.6</ele>
        <time>2016-07-20T16:35:47Z</time>
      </trkpt>
      <trkpt lat="43.53924" lon="3.35588">
        <ele>274.6</ele>
        <time>2016-07-20T16:35:50Z</time>
      </trkpt>
      <trkpt lat="43.53922" lon="3.35576">
        <ele>274.9</ele>
        <time>2016-07-20T16:35:52Z</time>
      </trkpt>
      <trkpt lat="43.53919" lon="3.35564">
        <ele>275.1</ele>
        <time>2016-07-20T16:35:55Z</time>
      </trkpt>
      <trkpt lat="43.53914" lon="3.35556">
        <ele>275.2</ele>
        <time>2016-07-20T16:35:58Z</time>
      </trkpt>
      <trkpt lat="43.53907" lon="3.35552">
        <ele>275.5</ele>
        <time>2016-07-20T16:36:01Z</time>
      </trkpt>
      <trkpt lat="43.53901" lon="3.35545">
        <ele>275.8</ele>
        <time>2016-07-20T16:36:04Z</time>
      </trkpt>
      <trkpt lat="43.53896" lon="3.35536">
        <ele>276.1</ele>
        <time>2016-07-20T16:36:07Z</time>
      </trkpt>
      <trkpt lat="43.53888" lon="3.35542">
        <ele>276.7</ele>
        <time>2016-07-20T16:36:12Z</time>
      </trkpt>
      <trkpt lat="43.53879" lon="3.3555">
        <ele>277.6</ele>
        <time>2016-07-20T16:36:15Z</time>
      </trkpt>
      <trkpt lat="43.53871" lon="3.35552">
        <ele>277.6</ele>
        <time>2016-07-20T16:36:17Z</time>
      </trkpt>
      <trkpt lat="43.53862" lon="3.35556">
        <ele>277.8</ele>
        <time>2016-07-20T16:36:20Z</time>
      </trkpt>
      <trkpt lat="43.53855" lon="3.35562">
        <ele>277.8</ele>
        <time>2016-07-20T16:36:22Z</time>
      </trkpt>
      <trkpt lat="43.53848" lon="3.35566">
        <ele>277.7</ele>
        <time>2016-07-20T16:36:24Z</time>
      </trkpt>
      <trkpt lat="43.5384" lon="3.3557">
        <ele>277.6</ele>
        <time>2016-07-20T16:36:26Z</time>
      </trkpt>
      <trkpt lat="43.53833" lon="3.35573">
        <ele>277.5</ele>
        <time>2016-07-20T16:36:28Z</time>
      </trkpt>
      <trkpt lat="43.53826" lon="3.35576">
        <ele>277.5</ele>
        <time>2016-07-20T16:36:30Z</time>
      </trkpt>
      <trkpt lat="43.53818" lon="3.35585">
        <ele>277.6</ele>
        <time>2016-07-20T16:36:33Z</time>
      </trkpt>
      <trkpt lat="43.53818" lon="3.35596">
        <ele>277.7</ele>
        <time>2016-07-20T16:36:36Z</time>
      </trkpt>
      <trkpt lat="43.53816" lon="3.35606">
        <ele>277.5</ele>
        <time>2016-07-20T16:36:39Z</time>
      </trkpt>
      <trkpt lat="43.53813" lon="3.35616">
        <ele>277.4</ele>
        <time>2016-07-20T16:36:41Z</time>
      </trkpt>
      <trkpt lat="43.53806" lon="3.35623">
        <ele>277.5</ele>
        <time>2016-07-20T16:36:43Z</time>
      </trkpt>
      <trkpt lat="43.53796" lon="3.3563">
        <ele>277.6</ele>
        <time>2016-07-20T16:36:46Z</time>
      </trkpt>
      <trkpt lat="43.53786" lon="3.35631">
        <ele>277.7</ele>
        <time>2016-07-20T16:36:49Z</time>
      </trkpt>
      <trkpt lat="43.53777" lon="3.35626">
        <ele>278</ele>
        <time>2016-07-20T16:36:52Z</time>
      </trkpt>
      <trkpt lat="43.53769" lon="3.3562">
        <ele>278.4</ele>
        <time>2016-07-20T16:36:56Z</time>
      </trkpt>
      <trkpt lat="43.53762" lon="3.3561">
        <ele>279</ele>
        <time>2016-07-20T16:36:59Z</time>
      </trkpt>
      <trkpt lat="43.53755" lon="3.35608">
        <ele>279.5</ele>
        <time>2016-07-20T16:37:02Z</time>
      </trkpt>
      <trkpt lat="43.53747" lon="3.35608">
        <ele>279.8</ele>
        <time>2016-07-20T16:37:05Z</time>
      </trkpt>
      <trkpt lat="43.53738" lon="3.35607">
        <ele>280.1</ele>
        <time>2016-07-20T16:37:08Z</time>
      </trkpt>
      <trkpt lat="43.5373" lon="3.35606">
        <ele>280.4</ele>
        <time>2016-07-20T16:37:11Z</time>
      </trkpt>
      <trkpt lat="43.53721" lon="3.35603">
        <ele>280.6</ele>
        <time>2016-07-20T16:37:14Z</time>
      </trkpt>
      <trkpt lat="43.53713" lon="3.356">
        <ele>280.9</ele>
        <time>2016-07-20T16:37:17Z</time>
      </trkpt>
      <trkpt lat="43.53705" lon="3.356">
        <ele>281.3</ele>
        <time>2016-07-20T16:37:20Z</time>
      </trkpt>
      <trkpt lat="43.53698" lon="3.35602">
        <ele>281.7</ele>
        <time>2016-07-20T16:37:24Z</time>
      </trkpt>
      <trkpt lat="43.53689" lon="3.35606">
        <ele>282.1</ele>
        <time>2016-07-20T16:37:28Z</time>
      </trkpt>
      <trkpt lat="43.53684" lon="3.35613">
        <ele>282.3</ele>
        <time>2016-07-20T16:37:31Z</time>
      </trkpt>
      <trkpt lat="43.53677" lon="3.35619">
        <ele>282.5</ele>
        <time>2016-07-20T16:37:34Z</time>
      </trkpt>
      <trkpt lat="43.53668" lon="3.35623">
        <ele>282.5</ele>
        <time>2016-07-20T16:37:37Z</time>
      </trkpt>
      <trkpt lat="43.5366" lon="3.35627">
        <ele>282.5</ele>
        <time>2016-07-20T16:37:40Z</time>
      </trkpt>
      <trkpt lat="43.53653" lon="3.3563">
        <ele>282.4</ele>
        <time>2016-07-20T16:37:43Z</time>
      </trkpt>
      <trkpt lat="43.53644" lon="3.35633">
        <ele>282.5</ele>
        <time>2016-07-20T16:37:46Z</time>
      </trkpt>
      <trkpt lat="43.53633" lon="3.35635">
        <ele>282.7</ele>
        <time>2016-07-20T16:37:49Z</time>
      </trkpt>
      <trkpt lat="43.53623" lon="3.35636">
        <ele>283.1</ele>
        <time>2016-07-20T16:37:52Z</time>
      </trkpt>
      <trkpt lat="43.53613" lon="3.35635">
        <ele>283.5</ele>
        <time>2016-07-20T16:37:55Z</time>
      </trkpt>
      <trkpt lat="43.53605" lon="3.35632">
        <ele>284</ele>
        <time>2016-07-20T16:37:59Z</time>
      </trkpt>
      <trkpt lat="43.53601" lon="3.35623">
        <ele>284.3</ele>
        <time>2016-07-20T16:38:02Z</time>
      </trkpt>
      <trkpt lat="43.536" lon="3.3561">
        <ele>284.6</ele>
        <time>2016-07-20T16:38:05Z</time>
      </trkpt>
      <trkpt lat="43.53601" lon="3.356">
        <ele>284.8</ele>
        <time>2016-07-20T16:38:07Z</time>
      </trkpt>
      <trkpt lat="43.53603" lon="3.35588">
        <ele>285</ele>
        <time>2016-07-20T16:38:09Z</time>
      </trkpt>
      <trkpt lat="43.53607" lon="3.35578">
        <ele>285.1</ele>
        <time>2016-07-20T16:38:11Z</time>
      </trkpt>
      <trkpt lat="43.53611" lon="3.35568">
        <ele>285.8</ele>
        <time>2016-07-20T16:38:13Z</time>
      </trkpt>
      <trkpt lat="43.53616" lon="3.35559">
        <ele>285.9</ele>
        <time>2016-07-20T16:38:15Z</time>
      </trkpt>
      <trkpt lat="43.53619" lon="3.35548">
        <ele>285.6</ele>
        <time>2016-07-20T16:38:17Z</time>
      </trkpt>
      <trkpt lat="43.53623" lon="3.35537">
        <ele>286</ele>
        <time>2016-07-20T16:38:19Z</time>
      </trkpt>
      <trkpt lat="43.53629" lon="3.35526">
        <ele>285.5</ele>
        <time>2016-07-20T16:38:21Z</time>
      </trkpt>
      <trkpt lat="43.53636" lon="3.35518">
        <ele>285.5</ele>
        <time>2016-07-20T16:38:23Z</time>
      </trkpt>
      <trkpt lat="43.53642" lon="3.35505">
        <ele>285.6</ele>
        <time>2016-07-20T16:38:26Z</time>
      </trkpt>
      <trkpt lat="43.53648" lon="3.35497">
        <ele>286</ele>
        <time>2016-07-20T16:38:28Z</time>
      </trkpt>
      <trkpt lat="43.53653" lon="3.35488">
        <ele>286.1</ele>
        <time>2016-07-20T16:38:30Z</time>
      </trkpt>
      <trkpt lat="43.53657" lon="3.35479">
        <ele>286.2</ele>
        <time>2016-07-20T16:38:32Z</time>
      </trkpt>
      <trkpt lat="43.53662" lon="3.35467">
        <ele>286.1</ele>
        <time>2016-07-20T16:38:35Z</time>
      </trkpt>
      <trkpt lat="43.53668" lon="3.35459">
        <ele>286.1</ele>
        <time>2016-07-20T16:38:37Z</time>
      </trkpt>
      <trkpt lat="43.53674" lon="3.35452">
        <ele>286.1</ele>
        <time>2016-07-20T16:38:39Z</time>
      </trkpt>
      <trkpt lat="43.53681" lon="3.35447">
        <ele>286.1</ele>
        <time>2016-07-20T16:38:41Z</time>
      </trkpt>
      <trkpt lat="43.53687" lon="3.35441">
        <ele>286.2</ele>
        <time>2016-07-20T16:38:43Z</time>
      </trkpt>
      <trkpt lat="43.53694" lon="3.35436">
        <ele>286.2</ele>
        <time>2016-07-20T16:38:45Z</time>
      </trkpt>
      <trkpt lat="43.53703" lon="3.35429">
        <ele>285.8</ele>
        <time>2016-07-20T16:38:47Z</time>
      </trkpt>
      <trkpt lat="43.53711" lon="3.35422">
        <ele>284.9</ele>
        <time>2016-07-20T16:38:49Z</time>
      </trkpt>
      <trkpt lat="43.5372" lon="3.35416">
        <ele>284.6</ele>
        <time>2016-07-20T16:38:51Z</time>
      </trkpt>
      <trkpt lat="43.53729" lon="3.35411">
        <ele>284.7</ele>
        <time>2016-07-20T16:38:53Z</time>
      </trkpt>
      <trkpt lat="43.53736" lon="3.35404">
        <ele>284.6</ele>
        <time>2016-07-20T16:38:56Z</time>
      </trkpt>
      <trkpt lat="43.53743" lon="3.35397">
        <ele>284.5</ele>
        <time>2016-07-20T16:38:58Z</time>
      </trkpt>
      <trkpt lat="43.5375" lon="3.3539">
        <ele>284.6</ele>
        <time>2016-07-20T16:39:00Z</time>
      </trkpt>
      <trkpt lat="43.53759" lon="3.35384">
        <ele>284.5</ele>
        <time>2016-07-20T16:39:02Z</time>
      </trkpt>
      <trkpt lat="43.53766" lon="3.35375">
        <ele>284.2</ele>
        <time>2016-07-20T16:39:04Z</time>
      </trkpt>
      <trkpt lat="43.53773" lon="3.35369">
        <ele>284.2</ele>
        <time>2016-07-20T16:39:06Z</time>
      </trkpt>
      <trkpt lat="43.53779" lon="3.35363">
        <ele>283.8</ele>
        <time>2016-07-20T16:39:08Z</time>
      </trkpt>
      <trkpt lat="43.53788" lon="3.35356">
        <ele>283.1</ele>
        <time>2016-07-20T16:39:10Z</time>
      </trkpt>
      <trkpt lat="43.53796" lon="3.35349">
        <ele>281.9</ele>
        <time>2016-07-20T16:39:12Z</time>
      </trkpt>
      <trkpt lat="43.53809" lon="3.35342">
        <ele>282.2</ele>
        <time>2016-07-20T16:39:14Z</time>
      </trkpt>
      <trkpt lat="43.53819" lon="3.35336">
        <ele>282.4</ele>
        <time>2016-07-20T16:39:16Z</time>
      </trkpt>
      <trkpt lat="43.53831" lon="3.35329">
        <ele>282</ele>
        <time>2016-07-20T16:39:18Z</time>
      </trkpt>
      <trkpt lat="43.53842" lon="3.35322">
        <ele>280.7</ele>
        <time>2016-07-20T16:39:20Z</time>
      </trkpt>
      <trkpt lat="43.5385" lon="3.35314">
        <ele>279.8</ele>
        <time>2016-07-20T16:39:22Z</time>
      </trkpt>
      <trkpt lat="43.53857" lon="3.35305">
        <ele>279.7</ele>
        <time>2016-07-20T16:39:24Z</time>
      </trkpt>
      <trkpt lat="43.53864" lon="3.35297">
        <ele>279.7</ele>
        <time>2016-07-20T16:39:26Z</time>
      </trkpt>
      <trkpt lat="43.53875" lon="3.35299">
        <ele>279.9</ele>
        <time>2016-07-20T16:39:28Z</time>
      </trkpt>
      <trkpt lat="43.53885" lon="3.35297">
        <ele>279.9</ele>
        <time>2016-07-20T16:39:31Z</time>
      </trkpt>
      <trkpt lat="43.53892" lon="3.35291">
        <ele>280</ele>
        <time>2016-07-20T16:39:34Z</time>
      </trkpt>
      <trkpt lat="43.53899" lon="3.35287">
        <ele>280.1</ele>
        <time>2016-07-20T16:39:36Z</time>
      </trkpt>
      <trkpt lat="43.53908" lon="3.35286">
        <ele>280.2</ele>
        <time>2016-07-20T16:39:39Z</time>
      </trkpt>
      <trkpt lat="43.5392" lon="3.3528">
        <ele>280.4</ele>
        <time>2016-07-20T16:39:42Z</time>
      </trkpt>
      <trkpt lat="43.53929" lon="3.35276">
        <ele>281.5</ele>
        <time>2016-07-20T16:39:44Z</time>
      </trkpt>
      <trkpt lat="43.5394" lon="3.35274">
        <ele>281.7</ele>
        <time>2016-07-20T16:39:46Z</time>
      </trkpt>
      <trkpt lat="43.5395" lon="3.35278">
        <ele>281.4</ele>
        <time>2016-07-20T16:39:48Z</time>
      </trkpt>
      <trkpt lat="43.53961" lon="3.35278">
        <ele>280.6</ele>
        <time>2016-07-20T16:39:50Z</time>
      </trkpt>
      <trkpt lat="43.53968" lon="3.35273">
        <ele>280.5</ele>
        <time>2016-07-20T16:39:53Z</time>
      </trkpt>
      <trkpt lat="43.53969" lon="3.35272">
        <ele>280.2</ele>
        <time>2016-07-20T16:40:00Z</time>
      </trkpt>
      <trkpt lat="43.53975" lon="3.35264">
        <ele>280.1</ele>
        <time>2016-07-20T16:40:03Z</time>
      </trkpt>
      <trkpt lat="43.53984" lon="3.35256">
        <ele>279.9</ele>
        <time>2016-07-20T16:40:06Z</time>
      </trkpt>
      <trkpt lat="43.53988" lon="3.35246">
        <ele>279.8</ele>
        <time>2016-07-20T16:40:08Z</time>
      </trkpt>
      <trkpt lat="43.53995" lon="3.35236">
        <ele>279.9</ele>
        <time>2016-07-20T16:40:10Z</time>
      </trkpt>
      <trkpt lat="43.54" lon="3.35227">
        <ele>280.3</ele>
        <time>2016-07-20T16:40:12Z</time>
      </trkpt>
      <trkpt lat="43.54003" lon="3.35214">
        <ele>280.3</ele>
        <time>2016-07-20T16:40:16Z</time>
      </trkpt>
      <trkpt lat="43.5401" lon="3.35204">
        <ele>280.3</ele>
        <time>2016-07-20T16:40:18Z</time>
      </trkpt>
      <trkpt lat="43.54017" lon="3.35198">
        <ele>280.3</ele>
        <time>2016-07-20T16:40:21Z</time>
      </trkpt>
      <trkpt lat="43.54021" lon="3.3519">
        <ele>280.2</ele>
        <time>2016-07-20T16:40:23Z</time>
      </trkpt>
      <trkpt lat="43.54028" lon="3.3518">
        <ele>279.3</ele>
        <time>2016-07-20T16:40:25Z</time>
      </trkpt>
      <trkpt lat="43.54034" lon="3.35169">
        <ele>278.2</ele>
        <time>2016-07-20T16:40:27Z</time>
      </trkpt>
      <trkpt lat="43.5404" lon="3.35163">
        <ele>277.5</ele>
        <time>2016-07-20T16:40:28Z</time>
      </trkpt>
      <trkpt lat="43.54046" lon="3.35156">
        <ele>277</ele>
        <time>2016-07-20T16:40:29Z</time>
      </trkpt>
      <trkpt lat="43.54053" lon="3.35144">
        <ele>276.1</ele>
        <time>2016-07-20T16:40:31Z</time>
      </trkpt>
      <trkpt lat="43.54061" lon="3.35132">
        <ele>276.2</ele>
        <time>2016-07-20T16:40:33Z</time>
      </trkpt>
      <trkpt lat="43.54071" lon="3.35121">
        <ele>276.3</ele>
        <time>2016-07-20T16:40:35Z</time>
      </trkpt>
      <trkpt lat="43.5408" lon="3.35108">
        <ele>276.8</ele>
        <time>2016-07-20T16:40:37Z</time>
      </trkpt>
      <trkpt lat="43.5409" lon="3.351">
        <ele>276.8</ele>
        <time>2016-07-20T16:40:39Z</time>
      </trkpt>
      <trkpt lat="43.54089" lon="3.3509">
        <ele>276.3</ele>
        <time>2016-07-20T16:40:44Z</time>
      </trkpt>
      <trkpt lat="43.54082" lon="3.35082">
        <ele>275.3</ele>
        <time>2016-07-20T16:40:47Z</time>
      </trkpt>
      <trkpt lat="43.54077" lon="3.35074">
        <ele>275.9</ele>
        <time>2016-07-20T16:40:49Z</time>
      </trkpt>
      <trkpt lat="43.5407" lon="3.35065">
        <ele>276</ele>
        <time>2016-07-20T16:40:51Z</time>
      </trkpt>
      <trkpt lat="43.54064" lon="3.35057">
        <ele>276.4</ele>
        <time>2016-07-20T16:40:53Z</time>
      </trkpt>
      <trkpt lat="43.54057" lon="3.35051">
        <ele>278.3</ele>
        <time>2016-07-20T16:40:55Z</time>
      </trkpt>
      <trkpt lat="43.54051" lon="3.35043">
        <ele>278.5</ele>
        <time>2016-07-20T16:40:57Z</time>
      </trkpt>
      <trkpt lat="43.54043" lon="3.35034">
        <ele>278.7</ele>
        <time>2016-07-20T16:40:59Z</time>
      </trkpt>
      <trkpt lat="43.54035" lon="3.35023">
        <ele>278.9</ele>
        <time>2016-07-20T16:41:01Z</time>
      </trkpt>
      <trkpt lat="43.5403" lon="3.35009">
        <ele>279.1</ele>
        <time>2016-07-20T16:41:03Z</time>
      </trkpt>
      <trkpt lat="43.54027" lon="3.34991">
        <ele>279.2</ele>
        <time>2016-07-20T16:41:05Z</time>
      </trkpt>
      <trkpt lat="43.54022" lon="3.34977">
        <ele>279.2</ele>
        <time>2016-07-20T16:41:07Z</time>
      </trkpt>
      <trkpt lat="43.54018" lon="3.34962">
        <ele>279.1</ele>
        <time>2016-07-20T16:41:09Z</time>
      </trkpt>
      <trkpt lat="43.54018" lon="3.34947">
        <ele>278.8</ele>
        <time>2016-07-20T16:41:11Z</time>
      </trkpt>
      <trkpt lat="43.54023" lon="3.34931">
        <ele>278.6</ele>
        <time>2016-07-20T16:41:13Z</time>
      </trkpt>
      <trkpt lat="43.54029" lon="3.34917">
        <ele>278.3</ele>
        <time>2016-07-20T16:41:15Z</time>
      </trkpt>
      <trkpt lat="43.54032" lon="3.34901">
        <ele>278.1</ele>
        <time>2016-07-20T16:41:17Z</time>
      </trkpt>
      <trkpt lat="43.54036" lon="3.34885">
        <ele>277.7</ele>
        <time>2016-07-20T16:41:19Z</time>
      </trkpt>
      <trkpt lat="43.54037" lon="3.34874">
        <ele>277.3</ele>
        <time>2016-07-20T16:41:21Z</time>
      </trkpt>
      <trkpt lat="43.54037" lon="3.34863">
        <ele>276.8</ele>
        <time>2016-07-20T16:41:23Z</time>
      </trkpt>
      <trkpt lat="43.54036" lon="3.34852">
        <ele>273.7</ele>
        <time>2016-07-20T16:41:25Z</time>
      </trkpt>
      <trkpt lat="43.54032" lon="3.34838">
        <ele>272.1</ele>
        <time>2016-07-20T16:41:27Z</time>
      </trkpt>
      <trkpt lat="43.54029" lon="3.34828">
        <ele>271.8</ele>
        <time>2016-07-20T16:41:29Z</time>
      </trkpt>
      <trkpt lat="43.54029" lon="3.34818">
        <ele>271.3</ele>
        <time>2016-07-20T16:41:32Z</time>
      </trkpt>
      <trkpt lat="43.54025" lon="3.34809">
        <ele>270.7</ele>
        <time>2016-07-20T16:41:35Z</time>
      </trkpt>
      <trkpt lat="43.54018" lon="3.34799">
        <ele>268.3</ele>
        <time>2016-07-20T16:41:37Z</time>
      </trkpt>
      <trkpt lat="43.54011" lon="3.34786">
        <ele>264.3</ele>
        <time>2016-07-20T16:41:39Z</time>
      </trkpt>
      <trkpt lat="43.54009" lon="3.34771">
        <ele>261.5</ele>
        <time>2016-07-20T16:41:41Z</time>
      </trkpt>
      <trkpt lat="43.54005" lon="3.34757">
        <ele>261.3</ele>
        <time>2016-07-20T16:41:43Z</time>
      </trkpt>
      <trkpt lat="43.54006" lon="3.3474">
        <ele>261</ele>
        <time>2016-07-20T16:41:45Z</time>
      </trkpt>
      <trkpt lat="43.54008" lon="3.34727">
        <ele>260.7</ele>
        <time>2016-07-20T16:41:47Z</time>
      </trkpt>
      <trkpt lat="43.54008" lon="3.34716">
        <ele>258.9</ele>
        <time>2016-07-20T16:41:49Z</time>
      </trkpt>
      <trkpt lat="43.54005" lon="3.34703">
        <ele>256.9</ele>
        <time>2016-07-20T16:41:52Z</time>
      </trkpt>
      <trkpt lat="43.54003" lon="3.3469">
        <ele>255.5</ele>
        <time>2016-07-20T16:41:54Z</time>
      </trkpt>
      <trkpt lat="43.54002" lon="3.34678">
        <ele>255.3</ele>
        <time>2016-07-20T16:41:56Z</time>
      </trkpt>
      <trkpt lat="43.54" lon="3.34665">
        <ele>254</ele>
        <time>2016-07-20T16:41:58Z</time>
      </trkpt>
      <trkpt lat="43.54" lon="3.34652">
        <ele>252.1</ele>
        <time>2016-07-20T16:42:00Z</time>
      </trkpt>
      <trkpt lat="43.53998" lon="3.3464">
        <ele>249.8</ele>
        <time>2016-07-20T16:42:02Z</time>
      </trkpt>
      <trkpt lat="43.53992" lon="3.34629">
        <ele>247.6</ele>
        <time>2016-07-20T16:42:05Z</time>
      </trkpt>
      <trkpt lat="43.5399" lon="3.34613">
        <ele>245.2</ele>
        <time>2016-07-20T16:42:07Z</time>
      </trkpt>
      <trkpt lat="43.53985" lon="3.34596">
        <ele>243.9</ele>
        <time>2016-07-20T16:42:09Z</time>
      </trkpt>
      <trkpt lat="43.53981" lon="3.3458">
        <ele>243.3</ele>
        <time>2016-07-20T16:42:11Z</time>
      </trkpt>
      <trkpt lat="43.53978" lon="3.34562">
        <ele>241.4</ele>
        <time>2016-07-20T16:42:13Z</time>
      </trkpt>
      <trkpt lat="43.53975" lon="3.34551">
        <ele>240</ele>
        <time>2016-07-20T16:42:14Z</time>
      </trkpt>
      <trkpt lat="43.53969" lon="3.34541">
        <ele>238.4</ele>
        <time>2016-07-20T16:42:16Z</time>
      </trkpt>
      <trkpt lat="43.53961" lon="3.34531">
        <ele>238</ele>
        <time>2016-07-20T16:42:19Z</time>
      </trkpt>
      <trkpt lat="43.53955" lon="3.34522">
        <ele>236.2</ele>
        <time>2016-07-20T16:42:21Z</time>
      </trkpt>
      <trkpt lat="43.53946" lon="3.34516">
        <ele>234.4</ele>
        <time>2016-07-20T16:42:23Z</time>
      </trkpt>
      <trkpt lat="43.53938" lon="3.3451">
        <ele>233.1</ele>
        <time>2016-07-20T16:42:25Z</time>
      </trkpt>
      <trkpt lat="43.53927" lon="3.34504">
        <ele>233</ele>
        <time>2016-07-20T16:42:27Z</time>
      </trkpt>
      <trkpt lat="43.53917" lon="3.34501">
        <ele>233.1</ele>
        <time>2016-07-20T16:42:29Z</time>
      </trkpt>
      <trkpt lat="43.53906" lon="3.34498">
        <ele>232.5</ele>
        <time>2016-07-20T16:42:31Z</time>
      </trkpt>
      <trkpt lat="43.53892" lon="3.34493">
        <ele>231.4</ele>
        <time>2016-07-20T16:42:33Z</time>
      </trkpt>
      <trkpt lat="43.53884" lon="3.3449">
        <ele>230.5</ele>
        <time>2016-07-20T16:42:34Z</time>
      </trkpt>
      <trkpt lat="43.53877" lon="3.34486">
        <ele>230</ele>
        <time>2016-07-20T16:42:35Z</time>
      </trkpt>
      <trkpt lat="43.53869" lon="3.34479">
        <ele>228.5</ele>
        <time>2016-07-20T16:42:36Z</time>
      </trkpt>
      <trkpt lat="43.53862" lon="3.34472">
        <ele>227</ele>
        <time>2016-07-20T16:42:37Z</time>
      </trkpt>
      <trkpt lat="43.53856" lon="3.34465">
        <ele>225</ele>
        <time>2016-07-20T16:42:38Z</time>
      </trkpt>
      <trkpt lat="43.53851" lon="3.34456">
        <ele>223.2</ele>
        <time>2016-07-20T16:42:39Z</time>
      </trkpt>
      <trkpt lat="43.53847" lon="3.34439">
        <ele>220</ele>
        <time>2016-07-20T16:42:41Z</time>
      </trkpt>
      <trkpt lat="43.53845" lon="3.34422">
        <ele>218</ele>
        <time>2016-07-20T16:42:43Z</time>
      </trkpt>
      <trkpt lat="43.53844" lon="3.34404">
        <ele>216.4</ele>
        <time>2016-07-20T16:42:45Z</time>
      </trkpt>
      <trkpt lat="43.53843" lon="3.34391">
        <ele>216.3</ele>
        <time>2016-07-20T16:42:47Z</time>
      </trkpt>
      <trkpt lat="43.53844" lon="3.34378">
        <ele>216.5</ele>
        <time>2016-07-20T16:42:49Z</time>
      </trkpt>
      <trkpt lat="43.53844" lon="3.34365">
        <ele>215.5</ele>
        <time>2016-07-20T16:42:51Z</time>
      </trkpt>
      <trkpt lat="43.53843" lon="3.34352">
        <ele>213.8</ele>
        <time>2016-07-20T16:42:53Z</time>
      </trkpt>
      <trkpt lat="43.53839" lon="3.34337">
        <ele>213.4</ele>
        <time>2016-07-20T16:42:56Z</time>
      </trkpt>
      <trkpt lat="43.53839" lon="3.34325">
        <ele>213.1</ele>
        <time>2016-07-20T16:42:59Z</time>
      </trkpt>
      <trkpt lat="43.53836" lon="3.34314">
        <ele>212.9</ele>
        <time>2016-07-20T16:43:02Z</time>
      </trkpt>
      <trkpt lat="43.5383" lon="3.34308">
        <ele>212.7</ele>
        <time>2016-07-20T16:43:04Z</time>
      </trkpt>
      <trkpt lat="43.53824" lon="3.34296">
        <ele>210</ele>
        <time>2016-07-20T16:43:07Z</time>
      </trkpt>
      <trkpt lat="43.53824" lon="3.34282">
        <ele>207.4</ele>
        <time>2016-07-20T16:43:09Z</time>
      </trkpt>
      <trkpt lat="43.53824" lon="3.34271">
        <ele>206.6</ele>
        <time>2016-07-20T16:43:11Z</time>
      </trkpt>
      <trkpt lat="43.53824" lon="3.34256">
        <ele>204.6</ele>
        <time>2016-07-20T16:43:13Z</time>
      </trkpt>
      <trkpt lat="43.53819" lon="3.34244">
        <ele>202.7</ele>
        <time>2016-07-20T16:43:15Z</time>
      </trkpt>
      <trkpt lat="43.53814" lon="3.34233">
        <ele>200.7</ele>
        <time>2016-07-20T16:43:17Z</time>
      </trkpt>
      <trkpt lat="43.53807" lon="3.34225">
        <ele>200.3</ele>
        <time>2016-07-20T16:43:20Z</time>
      </trkpt>
      <trkpt lat="43.538" lon="3.3422">
        <ele>199.1</ele>
        <time>2016-07-20T16:43:22Z</time>
      </trkpt>
      <trkpt lat="43.53792" lon="3.34216">
        <ele>198.8</ele>
        <time>2016-07-20T16:43:24Z</time>
      </trkpt>
      <trkpt lat="43.53783" lon="3.34217">
        <ele>196.7</ele>
        <time>2016-07-20T16:43:27Z</time>
      </trkpt>
      <trkpt lat="43.53776" lon="3.34221">
        <ele>194.5</ele>
        <time>2016-07-20T16:43:29Z</time>
      </trkpt>
      <trkpt lat="43.53767" lon="3.34229">
        <ele>191.9</ele>
        <time>2016-07-20T16:43:32Z</time>
      </trkpt>
      <trkpt lat="43.53759" lon="3.34229">
        <ele>191.8</ele>
        <time>2016-07-20T16:43:34Z</time>
      </trkpt>
      <trkpt lat="43.53754" lon="3.3423">
        <ele>191.6</ele>
        <time>2016-07-20T16:43:41Z</time>
      </trkpt>
      <trkpt lat="43.53746" lon="3.34231">
        <ele>191.6</ele>
        <time>2016-07-20T16:43:50Z</time>
      </trkpt>
      <trkpt lat="43.53742" lon="3.34233">
        <ele>190.8</ele>
        <time>2016-07-20T16:43:57Z</time>
      </trkpt>
      <trkpt lat="43.53726" lon="3.34234">
        <ele>190.6</ele>
        <time>2016-07-20T16:44:00Z</time>
      </trkpt>
      <trkpt lat="43.53718" lon="3.34228">
        <ele>190.4</ele>
        <time>2016-07-20T16:44:03Z</time>
      </trkpt>
      <trkpt lat="43.53709" lon="3.34224">
        <ele>188.4</ele>
        <time>2016-07-20T16:44:10Z</time>
      </trkpt>
      <trkpt lat="43.537" lon="3.34217">
        <ele>188</ele>
        <time>2016-07-20T16:44:13Z</time>
      </trkpt>
      <trkpt lat="43.53692" lon="3.34215">
        <ele>184.8</ele>
        <time>2016-07-20T16:44:58Z</time>
      </trkpt>
      <trkpt lat="43.53682" lon="3.34219">
        <ele>183.7</ele>
        <time>2016-07-20T16:45:02Z</time>
      </trkpt>
      <trkpt lat="43.53674" lon="3.34222">
        <ele>182.9</ele>
        <time>2016-07-20T16:45:05Z</time>
      </trkpt>
      <trkpt lat="43.53667" lon="3.3422">
        <ele>182.2</ele>
        <time>2016-07-20T16:45:08Z</time>
      </trkpt>
      <trkpt lat="43.53659" lon="3.34223">
        <ele>181.6</ele>
        <time>2016-07-20T16:45:11Z</time>
      </trkpt>
      <trkpt lat="43.53652" lon="3.34228">
        <ele>178.7</ele>
        <time>2016-07-20T16:45:13Z</time>
      </trkpt>
      <trkpt lat="43.53644" lon="3.34233">
        <ele>173.9</ele>
        <time>2016-07-20T16:45:15Z</time>
      </trkpt>
      <trkpt lat="43.53635" lon="3.34239">
        <ele>172.8</ele>
        <time>2016-07-20T16:45:17Z</time>
      </trkpt>
      <trkpt lat="43.53626" lon="3.34244">
        <ele>172.3</ele>
        <time>2016-07-20T16:45:19Z</time>
      </trkpt>
      <trkpt lat="43.53615" lon="3.34251">
        <ele>172</ele>
        <time>2016-07-20T16:45:21Z</time>
      </trkpt>
      <trkpt lat="43.53605" lon="3.34257">
        <ele>171.2</ele>
        <time>2016-07-20T16:45:23Z</time>
      </trkpt>
      <trkpt lat="43.53597" lon="3.34263">
        <ele>170.2</ele>
        <time>2016-07-20T16:45:25Z</time>
      </trkpt>
      <trkpt lat="43.53587" lon="3.3427">
        <ele>169.9</ele>
        <time>2016-07-20T16:45:28Z</time>
      </trkpt>
      <trkpt lat="43.53578" lon="3.34278">
        <ele>169</ele>
        <time>2016-07-20T16:45:30Z</time>
      </trkpt>
      <trkpt lat="43.53569" lon="3.34284">
        <ele>168.2</ele>
        <time>2016-07-20T16:45:32Z</time>
      </trkpt>
      <trkpt lat="43.5356" lon="3.34291">
        <ele>167.3</ele>
        <time>2016-07-20T16:45:34Z</time>
      </trkpt>
      <trkpt lat="43.53551" lon="3.34291">
        <ele>166.3</ele>
        <time>2016-07-20T16:45:36Z</time>
      </trkpt>
      <trkpt lat="43.53545" lon="3.34288">
        <ele>165.5</ele>
        <time>2016-07-20T16:45:38Z</time>
      </trkpt>
      <trkpt lat="43.53538" lon="3.34285">
        <ele>164.7</ele>
        <time>2016-07-20T16:45:40Z</time>
      </trkpt>
      <trkpt lat="43.53529" lon="3.34281">
        <ele>164.6</ele>
        <time>2016-07-20T16:45:43Z</time>
      </trkpt>
      <trkpt lat="43.53521" lon="3.34281">
        <ele>164.5</ele>
        <time>2016-07-20T16:45:46Z</time>
      </trkpt>
      <trkpt lat="43.53512" lon="3.34285">
        <ele>164.4</ele>
        <time>2016-07-20T16:45:49Z</time>
      </trkpt>
      <trkpt lat="43.53502" lon="3.3429">
        <ele>164.4</ele>
        <time>2016-07-20T16:45:52Z</time>
      </trkpt>
      <trkpt lat="43.5349" lon="3.34296">
        <ele>164.2</ele>
        <time>2016-07-20T16:45:55Z</time>
      </trkpt>
      <trkpt lat="43.53481" lon="3.343">
        <ele>164.1</ele>
        <time>2016-07-20T16:45:57Z</time>
      </trkpt>
      <trkpt lat="43.53473" lon="3.34304">
        <ele>164.1</ele>
        <time>2016-07-20T16:46:00Z</time>
      </trkpt>
      <trkpt lat="43.53468" lon="3.34317">
        <ele>163.8</ele>
        <time>2016-07-20T16:46:04Z</time>
      </trkpt>
      <trkpt lat="43.53466" lon="3.3433">
        <ele>163.5</ele>
        <time>2016-07-20T16:46:07Z</time>
      </trkpt>
      <trkpt lat="43.53464" lon="3.34344">
        <ele>163.2</ele>
        <time>2016-07-20T16:46:10Z</time>
      </trkpt>
      <trkpt lat="43.53463" lon="3.34358">
        <ele>162.9</ele>
        <time>2016-07-20T16:46:13Z</time>
      </trkpt>
      <trkpt lat="43.53461" lon="3.34373">
        <ele>162</ele>
        <time>2016-07-20T16:46:16Z</time>
      </trkpt>
      <trkpt lat="43.53456" lon="3.34385">
        <ele>161.7</ele>
        <time>2016-07-20T16:46:19Z</time>
      </trkpt>
      <trkpt lat="43.53452" lon="3.34394">
        <ele>161.6</ele>
        <time>2016-07-20T16:46:21Z</time>
      </trkpt>
      <trkpt lat="43.53448" lon="3.34405">
        <ele>161.5</ele>
        <time>2016-07-20T16:46:24Z</time>
      </trkpt>
      <trkpt lat="43.53445" lon="3.34414">
        <ele>161.4</ele>
        <time>2016-07-20T16:46:26Z</time>
      </trkpt>
      <trkpt lat="43.53441" lon="3.34425">
        <ele>161.3</ele>
        <time>2016-07-20T16:46:29Z</time>
      </trkpt>
      <trkpt lat="43.53439" lon="3.34435">
        <ele>161.2</ele>
        <time>2016-07-20T16:46:31Z</time>
      </trkpt>
      <trkpt lat="43.53436" lon="3.34449">
        <ele>161.1</ele>
        <time>2016-07-20T16:46:34Z</time>
      </trkpt>
      <trkpt lat="43.53436" lon="3.34463">
        <ele>161.1</ele>
        <time>2016-07-20T16:46:37Z</time>
      </trkpt>
      <trkpt lat="43.53436" lon="3.34474">
        <ele>161.1</ele>
        <time>2016-07-20T16:46:39Z</time>
      </trkpt>
      <trkpt lat="43.53436" lon="3.34488">
        <ele>161.1</ele>
        <time>2016-07-20T16:46:42Z</time>
      </trkpt>
      <trkpt lat="43.53436" lon="3.34499">
        <ele>161.4</ele>
        <time>2016-07-20T16:46:44Z</time>
      </trkpt>
      <trkpt lat="43.53436" lon="3.3451">
        <ele>161</ele>
        <time>2016-07-20T16:46:46Z</time>
      </trkpt>
      <trkpt lat="43.53436" lon="3.34524">
        <ele>161.2</ele>
        <time>2016-07-20T16:46:49Z</time>
      </trkpt>
      <trkpt lat="43.53436" lon="3.3454">
        <ele>161.3</ele>
        <time>2016-07-20T16:46:52Z</time>
      </trkpt>
      <trkpt lat="43.53435" lon="3.34551">
        <ele>161</ele>
        <time>2016-07-20T16:46:54Z</time>
      </trkpt>
      <trkpt lat="43.53436" lon="3.34565">
        <ele>160.5</ele>
        <time>2016-07-20T16:46:57Z</time>
      </trkpt>
      <trkpt lat="43.53435" lon="3.34576">
        <ele>160.8</ele>
        <time>2016-07-20T16:46:59Z</time>
      </trkpt>
      <trkpt lat="43.53435" lon="3.34587">
        <ele>161.1</ele>
        <time>2016-07-20T16:47:01Z</time>
      </trkpt>
      <trkpt lat="43.53436" lon="3.34602">
        <ele>161.7</ele>
        <time>2016-07-20T16:47:04Z</time>
      </trkpt>
      <trkpt lat="43.53436" lon="3.34612">
        <ele>161.7</ele>
        <time>2016-07-20T16:47:06Z</time>
      </trkpt>
      <trkpt lat="43.53435" lon="3.34624">
        <ele>161.7</ele>
        <time>2016-07-20T16:47:08Z</time>
      </trkpt>
      <trkpt lat="43.53435" lon="3.34634">
        <ele>161.2</ele>
        <time>2016-07-20T16:47:10Z</time>
      </trkpt>
      <trkpt lat="43.53434" lon="3.34646">
        <ele>160.6</ele>
        <time>2016-07-20T16:47:12Z</time>
      </trkpt>
      <trkpt lat="43.53433" lon="3.34658">
        <ele>161.2</ele>
        <time>2016-07-20T16:47:14Z</time>
      </trkpt>
      <trkpt lat="43.53432" lon="3.34669">
        <ele>161</ele>
        <time>2016-07-20T16:47:16Z</time>
      </trkpt>
      <trkpt lat="43.5343" lon="3.34679">
        <ele>161.4</ele>
        <time>2016-07-20T16:47:18Z</time>
      </trkpt>
      <trkpt lat="43.53429" lon="3.34691">
        <ele>162</ele>
        <time>2016-07-20T16:47:20Z</time>
      </trkpt>
      <trkpt lat="43.53429" lon="3.34701">
        <ele>162.1</ele>
        <time>2016-07-20T16:47:22Z</time>
      </trkpt>
      <trkpt lat="43.53428" lon="3.34712">
        <ele>162.9</ele>
        <time>2016-07-20T16:47:24Z</time>
      </trkpt>
      <trkpt lat="43.53426" lon="3.34723">
        <ele>164</ele>
        <time>2016-07-20T16:47:26Z</time>
      </trkpt>
      <trkpt lat="43.53423" lon="3.34736">
        <ele>163.9</ele>
        <time>2016-07-20T16:47:29Z</time>
      </trkpt>
      <trkpt lat="43.5342" lon="3.34746">
        <ele>163.3</ele>
        <time>2016-07-20T16:47:31Z</time>
      </trkpt>
      <trkpt lat="43.53414" lon="3.34756">
        <ele>161.9</ele>
        <time>2016-07-20T16:47:33Z</time>
      </trkpt>
      <trkpt lat="43.53407" lon="3.34769">
        <ele>163.5</ele>
        <time>2016-07-20T16:47:36Z</time>
      </trkpt>
      <trkpt lat="43.53401" lon="3.34777">
        <ele>162.7</ele>
        <time>2016-07-20T16:47:38Z</time>
      </trkpt>
      <trkpt lat="43.53395" lon="3.34785">
        <ele>162.2</ele>
        <time>2016-07-20T16:47:40Z</time>
      </trkpt>
      <trkpt lat="43.53388" lon="3.34793">
        <ele>162.6</ele>
        <time>2016-07-20T16:47:42Z</time>
      </trkpt>
      <trkpt lat="43.53381" lon="3.34802">
        <ele>163.5</ele>
        <time>2016-07-20T16:47:44Z</time>
      </trkpt>
      <trkpt lat="43.53374" lon="3.3481">
        <ele>163.4</ele>
        <time>2016-07-20T16:47:46Z</time>
      </trkpt>
      <trkpt lat="43.53367" lon="3.34819">
        <ele>163</ele>
        <time>2016-07-20T16:47:48Z</time>
      </trkpt>
      <trkpt lat="43.53361" lon="3.34826">
        <ele>162.9</ele>
        <time>2016-07-20T16:47:50Z</time>
      </trkpt>
      <trkpt lat="43.53353" lon="3.34835">
        <ele>163.4</ele>
        <time>2016-07-20T16:47:52Z</time>
      </trkpt>
      <trkpt lat="43.53346" lon="3.34845">
        <ele>164.6</ele>
        <time>2016-07-20T16:47:54Z</time>
      </trkpt>
      <trkpt lat="43.53339" lon="3.34854">
        <ele>164.9</ele>
        <time>2016-07-20T16:47:56Z</time>
      </trkpt>
      <trkpt lat="43.53333" lon="3.34862">
        <ele>164.8</ele>
        <time>2016-07-20T16:47:58Z</time>
      </trkpt>
      <trkpt lat="43.53326" lon="3.3487">
        <ele>165.5</ele>
        <time>2016-07-20T16:48:00Z</time>
      </trkpt>
      <trkpt lat="43.5332" lon="3.3488">
        <ele>165.4</ele>
        <time>2016-07-20T16:48:02Z</time>
      </trkpt>
      <trkpt lat="43.53312" lon="3.34888">
        <ele>165.3</ele>
        <time>2016-07-20T16:48:04Z</time>
      </trkpt>
      <trkpt lat="43.53306" lon="3.34897">
        <ele>164.8</ele>
        <time>2016-07-20T16:48:06Z</time>
      </trkpt>
      <trkpt lat="43.533" lon="3.34905">
        <ele>163.8</ele>
        <time>2016-07-20T16:48:08Z</time>
      </trkpt>
      <trkpt lat="43.53293" lon="3.34913">
        <ele>163.1</ele>
        <time>2016-07-20T16:48:10Z</time>
      </trkpt>
      <trkpt lat="43.53286" lon="3.34921">
        <ele>163.7</ele>
        <time>2016-07-20T16:48:12Z</time>
      </trkpt>
      <trkpt lat="43.5328" lon="3.34929">
        <ele>163.6</ele>
        <time>2016-07-20T16:48:14Z</time>
      </trkpt>
      <trkpt lat="43.53272" lon="3.34939">
        <ele>164.1</ele>
        <time>2016-07-20T16:48:16Z</time>
      </trkpt>
      <trkpt lat="43.53265" lon="3.34948">
        <ele>163.5</ele>
        <time>2016-07-20T16:48:18Z</time>
      </trkpt>
      <trkpt lat="43.53259" lon="3.34955">
        <ele>163.3</ele>
        <time>2016-07-20T16:48:20Z</time>
      </trkpt>
      <trkpt lat="43.53253" lon="3.34964">
        <ele>162.7</ele>
        <time>2016-07-20T16:48:22Z</time>
      </trkpt>
      <trkpt lat="43.53247" lon="3.34972">
        <ele>162.9</ele>
        <time>2016-07-20T16:48:24Z</time>
      </trkpt>
      <trkpt lat="43.53241" lon="3.34981">
        <ele>163.7</ele>
        <time>2016-07-20T16:48:26Z</time>
      </trkpt>
      <trkpt lat="43.53234" lon="3.34989">
        <ele>163.4</ele>
        <time>2016-07-20T16:48:28Z</time>
      </trkpt>
      <trkpt lat="43.53227" lon="3.34998">
        <ele>162.6</ele>
        <time>2016-07-20T16:48:30Z</time>
      </trkpt>
      <trkpt lat="43.53221" lon="3.35006">
        <ele>161.8</ele>
        <time>2016-07-20T16:48:32Z</time>
      </trkpt>
      <trkpt lat="43.53215" lon="3.35013">
        <ele>160.7</ele>
        <time>2016-07-20T16:48:34Z</time>
      </trkpt>
      <trkpt lat="43.53208" lon="3.35023">
        <ele>159.4</ele>
        <time>2016-07-20T16:48:36Z</time>
      </trkpt>
      <trkpt lat="43.53202" lon="3.35031">
        <ele>158.6</ele>
        <time>2016-07-20T16:48:38Z</time>
      </trkpt>
      <trkpt lat="43.53196" lon="3.35039">
        <ele>158.1</ele>
        <time>2016-07-20T16:48:40Z</time>
      </trkpt>
      <trkpt lat="43.5319" lon="3.35046">
        <ele>157.8</ele>
        <time>2016-07-20T16:48:42Z</time>
      </trkpt>
      <trkpt lat="43.53184" lon="3.35054">
        <ele>157.4</ele>
        <time>2016-07-20T16:48:44Z</time>
      </trkpt>
      <trkpt lat="43.53178" lon="3.35061">
        <ele>157.7</ele>
        <time>2016-07-20T16:48:46Z</time>
      </trkpt>
      <trkpt lat="43.53172" lon="3.35068">
        <ele>158</ele>
        <time>2016-07-20T16:48:48Z</time>
      </trkpt>
      <trkpt lat="43.53166" lon="3.35077">
        <ele>159.7</ele>
        <time>2016-07-20T16:48:50Z</time>
      </trkpt>
      <trkpt lat="43.53159" lon="3.35086">
        <ele>160.2</ele>
        <time>2016-07-20T16:48:52Z</time>
      </trkpt>
      <trkpt lat="43.53153" lon="3.35093">
        <ele>160.7</ele>
        <time>2016-07-20T16:48:54Z</time>
      </trkpt>
      <trkpt lat="43.53148" lon="3.351">
        <ele>160.6</ele>
        <time>2016-07-20T16:48:56Z</time>
      </trkpt>
      <trkpt lat="43.53139" lon="3.35111">
        <ele>160.7</ele>
        <time>2016-07-20T16:48:59Z</time>
      </trkpt>
      <trkpt lat="43.53133" lon="3.3512">
        <ele>161.8</ele>
        <time>2016-07-20T16:49:01Z</time>
      </trkpt>
      <trkpt lat="43.53126" lon="3.3513">
        <ele>161.9</ele>
        <time>2016-07-20T16:49:04Z</time>
      </trkpt>
      <trkpt lat="43.53121" lon="3.35142">
        <ele>161.9</ele>
        <time>2016-07-20T16:49:07Z</time>
      </trkpt>
      <trkpt lat="43.53118" lon="3.35152">
        <ele>162</ele>
        <time>2016-07-20T16:49:09Z</time>
      </trkpt>
      <trkpt lat="43.53117" lon="3.35163">
        <ele>162</ele>
        <time>2016-07-20T16:49:11Z</time>
      </trkpt>
      <trkpt lat="43.53119" lon="3.35175">
        <ele>162.1</ele>
        <time>2016-07-20T16:49:14Z</time>
      </trkpt>
      <trkpt lat="43.53121" lon="3.35189">
        <ele>162</ele>
        <time>2016-07-20T16:49:17Z</time>
      </trkpt>
      <trkpt lat="43.53125" lon="3.35203">
        <ele>162</ele>
        <time>2016-07-20T16:49:20Z</time>
      </trkpt>
      <trkpt lat="43.53127" lon="3.35218">
        <ele>161.9</ele>
        <time>2016-07-20T16:49:23Z</time>
      </trkpt>
      <trkpt lat="43.53129" lon="3.35229">
        <ele>161.9</ele>
        <time>2016-07-20T16:49:26Z</time>
      </trkpt>
      <trkpt lat="43.5313" lon="3.35239">
        <ele>161.9</ele>
        <time>2016-07-20T16:49:28Z</time>
      </trkpt>
      <trkpt lat="43.5313" lon="3.35252">
        <ele>162</ele>
        <time>2016-07-20T16:49:30Z</time>
      </trkpt>
      <trkpt lat="43.53129" lon="3.35262">
        <ele>162.1</ele>
        <time>2016-07-20T16:49:32Z</time>
      </trkpt>
      <trkpt lat="43.53127" lon="3.35275">
        <ele>162.4</ele>
        <time>2016-07-20T16:49:35Z</time>
      </trkpt>
      <trkpt lat="43.53123" lon="3.35288">
        <ele>162.5</ele>
        <time>2016-07-20T16:49:38Z</time>
      </trkpt>
      <trkpt lat="43.53119" lon="3.35297">
        <ele>162.5</ele>
        <time>2016-07-20T16:49:41Z</time>
      </trkpt>
      <trkpt lat="43.53114" lon="3.35307">
        <ele>162.5</ele>
        <time>2016-07-20T16:49:44Z</time>
      </trkpt>
      <trkpt lat="43.53109" lon="3.35316">
        <ele>162.7</ele>
        <time>2016-07-20T16:49:46Z</time>
      </trkpt>
      <trkpt lat="43.53103" lon="3.35327">
        <ele>162.9</ele>
        <time>2016-07-20T16:49:49Z</time>
      </trkpt>
      <trkpt lat="43.53098" lon="3.35336">
        <ele>163.2</ele>
        <time>2016-07-20T16:49:52Z</time>
      </trkpt>
      <trkpt lat="43.53091" lon="3.35347">
        <ele>163.5</ele>
        <time>2016-07-20T16:49:55Z</time>
      </trkpt>
      <trkpt lat="43.53085" lon="3.35358">
        <ele>163.8</ele>
        <time>2016-07-20T16:49:58Z</time>
      </trkpt>
      <trkpt lat="43.53081" lon="3.35366">
        <ele>164</ele>
        <time>2016-07-20T16:50:00Z</time>
      </trkpt>
      <trkpt lat="43.53074" lon="3.35378">
        <ele>164.2</ele>
        <time>2016-07-20T16:50:03Z</time>
      </trkpt>
      <trkpt lat="43.53069" lon="3.35387">
        <ele>164.4</ele>
        <time>2016-07-20T16:50:05Z</time>
      </trkpt>
      <trkpt lat="43.53064" lon="3.35397">
        <ele>164.5</ele>
        <time>2016-07-20T16:50:08Z</time>
      </trkpt>
      <trkpt lat="43.53058" lon="3.35407">
        <ele>164.9</ele>
        <time>2016-07-20T16:50:11Z</time>
      </trkpt>
      <trkpt lat="43.53053" lon="3.35416">
        <ele>165</ele>
        <time>2016-07-20T16:50:14Z</time>
      </trkpt>
      <trkpt lat="43.53047" lon="3.35426">
        <ele>165.4</ele>
        <time>2016-07-20T16:50:17Z</time>
      </trkpt>
      <trkpt lat="43.53042" lon="3.35435">
        <ele>165.8</ele>
        <time>2016-07-20T16:50:19Z</time>
      </trkpt>
      <trkpt lat="43.53036" lon="3.35445">
        <ele>166.2</ele>
        <time>2016-07-20T16:50:22Z</time>
      </trkpt>
      <trkpt lat="43.53031" lon="3.35455">
        <ele>166.8</ele>
        <time>2016-07-20T16:50:25Z</time>
      </trkpt>
      <trkpt lat="43.53026" lon="3.35464">
        <ele>167</ele>
        <time>2016-07-20T16:50:28Z</time>
      </trkpt>
      <trkpt lat="43.53022" lon="3.35472">
        <ele>167.2</ele>
        <time>2016-07-20T16:50:30Z</time>
      </trkpt>
      <trkpt lat="43.53018" lon="3.35484">
        <ele>167.3</ele>
        <time>2016-07-20T16:50:33Z</time>
      </trkpt>
      <trkpt lat="43.53017" lon="3.35495">
        <ele>167.3</ele>
        <time>2016-07-20T16:50:36Z</time>
      </trkpt>
      <trkpt lat="43.53016" lon="3.35506">
        <ele>167.4</ele>
        <time>2016-07-20T16:50:38Z</time>
      </trkpt>
      <trkpt lat="43.53016" lon="3.35519">
        <ele>167.6</ele>
        <time>2016-07-20T16:50:41Z</time>
      </trkpt>
      <trkpt lat="43.53017" lon="3.35532">
        <ele>167.8</ele>
        <time>2016-07-20T16:50:44Z</time>
      </trkpt>
      <trkpt lat="43.53017" lon="3.35544">
        <ele>167.9</ele>
        <time>2016-07-20T16:50:47Z</time>
      </trkpt>
      <trkpt lat="43.53016" lon="3.35558">
        <ele>168.2</ele>
        <time>2016-07-20T16:50:50Z</time>
      </trkpt>
      <trkpt lat="43.53015" lon="3.35569">
        <ele>168.4</ele>
        <time>2016-07-20T16:50:53Z</time>
      </trkpt>
      <trkpt lat="43.53016" lon="3.35581">
        <ele>168.7</ele>
        <time>2016-07-20T16:50:56Z</time>
      </trkpt>
      <trkpt lat="43.53016" lon="3.35594">
        <ele>169</ele>
        <time>2016-07-20T16:50:59Z</time>
      </trkpt>
      <trkpt lat="43.53015" lon="3.35605">
        <ele>169.2</ele>
        <time>2016-07-20T16:51:01Z</time>
      </trkpt>
      <trkpt lat="43.53017" lon="3.35618">
        <ele>169.7</ele>
        <time>2016-07-20T16:51:04Z</time>
      </trkpt>
      <trkpt lat="43.53018" lon="3.35629">
        <ele>170.1</ele>
        <time>2016-07-20T16:51:07Z</time>
      </trkpt>
      <trkpt lat="43.53018" lon="3.35644">
        <ele>170.5</ele>
        <time>2016-07-20T16:51:10Z</time>
      </trkpt>
      <trkpt lat="43.53018" lon="3.35656">
        <ele>170.8</ele>
        <time>2016-07-20T16:51:13Z</time>
      </trkpt>
      <trkpt lat="43.53018" lon="3.35669">
        <ele>171.1</ele>
        <time>2016-07-20T16:51:16Z</time>
      </trkpt>
      <trkpt lat="43.5302" lon="3.35681">
        <ele>171.4</ele>
        <time>2016-07-20T16:51:19Z</time>
      </trkpt>
      <trkpt lat="43.5302" lon="3.35692">
        <ele>171.9</ele>
        <time>2016-07-20T16:51:22Z</time>
      </trkpt>
      <trkpt lat="43.5302" lon="3.35704">
        <ele>172.6</ele>
        <time>2016-07-20T16:51:26Z</time>
      </trkpt>
      <trkpt lat="43.5302" lon="3.35717">
        <ele>173.1</ele>
        <time>2016-07-20T16:51:29Z</time>
      </trkpt>
      <trkpt lat="43.5302" lon="3.35729">
        <ele>173.6</ele>
        <time>2016-07-20T16:51:32Z</time>
      </trkpt>
      <trkpt lat="43.53019" lon="3.35741">
        <ele>174.1</ele>
        <time>2016-07-20T16:51:35Z</time>
      </trkpt>
      <trkpt lat="43.53019" lon="3.35753">
        <ele>174.6</ele>
        <time>2016-07-20T16:51:38Z</time>
      </trkpt>
      <trkpt lat="43.53018" lon="3.35766">
        <ele>174.9</ele>
        <time>2016-07-20T16:51:41Z</time>
      </trkpt>
      <trkpt lat="43.53018" lon="3.35778">
        <ele>175.2</ele>
        <time>2016-07-20T16:51:44Z</time>
      </trkpt>
      <trkpt lat="43.53016" lon="3.3579">
        <ele>175.5</ele>
        <time>2016-07-20T16:51:47Z</time>
      </trkpt>
      <trkpt lat="43.53015" lon="3.35802">
        <ele>175.9</ele>
        <time>2016-07-20T16:51:50Z</time>
      </trkpt>
      <trkpt lat="43.53011" lon="3.35815">
        <ele>176.7</ele>
        <time>2016-07-20T16:51:54Z</time>
      </trkpt>
      <trkpt lat="43.53007" lon="3.35823">
        <ele>177.3</ele>
        <time>2016-07-20T16:51:57Z</time>
      </trkpt>
      <trkpt lat="43.53002" lon="3.35832">
        <ele>177.9</ele>
        <time>2016-07-20T16:52:00Z</time>
      </trkpt>
      <trkpt lat="43.52996" lon="3.35841">
        <ele>178.6</ele>
        <time>2016-07-20T16:52:03Z</time>
      </trkpt>
      <trkpt lat="43.52987" lon="3.3585">
        <ele>179</ele>
        <time>2016-07-20T16:52:06Z</time>
      </trkpt>
      <trkpt lat="43.5298" lon="3.35857">
        <ele>179.6</ele>
        <time>2016-07-20T16:52:09Z</time>
      </trkpt>
      <trkpt lat="43.52973" lon="3.35864">
        <ele>180.2</ele>
        <time>2016-07-20T16:52:12Z</time>
      </trkpt>
      <trkpt lat="43.52965" lon="3.35872">
        <ele>180.8</ele>
        <time>2016-07-20T16:52:15Z</time>
      </trkpt>
      <trkpt lat="43.52959" lon="3.3588">
        <ele>181.5</ele>
        <time>2016-07-20T16:52:18Z</time>
      </trkpt>
      <trkpt lat="43.52955" lon="3.35889">
        <ele>182</ele>
        <time>2016-07-20T16:52:21Z</time>
      </trkpt>
      <trkpt lat="43.52953" lon="3.359">
        <ele>182.4</ele>
        <time>2016-07-20T16:52:24Z</time>
      </trkpt>
      <trkpt lat="43.52953" lon="3.35911">
        <ele>183.2</ele>
        <time>2016-07-20T16:52:28Z</time>
      </trkpt>
      <trkpt lat="43.52954" lon="3.35922">
        <ele>183.8</ele>
        <time>2016-07-20T16:52:31Z</time>
      </trkpt>
      <trkpt lat="43.52958" lon="3.35934">
        <ele>184.7</ele>
        <time>2016-07-20T16:52:34Z</time>
      </trkpt>
      <trkpt lat="43.52962" lon="3.35944">
        <ele>185.4</ele>
        <time>2016-07-20T16:52:37Z</time>
      </trkpt>
      <trkpt lat="43.52966" lon="3.35953">
        <ele>185.9</ele>
        <time>2016-07-20T16:52:39Z</time>
      </trkpt>
      <trkpt lat="43.5297" lon="3.35963">
        <ele>186.6</ele>
        <time>2016-07-20T16:52:42Z</time>
      </trkpt>
      <trkpt lat="43.52975" lon="3.35971">
        <ele>187.3</ele>
        <time>2016-07-20T16:52:45Z</time>
      </trkpt>
      <trkpt lat="43.52981" lon="3.35982">
        <ele>187.8</ele>
        <time>2016-07-20T16:52:48Z</time>
      </trkpt>
      <trkpt lat="43.52985" lon="3.35992">
        <ele>188.3</ele>
        <time>2016-07-20T16:52:51Z</time>
      </trkpt>
      <trkpt lat="43.5299" lon="3.36001">
        <ele>189</ele>
        <time>2016-07-20T16:52:54Z</time>
      </trkpt>
      <trkpt lat="43.52995" lon="3.36012">
        <ele>189.6</ele>
        <time>2016-07-20T16:52:57Z</time>
      </trkpt>
      <trkpt lat="43.53" lon="3.36023">
        <ele>190.2</ele>
        <time>2016-07-20T16:53:00Z</time>
      </trkpt>
      <trkpt lat="43.53005" lon="3.36033">
        <ele>190.7</ele>
        <time>2016-07-20T16:53:03Z</time>
      </trkpt>
      <trkpt lat="43.5301" lon="3.36043">
        <ele>191.1</ele>
        <time>2016-07-20T16:53:06Z</time>
      </trkpt>
      <trkpt lat="43.53015" lon="3.36052">
        <ele>191.5</ele>
        <time>2016-07-20T16:53:09Z</time>
      </trkpt>
      <trkpt lat="43.5302" lon="3.36062">
        <ele>191.8</ele>
        <time>2016-07-20T16:53:12Z</time>
      </trkpt>
      <trkpt lat="43.53025" lon="3.36073">
        <ele>192.3</ele>
        <time>2016-07-20T16:53:15Z</time>
      </trkpt>
      <trkpt lat="43.5303" lon="3.36082">
        <ele>192.6</ele>
        <time>2016-07-20T16:53:18Z</time>
      </trkpt>
      <trkpt lat="43.53035" lon="3.36093">
        <ele>193</ele>
        <time>2016-07-20T16:53:21Z</time>
      </trkpt>
      <trkpt lat="43.53039" lon="3.36101">
        <ele>193.3</ele>
        <time>2016-07-20T16:53:23Z</time>
      </trkpt>
      <trkpt lat="43.53044" lon="3.36111">
        <ele>193.6</ele>
        <time>2016-07-20T16:53:26Z</time>
      </trkpt>
      <trkpt lat="43.53049" lon="3.36121">
        <ele>193.9</ele>
        <time>2016-07-20T16:53:29Z</time>
      </trkpt>
      <trkpt lat="43.53054" lon="3.36131">
        <ele>194.4</ele>
        <time>2016-07-20T16:53:32Z</time>
      </trkpt>
      <trkpt lat="43.5306" lon="3.36142">
        <ele>194.9</ele>
        <time>2016-07-20T16:53:35Z</time>
      </trkpt>
      <trkpt lat="43.53065" lon="3.36154">
        <ele>195.5</ele>
        <time>2016-07-20T16:53:38Z</time>
      </trkpt>
      <trkpt lat="43.5307" lon="3.36164">
        <ele>196</ele>
        <time>2016-07-20T16:53:41Z</time>
      </trkpt>
      <trkpt lat="43.53077" lon="3.36175">
        <ele>196.6</ele>
        <time>2016-07-20T16:53:44Z</time>
      </trkpt>
      <trkpt lat="43.53085" lon="3.36183">
        <ele>197.1</ele>
        <time>2016-07-20T16:53:47Z</time>
      </trkpt>
      <trkpt lat="43.53095" lon="3.36188">
        <ele>197.7</ele>
        <time>2016-07-20T16:53:50Z</time>
      </trkpt>
      <trkpt lat="43.53105" lon="3.3619">
        <ele>198.2</ele>
        <time>2016-07-20T16:53:53Z</time>
      </trkpt>
      <trkpt lat="43.53115" lon="3.36189">
        <ele>198.7</ele>
        <time>2016-07-20T16:53:56Z</time>
      </trkpt>
      <trkpt lat="43.53123" lon="3.36185">
        <ele>199.2</ele>
        <time>2016-07-20T16:53:59Z</time>
      </trkpt>
      <trkpt lat="43.53131" lon="3.36179">
        <ele>199.8</ele>
        <time>2016-07-20T16:54:02Z</time>
      </trkpt>
      <trkpt lat="43.53138" lon="3.36171">
        <ele>200.5</ele>
        <time>2016-07-20T16:54:05Z</time>
      </trkpt>
      <trkpt lat="43.53146" lon="3.36164">
        <ele>201.2</ele>
        <time>2016-07-20T16:54:09Z</time>
      </trkpt>
      <trkpt lat="43.53153" lon="3.36159">
        <ele>201.4</ele>
        <time>2016-07-20T16:54:11Z</time>
      </trkpt>
      <trkpt lat="43.53161" lon="3.36153">
        <ele>202</ele>
        <time>2016-07-20T16:54:14Z</time>
      </trkpt>
      <trkpt lat="43.53169" lon="3.36147">
        <ele>202.6</ele>
        <time>2016-07-20T16:54:17Z</time>
      </trkpt>
      <trkpt lat="43.53176" lon="3.36138">
        <ele>203.1</ele>
        <time>2016-07-20T16:54:20Z</time>
      </trkpt>
      <trkpt lat="43.53184" lon="3.3613">
        <ele>203.5</ele>
        <time>2016-07-20T16:54:23Z</time>
      </trkpt>
      <trkpt lat="43.53192" lon="3.36122">
        <ele>203.9</ele>
        <time>2016-07-20T16:54:26Z</time>
      </trkpt>
      <trkpt lat="43.53199" lon="3.36115">
        <ele>204.4</ele>
        <time>2016-07-20T16:54:29Z</time>
      </trkpt>
      <trkpt lat="43.53206" lon="3.36108">
        <ele>204.8</ele>
        <time>2016-07-20T16:54:32Z</time>
      </trkpt>
      <trkpt lat="43.53212" lon="3.36103">
        <ele>205.4</ele>
        <time>2016-07-20T16:54:35Z</time>
      </trkpt>
      <trkpt lat="43.53221" lon="3.36101">
        <ele>205.7</ele>
        <time>2016-07-20T16:54:38Z</time>
      </trkpt>
      <trkpt lat="43.53228" lon="3.36104">
        <ele>206</ele>
        <time>2016-07-20T16:54:42Z</time>
      </trkpt>
      <trkpt lat="43.53235" lon="3.36106">
        <ele>206.1</ele>
        <time>2016-07-20T16:54:46Z</time>
      </trkpt>
      <trkpt lat="43.53243" lon="3.36104">
        <ele>206.2</ele>
        <time>2016-07-20T16:54:49Z</time>
      </trkpt>
      <trkpt lat="43.53247" lon="3.36101">
        <ele>205.9</ele>
        <time>2016-07-20T16:54:56Z</time>
      </trkpt>
      <trkpt lat="43.5325" lon="3.36103">
        <ele>208</ele>
        <time>2016-07-20T16:55:16Z</time>
      </trkpt>
      <trkpt lat="43.53252" lon="3.36102">
        <ele>208.1</ele>
        <time>2016-07-20T16:55:23Z</time>
      </trkpt>
      <trkpt lat="43.53256" lon="3.36099">
        <ele>208.5</ele>
        <time>2016-07-20T16:55:30Z</time>
      </trkpt>
      <trkpt lat="43.53264" lon="3.36095">
        <ele>209</ele>
        <time>2016-07-20T16:55:35Z</time>
      </trkpt>
      <trkpt lat="43.53272" lon="3.36096">
        <ele>209.2</ele>
        <time>2016-07-20T16:55:37Z</time>
      </trkpt>
      <trkpt lat="43.53283" lon="3.36102">
        <ele>210.1</ele>
        <time>2016-07-20T16:55:39Z</time>
      </trkpt>
      <trkpt lat="43.53292" lon="3.3611">
        <ele>211.3</ele>
        <time>2016-07-20T16:55:41Z</time>
      </trkpt>
      <trkpt lat="43.53304" lon="3.36117">
        <ele>212.2</ele>
        <time>2016-07-20T16:55:43Z</time>
      </trkpt>
      <trkpt lat="43.53314" lon="3.36127">
        <ele>212.6</ele>
        <time>2016-07-20T16:55:45Z</time>
      </trkpt>
      <trkpt lat="43.53319" lon="3.36135">
        <ele>212.5</ele>
        <time>2016-07-20T16:55:46Z</time>
      </trkpt>
      <trkpt lat="43.53327" lon="3.36144">
        <ele>212.4</ele>
        <time>2016-07-20T16:55:48Z</time>
      </trkpt>
      <trkpt lat="43.5333" lon="3.36147">
        <ele>211.6</ele>
        <time>2016-07-20T16:55:55Z</time>
      </trkpt>
      <trkpt lat="43.53339" lon="3.36154">
        <ele>209.3</ele>
        <time>2016-07-20T16:56:07Z</time>
      </trkpt>
      <trkpt lat="43.53343" lon="3.36167">
        <ele>208.5</ele>
        <time>2016-07-20T16:56:10Z</time>
      </trkpt>
      <trkpt lat="43.53346" lon="3.36181">
        <ele>208</ele>
        <time>2016-07-20T16:56:12Z</time>
      </trkpt>
      <trkpt lat="43.53349" lon="3.36192">
        <ele>207.3</ele>
        <time>2016-07-20T16:56:14Z</time>
      </trkpt>
      <trkpt lat="43.53355" lon="3.36201">
        <ele>203.2</ele>
        <time>2016-07-20T16:56:16Z</time>
      </trkpt>
      <trkpt lat="43.53361" lon="3.36209">
        <ele>199.1</ele>
        <time>2016-07-20T16:56:18Z</time>
      </trkpt>
      <trkpt lat="43.53366" lon="3.36217">
        <ele>195.9</ele>
        <time>2016-07-20T16:56:20Z</time>
      </trkpt>
      <trkpt lat="43.53372" lon="3.36224">
        <ele>195.5</ele>
        <time>2016-07-20T16:56:23Z</time>
      </trkpt>
      <trkpt lat="43.53376" lon="3.36236">
        <ele>195.4</ele>
        <time>2016-07-20T16:56:25Z</time>
      </trkpt>
      <trkpt lat="43.5338" lon="3.36246">
        <ele>194.2</ele>
        <time>2016-07-20T16:56:27Z</time>
      </trkpt>
      <trkpt lat="43.53385" lon="3.36257">
        <ele>194.1</ele>
        <time>2016-07-20T16:56:29Z</time>
      </trkpt>
      <trkpt lat="43.53389" lon="3.36269">
        <ele>194</ele>
        <time>2016-07-20T16:56:32Z</time>
      </trkpt>
      <trkpt lat="43.53391" lon="3.36278">
        <ele>193.7</ele>
        <time>2016-07-20T16:56:36Z</time>
      </trkpt>
      <trkpt lat="43.53389" lon="3.36289">
        <ele>193.6</ele>
        <time>2016-07-20T16:56:38Z</time>
      </trkpt>
      <trkpt lat="43.53388" lon="3.36301">
        <ele>193.4</ele>
        <time>2016-07-20T16:56:40Z</time>
      </trkpt>
      <trkpt lat="43.53387" lon="3.36315">
        <ele>192.5</ele>
        <time>2016-07-20T16:56:43Z</time>
      </trkpt>
      <trkpt lat="43.53385" lon="3.3633">
        <ele>192.2</ele>
        <time>2016-07-20T16:56:46Z</time>
      </trkpt>
      <trkpt lat="43.53382" lon="3.3634">
        <ele>192</ele>
        <time>2016-07-20T16:56:48Z</time>
      </trkpt>
      <trkpt lat="43.53376" lon="3.36351">
        <ele>190.2</ele>
        <time>2016-07-20T16:56:50Z</time>
      </trkpt>
      <trkpt lat="43.53369" lon="3.36362">
        <ele>189.8</ele>
        <time>2016-07-20T16:56:52Z</time>
      </trkpt>
      <trkpt lat="43.53363" lon="3.36374">
        <ele>189.5</ele>
        <time>2016-07-20T16:56:54Z</time>
      </trkpt>
      <trkpt lat="43.53356" lon="3.36386">
        <ele>189.2</ele>
        <time>2016-07-20T16:56:56Z</time>
      </trkpt>
      <trkpt lat="43.53353" lon="3.36397">
        <ele>190</ele>
        <time>2016-07-20T16:56:58Z</time>
      </trkpt>
      <trkpt lat="43.53356" lon="3.36409">
        <ele>189.6</ele>
        <time>2016-07-20T16:57:01Z</time>
      </trkpt>
      <trkpt lat="43.53363" lon="3.36414">
        <ele>189.1</ele>
        <time>2016-07-20T16:57:05Z</time>
      </trkpt>
      <trkpt lat="43.53371" lon="3.36424">
        <ele>188.8</ele>
        <time>2016-07-20T16:57:09Z</time>
      </trkpt>
      <trkpt lat="43.53376" lon="3.36436">
        <ele>188.6</ele>
        <time>2016-07-20T16:57:11Z</time>
      </trkpt>
      <trkpt lat="43.53378" lon="3.36451">
        <ele>188.3</ele>
        <time>2016-07-20T16:57:13Z</time>
      </trkpt>
      <trkpt lat="43.53381" lon="3.36464">
        <ele>185.3</ele>
        <time>2016-07-20T16:57:15Z</time>
      </trkpt>
      <trkpt lat="43.53382" lon="3.36481">
        <ele>182.6</ele>
        <time>2016-07-20T16:57:17Z</time>
      </trkpt>
      <trkpt lat="43.53383" lon="3.36499">
        <ele>180.7</ele>
        <time>2016-07-20T16:57:19Z</time>
      </trkpt>
      <trkpt lat="43.53384" lon="3.36511">
        <ele>179.2</ele>
        <time>2016-07-20T16:57:21Z</time>
      </trkpt>
      <trkpt lat="43.53386" lon="3.36526">
        <ele>179.2</ele>
        <time>2016-07-20T16:57:24Z</time>
      </trkpt>
      <trkpt lat="43.53387" lon="3.36536">
        <ele>179.1</ele>
        <time>2016-07-20T16:57:26Z</time>
      </trkpt>
      <trkpt lat="43.5339" lon="3.36545">
        <ele>179</ele>
        <time>2016-07-20T16:57:31Z</time>
      </trkpt>
      <trkpt lat="43.5339" lon="3.36555">
        <ele>178.8</ele>
        <time>2016-07-20T16:57:35Z</time>
      </trkpt>
      <trkpt lat="43.53392" lon="3.36567">
        <ele>178.6</ele>
        <time>2016-07-20T16:57:39Z</time>
      </trkpt>
      <trkpt lat="43.53394" lon="3.3658">
        <ele>178.4</ele>
        <time>2016-07-20T16:57:42Z</time>
      </trkpt>
      <trkpt lat="43.53397" lon="3.36594">
        <ele>178.1</ele>
        <time>2016-07-20T16:57:45Z</time>
      </trkpt>
      <trkpt lat="43.534" lon="3.36606">
        <ele>178</ele>
        <time>2016-07-20T16:57:48Z</time>
      </trkpt>
      <trkpt lat="43.53406" lon="3.36612">
        <ele>178</ele>
        <time>2016-07-20T16:57:51Z</time>
      </trkpt>
      <trkpt lat="43.53415" lon="3.36611">
        <ele>178.1</ele>
        <time>2016-07-20T16:57:56Z</time>
      </trkpt>
      <trkpt lat="43.53421" lon="3.36606">
        <ele>178.3</ele>
        <time>2016-07-20T16:58:00Z</time>
      </trkpt>
      <trkpt lat="43.53426" lon="3.36598">
        <ele>178.5</ele>
        <time>2016-07-20T16:58:03Z</time>
      </trkpt>
      <trkpt lat="43.53431" lon="3.3659">
        <ele>178.8</ele>
        <time>2016-07-20T16:58:06Z</time>
      </trkpt>
      <trkpt lat="43.53435" lon="3.36579">
        <ele>179.1</ele>
        <time>2016-07-20T16:58:10Z</time>
      </trkpt>
      <trkpt lat="43.53441" lon="3.36571">
        <ele>179.6</ele>
        <time>2016-07-20T16:58:13Z</time>
      </trkpt>
      <trkpt lat="43.53447" lon="3.36564">
        <ele>180.6</ele>
        <time>2016-07-20T16:58:18Z</time>
      </trkpt>
      <trkpt lat="43.53454" lon="3.36556">
        <ele>181.3</ele>
        <time>2016-07-20T16:58:22Z</time>
      </trkpt>
      <trkpt lat="43.53459" lon="3.36546">
        <ele>182.2</ele>
        <time>2016-07-20T16:58:26Z</time>
      </trkpt>
      <trkpt lat="43.53463" lon="3.36538">
        <ele>182.8</ele>
        <time>2016-07-20T16:58:29Z</time>
      </trkpt>
      <trkpt lat="43.53468" lon="3.36529">
        <ele>183.3</ele>
        <time>2016-07-20T16:58:32Z</time>
      </trkpt>
      <trkpt lat="43.53476" lon="3.36527">
        <ele>183.8</ele>
        <time>2016-07-20T16:58:35Z</time>
      </trkpt>
      <trkpt lat="43.53484" lon="3.36533">
        <ele>184.2</ele>
        <time>2016-07-20T16:58:38Z</time>
      </trkpt>
      <trkpt lat="43.53492" lon="3.3654">
        <ele>185.3</ele>
        <time>2016-07-20T16:58:40Z</time>
      </trkpt>
      <trkpt lat="43.53502" lon="3.36548">
        <ele>185.1</ele>
        <time>2016-07-20T16:58:42Z</time>
      </trkpt>
      <trkpt lat="43.53509" lon="3.36557">
        <ele>184.8</ele>
        <time>2016-07-20T16:58:44Z</time>
      </trkpt>
      <trkpt lat="43.53517" lon="3.36567">
        <ele>184.8</ele>
        <time>2016-07-20T16:58:46Z</time>
      </trkpt>
      <trkpt lat="43.53523" lon="3.36574">
        <ele>184.5</ele>
        <time>2016-07-20T16:58:48Z</time>
      </trkpt>
      <trkpt lat="43.53528" lon="3.36581">
        <ele>184.4</ele>
        <time>2016-07-20T16:58:52Z</time>
      </trkpt>
      <trkpt lat="43.53528" lon="3.36594">
        <ele>184.4</ele>
        <time>2016-07-20T16:58:56Z</time>
      </trkpt>
      <trkpt lat="43.53525" lon="3.36607">
        <ele>183.7</ele>
        <time>2016-07-20T16:59:00Z</time>
      </trkpt>
      <trkpt lat="43.53518" lon="3.36616">
        <ele>183.4</ele>
        <time>2016-07-20T16:59:03Z</time>
      </trkpt>
      <trkpt lat="43.53512" lon="3.36625">
        <ele>183</ele>
        <time>2016-07-20T16:59:06Z</time>
      </trkpt>
      <trkpt lat="43.53514" lon="3.36638">
        <ele>180.4</ele>
        <time>2016-07-20T16:59:27Z</time>
      </trkpt>
      <trkpt lat="43.53513" lon="3.36649">
        <ele>180</ele>
        <time>2016-07-20T16:59:32Z</time>
      </trkpt>
      <trkpt lat="43.53514" lon="3.36659">
        <ele>179.2</ele>
        <time>2016-07-20T16:59:34Z</time>
      </trkpt>
      <trkpt lat="43.53509" lon="3.36669">
        <ele>179.1</ele>
        <time>2016-07-20T16:59:36Z</time>
      </trkpt>
      <trkpt lat="43.53502" lon="3.36678">
        <ele>179.1</ele>
        <time>2016-07-20T16:59:38Z</time>
      </trkpt>
      <trkpt lat="43.53497" lon="3.36685">
        <ele>179</ele>
        <time>2016-07-20T16:59:40Z</time>
      </trkpt>
      <trkpt lat="43.53494" lon="3.36689">
        <ele>178.6</ele>
        <time>2016-07-20T16:59:47Z</time>
      </trkpt>
      <trkpt lat="43.5349" lon="3.3669">
        <ele>178.2</ele>
        <time>2016-07-20T16:59:54Z</time>
      </trkpt>
      <trkpt lat="43.53494" lon="3.367">
        <ele>177.4</ele>
        <time>2016-07-20T17:00:05Z</time>
      </trkpt>
      <trkpt lat="43.53498" lon="3.36713">
        <ele>177.2</ele>
        <time>2016-07-20T17:00:08Z</time>
      </trkpt>
      <trkpt lat="43.53502" lon="3.36726">
        <ele>177</ele>
        <time>2016-07-20T17:00:11Z</time>
      </trkpt>
      <trkpt lat="43.53506" lon="3.36738">
        <ele>176.7</ele>
        <time>2016-07-20T17:00:14Z</time>
      </trkpt>
      <trkpt lat="43.53509" lon="3.3675">
        <ele>176.5</ele>
        <time>2016-07-20T17:00:16Z</time>
      </trkpt>
      <trkpt lat="43.53514" lon="3.36762">
        <ele>176.1</ele>
        <time>2016-07-20T17:00:19Z</time>
      </trkpt>
      <trkpt lat="43.53517" lon="3.36775">
        <ele>175.9</ele>
        <time>2016-07-20T17:00:22Z</time>
      </trkpt>
      <trkpt lat="43.53521" lon="3.36787">
        <ele>175.7</ele>
        <time>2016-07-20T17:00:25Z</time>
      </trkpt>
      <trkpt lat="43.53525" lon="3.36799">
        <ele>175.4</ele>
        <time>2016-07-20T17:00:28Z</time>
      </trkpt>
      <trkpt lat="43.53529" lon="3.36813">
        <ele>175.3</ele>
        <time>2016-07-20T17:00:31Z</time>
      </trkpt>
      <trkpt lat="43.53533" lon="3.36824">
        <ele>175</ele>
        <time>2016-07-20T17:00:34Z</time>
      </trkpt>
      <trkpt lat="43.53536" lon="3.36835">
        <ele>175.1</ele>
        <time>2016-07-20T17:00:37Z</time>
      </trkpt>
      <trkpt lat="43.5354" lon="3.36845">
        <ele>175.4</ele>
        <time>2016-07-20T17:00:41Z</time>
      </trkpt>
      <trkpt lat="43.53547" lon="3.36853">
        <ele>175.7</ele>
        <time>2016-07-20T17:00:45Z</time>
      </trkpt>
      <trkpt lat="43.53555" lon="3.36861">
        <ele>175.9</ele>
        <time>2016-07-20T17:00:48Z</time>
      </trkpt>
      <trkpt lat="43.53563" lon="3.36868">
        <ele>176.2</ele>
        <time>2016-07-20T17:00:51Z</time>
      </trkpt>
      <trkpt lat="43.5357" lon="3.36873">
        <ele>176.3</ele>
        <time>2016-07-20T17:00:53Z</time>
      </trkpt>
      <trkpt lat="43.53579" lon="3.36877">
        <ele>177.7</ele>
        <time>2016-07-20T17:00:55Z</time>
      </trkpt>
      <trkpt lat="43.5359" lon="3.36883">
        <ele>177.7</ele>
        <time>2016-07-20T17:00:57Z</time>
      </trkpt>
      <trkpt lat="43.53601" lon="3.36888">
        <ele>178</ele>
        <time>2016-07-20T17:00:59Z</time>
      </trkpt>
      <trkpt lat="43.53613" lon="3.36892">
        <ele>177.3</ele>
        <time>2016-07-20T17:01:01Z</time>
      </trkpt>
      <trkpt lat="43.53623" lon="3.36897">
        <ele>176.7</ele>
        <time>2016-07-20T17:01:03Z</time>
      </trkpt>
      <trkpt lat="43.53633" lon="3.369">
        <ele>176.4</ele>
        <time>2016-07-20T17:01:05Z</time>
      </trkpt>
      <trkpt lat="43.53642" lon="3.36897">
        <ele>176.4</ele>
        <time>2016-07-20T17:01:07Z</time>
      </trkpt>
      <trkpt lat="43.53651" lon="3.36888">
        <ele>176.9</ele>
        <time>2016-07-20T17:01:10Z</time>
      </trkpt>
      <trkpt lat="43.53658" lon="3.36881">
        <ele>175.8</ele>
        <time>2016-07-20T17:01:12Z</time>
      </trkpt>
      <trkpt lat="43.53664" lon="3.36874">
        <ele>175.9</ele>
        <time>2016-07-20T17:01:14Z</time>
      </trkpt>
      <trkpt lat="43.53671" lon="3.36868">
        <ele>176</ele>
        <time>2016-07-20T17:01:16Z</time>
      </trkpt>
      <trkpt lat="43.53677" lon="3.36861">
        <ele>176.1</ele>
        <time>2016-07-20T17:01:18Z</time>
      </trkpt>
      <trkpt lat="43.53687" lon="3.36855">
        <ele>176.1</ele>
        <time>2016-07-20T17:01:21Z</time>
      </trkpt>
      <trkpt lat="43.53694" lon="3.36851">
        <ele>176.2</ele>
        <time>2016-07-20T17:01:23Z</time>
      </trkpt>
      <trkpt lat="43.53701" lon="3.36847">
        <ele>176.4</ele>
        <time>2016-07-20T17:01:25Z</time>
      </trkpt>
      <trkpt lat="43.53708" lon="3.36843">
        <ele>176.6</ele>
        <time>2016-07-20T17:01:27Z</time>
      </trkpt>
      <trkpt lat="43.53716" lon="3.3684">
        <ele>176.6</ele>
        <time>2016-07-20T17:01:29Z</time>
      </trkpt>
      <trkpt lat="43.53724" lon="3.36834">
        <ele>176.1</ele>
        <time>2016-07-20T17:01:32Z</time>
      </trkpt>
      <trkpt lat="43.53732" lon="3.36828">
        <ele>176.5</ele>
        <time>2016-07-20T17:01:34Z</time>
      </trkpt>
      <trkpt lat="43.5374" lon="3.36821">
        <ele>176.7</ele>
        <time>2016-07-20T17:01:36Z</time>
      </trkpt>
      <trkpt lat="43.53746" lon="3.36814">
        <ele>176.8</ele>
        <time>2016-07-20T17:01:39Z</time>
      </trkpt>
      <trkpt lat="43.53755" lon="3.36812">
        <ele>177</ele>
        <time>2016-07-20T17:01:43Z</time>
      </trkpt>
      <trkpt lat="43.53761" lon="3.36817">
        <ele>177</ele>
        <time>2016-07-20T17:01:47Z</time>
      </trkpt>
      <trkpt lat="43.53767" lon="3.36828">
        <ele>177.3</ele>
        <time>2016-07-20T17:01:51Z</time>
      </trkpt>
      <trkpt lat="43.53771" lon="3.36837">
        <ele>177.5</ele>
        <time>2016-07-20T17:01:54Z</time>
      </trkpt>
      <trkpt lat="43.53775" lon="3.36845">
        <ele>177.7</ele>
        <time>2016-07-20T17:01:57Z</time>
      </trkpt>
      <trkpt lat="43.5378" lon="3.36854">
        <ele>177.9</ele>
        <time>2016-07-20T17:02:01Z</time>
      </trkpt>
      <trkpt lat="43.53785" lon="3.36862">
        <ele>178.1</ele>
        <time>2016-07-20T17:02:05Z</time>
      </trkpt>
      <trkpt lat="43.53789" lon="3.36871">
        <ele>178.4</ele>
        <time>2016-07-20T17:02:09Z</time>
      </trkpt>
      <trkpt lat="43.53791" lon="3.36885">
        <ele>178.8</ele>
        <time>2016-07-20T17:02:13Z</time>
      </trkpt>
      <trkpt lat="43.53791" lon="3.36897">
        <ele>179.2</ele>
        <time>2016-07-20T17:02:17Z</time>
      </trkpt>
      <trkpt lat="43.5379" lon="3.36909">
        <ele>179.7</ele>
        <time>2016-07-20T17:02:21Z</time>
      </trkpt>
      <trkpt lat="43.53797" lon="3.36916">
        <ele>180.5</ele>
        <time>2016-07-20T17:02:26Z</time>
      </trkpt>
      <trkpt lat="43.53805" lon="3.36913">
        <ele>181.5</ele>
        <time>2016-07-20T17:02:32Z</time>
      </trkpt>
      <trkpt lat="43.53813" lon="3.36908">
        <ele>182.2</ele>
        <time>2016-07-20T17:02:37Z</time>
      </trkpt>
      <trkpt lat="43.5382" lon="3.36904">
        <ele>183.4</ele>
        <time>2016-07-20T17:02:42Z</time>
      </trkpt>
      <trkpt lat="43.53827" lon="3.369">
        <ele>184.2</ele>
        <time>2016-07-20T17:02:46Z</time>
      </trkpt>
      <trkpt lat="43.53836" lon="3.36901">
        <ele>185.3</ele>
        <time>2016-07-20T17:02:51Z</time>
      </trkpt>
      <trkpt lat="43.53842" lon="3.3691">
        <ele>186.4</ele>
        <time>2016-07-20T17:02:57Z</time>
      </trkpt>
      <trkpt lat="43.53845" lon="3.36919">
        <ele>187.4</ele>
        <time>2016-07-20T17:03:02Z</time>
      </trkpt>
      <trkpt lat="43.53847" lon="3.36932">
        <ele>188.5</ele>
        <time>2016-07-20T17:03:08Z</time>
      </trkpt>
      <trkpt lat="43.53845" lon="3.36944">
        <ele>189.4</ele>
        <time>2016-07-20T17:03:13Z</time>
      </trkpt>
      <trkpt lat="43.53843" lon="3.36956">
        <ele>190.5</ele>
        <time>2016-07-20T17:03:19Z</time>
      </trkpt>
      <trkpt lat="43.53841" lon="3.36965">
        <ele>191.5</ele>
        <time>2016-07-20T17:03:23Z</time>
      </trkpt>
      <trkpt lat="43.53843" lon="3.36972">
        <ele>192.4</ele>
        <time>2016-07-20T17:03:30Z</time>
      </trkpt>
      <trkpt lat="43.53845" lon="3.36986">
        <ele>195.4</ele>
        <time>2016-07-20T17:03:44Z</time>
      </trkpt>
      <trkpt lat="43.53848" lon="3.3699">
        <ele>197.2</ele>
        <time>2016-07-20T17:03:51Z</time>
      </trkpt>
      <trkpt lat="43.5385" lon="3.36999">
        <ele>198.5</ele>
        <time>2016-07-20T17:03:58Z</time>
      </trkpt>
      <trkpt lat="43.53853" lon="3.37009">
        <ele>199.6</ele>
        <time>2016-07-20T17:04:03Z</time>
      </trkpt>
      <trkpt lat="43.53854" lon="3.3702">
        <ele>201.4</ele>
        <time>2016-07-20T17:04:10Z</time>
      </trkpt>
      <trkpt lat="43.53854" lon="3.37031">
        <ele>202.3</ele>
        <time>2016-07-20T17:04:14Z</time>
      </trkpt>
      <trkpt lat="43.53857" lon="3.37042">
        <ele>203.3</ele>
        <time>2016-07-20T17:04:18Z</time>
      </trkpt>
      <trkpt lat="43.53858" lon="3.37055">
        <ele>204.1</ele>
        <time>2016-07-20T17:04:22Z</time>
      </trkpt>
      <trkpt lat="43.53857" lon="3.37066">
        <ele>204.6</ele>
        <time>2016-07-20T17:04:27Z</time>
      </trkpt>
      <trkpt lat="43.53856" lon="3.37077">
        <ele>205.3</ele>
        <time>2016-07-20T17:04:33Z</time>
      </trkpt>
      <trkpt lat="43.53857" lon="3.3708">
        <ele>206.9</ele>
        <time>2016-07-20T17:04:40Z</time>
      </trkpt>
      <trkpt lat="43.53862" lon="3.37088">
        <ele>208.7</ele>
        <time>2016-07-20T17:04:47Z</time>
      </trkpt>
      <trkpt lat="43.53866" lon="3.37092">
        <ele>210.6</ele>
        <time>2016-07-20T17:04:54Z</time>
      </trkpt>
      <trkpt lat="43.53869" lon="3.37098">
        <ele>211.2</ele>
        <time>2016-07-20T17:05:01Z</time>
      </trkpt>
      <trkpt lat="43.53874" lon="3.37107">
        <ele>212.2</ele>
        <time>2016-07-20T17:05:07Z</time>
      </trkpt>
      <trkpt lat="43.5388" lon="3.37114">
        <ele>213.8</ele>
        <time>2016-07-20T17:05:14Z</time>
      </trkpt>
      <trkpt lat="43.53885" lon="3.37121">
        <ele>214.5</ele>
        <time>2016-07-20T17:05:17Z</time>
      </trkpt>
      <trkpt lat="43.53891" lon="3.3713">
        <ele>215.1</ele>
        <time>2016-07-20T17:05:20Z</time>
      </trkpt>
      <trkpt lat="43.53894" lon="3.37145">
        <ele>215.6</ele>
        <time>2016-07-20T17:05:23Z</time>
      </trkpt>
      <trkpt lat="43.53895" lon="3.37158">
        <ele>217.1</ele>
        <time>2016-07-20T17:05:25Z</time>
      </trkpt>
      <trkpt lat="43.53896" lon="3.37169">
        <ele>217.2</ele>
        <time>2016-07-20T17:05:27Z</time>
      </trkpt>
      <trkpt lat="43.53889" lon="3.37174">
        <ele>217.3</ele>
        <time>2016-07-20T17:05:30Z</time>
      </trkpt>
      <trkpt lat="43.53881" lon="3.37181">
        <ele>217.4</ele>
        <time>2016-07-20T17:05:34Z</time>
      </trkpt>
      <trkpt lat="43.53875" lon="3.37186">
        <ele>217.6</ele>
        <time>2016-07-20T17:05:37Z</time>
      </trkpt>
      <trkpt lat="43.53866" lon="3.3719">
        <ele>217.8</ele>
        <time>2016-07-20T17:05:40Z</time>
      </trkpt>
      <trkpt lat="43.53858" lon="3.37194">
        <ele>218.4</ele>
        <time>2016-07-20T17:05:44Z</time>
      </trkpt>
      <trkpt lat="43.5385" lon="3.37199">
        <ele>218.7</ele>
        <time>2016-07-20T17:05:47Z</time>
      </trkpt>
      <trkpt lat="43.53842" lon="3.37203">
        <ele>218.9</ele>
        <time>2016-07-20T17:05:50Z</time>
      </trkpt>
      <trkpt lat="43.53833" lon="3.37206">
        <ele>219.1</ele>
        <time>2016-07-20T17:05:53Z</time>
      </trkpt>
      <trkpt lat="43.53825" lon="3.37211">
        <ele>219.5</ele>
        <time>2016-07-20T17:05:56Z</time>
      </trkpt>
      <trkpt lat="43.53816" lon="3.37209">
        <ele>220</ele>
        <time>2016-07-20T17:05:59Z</time>
      </trkpt>
      <trkpt lat="43.53807" lon="3.37209">
        <ele>220.6</ele>
        <time>2016-07-20T17:06:02Z</time>
      </trkpt>
      <trkpt lat="43.53798" lon="3.37205">
        <ele>221.5</ele>
        <time>2016-07-20T17:06:05Z</time>
      </trkpt>
      <trkpt lat="43.5379" lon="3.37201">
        <ele>222.3</ele>
        <time>2016-07-20T17:06:08Z</time>
      </trkpt>
      <trkpt lat="43.53781" lon="3.37196">
        <ele>223.1</ele>
        <time>2016-07-20T17:06:11Z</time>
      </trkpt>
      <trkpt lat="43.53774" lon="3.37192">
        <ele>223.8</ele>
        <time>2016-07-20T17:06:14Z</time>
      </trkpt>
      <trkpt lat="43.53765" lon="3.37191">
        <ele>224.3</ele>
        <time>2016-07-20T17:06:17Z</time>
      </trkpt>
      <trkpt lat="43.53757" lon="3.37198">
        <ele>224.9</ele>
        <time>2016-07-20T17:06:21Z</time>
      </trkpt>
      <trkpt lat="43.53751" lon="3.37205">
        <ele>224.9</ele>
        <time>2016-07-20T17:06:26Z</time>
      </trkpt>
      <trkpt lat="43.53743" lon="3.37211">
        <ele>224.8</ele>
        <time>2016-07-20T17:06:29Z</time>
      </trkpt>
      <trkpt lat="43.53736" lon="3.37217">
        <ele>224.7</ele>
        <time>2016-07-20T17:06:32Z</time>
      </trkpt>
      <trkpt lat="43.5373" lon="3.37224">
        <ele>224.5</ele>
        <time>2016-07-20T17:06:36Z</time>
      </trkpt>
      <trkpt lat="43.53721" lon="3.37232">
        <ele>223.9</ele>
        <time>2016-07-20T17:06:39Z</time>
      </trkpt>
      <trkpt lat="43.53712" lon="3.3724">
        <ele>222.4</ele>
        <time>2016-07-20T17:06:41Z</time>
      </trkpt>
      <trkpt lat="43.53705" lon="3.37247">
        <ele>221.2</ele>
        <time>2016-07-20T17:06:43Z</time>
      </trkpt>
      <trkpt lat="43.53699" lon="3.37253">
        <ele>221</ele>
        <time>2016-07-20T17:06:45Z</time>
      </trkpt>
      <trkpt lat="43.5369" lon="3.37262">
        <ele>220.9</ele>
        <time>2016-07-20T17:06:48Z</time>
      </trkpt>
      <trkpt lat="43.53683" lon="3.37268">
        <ele>220.6</ele>
        <time>2016-07-20T17:06:51Z</time>
      </trkpt>
      <trkpt lat="43.53675" lon="3.37276">
        <ele>220.7</ele>
        <time>2016-07-20T17:06:54Z</time>
      </trkpt>
      <trkpt lat="43.53667" lon="3.37283">
        <ele>220.6</ele>
        <time>2016-07-20T17:06:58Z</time>
      </trkpt>
      <trkpt lat="43.53661" lon="3.37291">
        <ele>220.4</ele>
        <time>2016-07-20T17:07:01Z</time>
      </trkpt>
      <trkpt lat="43.53656" lon="3.37301">
        <ele>220.2</ele>
        <time>2016-07-20T17:07:05Z</time>
      </trkpt>
      <trkpt lat="43.53652" lon="3.37312">
        <ele>219.9</ele>
        <time>2016-07-20T17:07:09Z</time>
      </trkpt>
      <trkpt lat="43.53647" lon="3.37326">
        <ele>219.8</ele>
        <time>2016-07-20T17:07:12Z</time>
      </trkpt>
      <trkpt lat="43.53645" lon="3.37335">
        <ele>219.7</ele>
        <time>2016-07-20T17:07:14Z</time>
      </trkpt>
      <trkpt lat="43.53638" lon="3.37348">
        <ele>219.3</ele>
        <time>2016-07-20T17:07:17Z</time>
      </trkpt>
      <trkpt lat="43.53633" lon="3.37355">
        <ele>219</ele>
        <time>2016-07-20T17:07:20Z</time>
      </trkpt>
      <trkpt lat="43.53627" lon="3.37361">
        <ele>218.8</ele>
        <time>2016-07-20T17:07:23Z</time>
      </trkpt>
      <trkpt lat="43.53623" lon="3.37371">
        <ele>218.4</ele>
        <time>2016-07-20T17:07:29Z</time>
      </trkpt>
      <trkpt lat="43.53627" lon="3.37376">
        <ele>218.3</ele>
        <time>2016-07-20T17:07:36Z</time>
      </trkpt>
      <trkpt lat="43.53625" lon="3.3738">
        <ele>218.3</ele>
        <time>2016-07-20T17:07:43Z</time>
      </trkpt>
      <trkpt lat="43.53633" lon="3.37382">
        <ele>217.8</ele>
        <time>2016-07-20T17:08:04Z</time>
      </trkpt>
      <trkpt lat="43.53644" lon="3.37381">
        <ele>217.3</ele>
        <time>2016-07-20T17:08:06Z</time>
      </trkpt>
      <trkpt lat="43.53654" lon="3.37382">
        <ele>217.3</ele>
        <time>2016-07-20T17:08:08Z</time>
      </trkpt>
      <trkpt lat="43.53661" lon="3.37383">
        <ele>217.2</ele>
        <time>2016-07-20T17:08:10Z</time>
      </trkpt>
      <trkpt lat="43.53668" lon="3.37385">
        <ele>217</ele>
        <time>2016-07-20T17:08:12Z</time>
      </trkpt>
      <trkpt lat="43.53677" lon="3.37391">
        <ele>216.6</ele>
        <time>2016-07-20T17:08:15Z</time>
      </trkpt>
      <trkpt lat="43.53683" lon="3.37404">
        <ele>216.2</ele>
        <time>2016-07-20T17:08:18Z</time>
      </trkpt>
      <trkpt lat="43.53687" lon="3.37414">
        <ele>215.7</ele>
        <time>2016-07-20T17:08:20Z</time>
      </trkpt>
      <trkpt lat="43.53687" lon="3.37425">
        <ele>214</ele>
        <time>2016-07-20T17:08:26Z</time>
      </trkpt>
      <trkpt lat="43.53687" lon="3.37436">
        <ele>212.9</ele>
        <time>2016-07-20T17:08:30Z</time>
      </trkpt>
      <trkpt lat="43.53685" lon="3.37451">
        <ele>208.1</ele>
        <time>2016-07-20T17:08:34Z</time>
      </trkpt>
      <trkpt lat="43.53684" lon="3.37462">
        <ele>205</ele>
        <time>2016-07-20T17:08:36Z</time>
      </trkpt>
      <trkpt lat="43.53678" lon="3.37474">
        <ele>201.9</ele>
        <time>2016-07-20T17:08:38Z</time>
      </trkpt>
      <trkpt lat="43.53676" lon="3.37487">
        <ele>201.6</ele>
        <time>2016-07-20T17:08:40Z</time>
      </trkpt>
      <trkpt lat="43.53672" lon="3.37499">
        <ele>201.2</ele>
        <time>2016-07-20T17:08:43Z</time>
      </trkpt>
      <trkpt lat="43.53669" lon="3.37509">
        <ele>199.5</ele>
        <time>2016-07-20T17:08:45Z</time>
      </trkpt>
      <trkpt lat="43.53665" lon="3.37517">
        <ele>199.4</ele>
        <time>2016-07-20T17:08:47Z</time>
      </trkpt>
      <trkpt lat="43.5366" lon="3.37518">
        <ele>198.3</ele>
        <time>2016-07-20T17:08:54Z</time>
      </trkpt>
      <trkpt lat="43.53658" lon="3.37522">
        <ele>197.4</ele>
        <time>2016-07-20T17:09:01Z</time>
      </trkpt>
      <trkpt lat="43.53654" lon="3.37525">
        <ele>196.7</ele>
        <time>2016-07-20T17:09:08Z</time>
      </trkpt>
      <trkpt lat="43.53647" lon="3.3753">
        <ele>196.7</ele>
        <time>2016-07-20T17:09:13Z</time>
      </trkpt>
      <trkpt lat="43.5364" lon="3.37536">
        <ele>196.7</ele>
        <time>2016-07-20T17:09:16Z</time>
      </trkpt>
      <trkpt lat="43.53635" lon="3.37542">
        <ele>196.3</ele>
        <time>2016-07-20T17:09:19Z</time>
      </trkpt>
      <trkpt lat="43.5363" lon="3.37551">
        <ele>195.8</ele>
        <time>2016-07-20T17:09:25Z</time>
      </trkpt>
      <trkpt lat="43.5363" lon="3.37556">
        <ele>195</ele>
        <time>2016-07-20T17:09:32Z</time>
      </trkpt>
      <trkpt lat="43.5363" lon="3.37561">
        <ele>193.5</ele>
        <time>2016-07-20T17:09:39Z</time>
      </trkpt>
      <trkpt lat="43.53639" lon="3.37565">
        <ele>192.9</ele>
        <time>2016-07-20T17:09:43Z</time>
      </trkpt>
      <trkpt lat="43.53645" lon="3.37571">
        <ele>192.1</ele>
        <time>2016-07-20T17:09:46Z</time>
      </trkpt>
      <trkpt lat="43.53654" lon="3.37572">
        <ele>191.7</ele>
        <time>2016-07-20T17:09:49Z</time>
      </trkpt>
      <trkpt lat="43.53664" lon="3.37568">
        <ele>191.2</ele>
        <time>2016-07-20T17:09:52Z</time>
      </trkpt>
      <trkpt lat="43.53672" lon="3.37566">
        <ele>190.8</ele>
        <time>2016-07-20T17:09:54Z</time>
      </trkpt>
      <trkpt lat="43.53683" lon="3.37568">
        <ele>190.3</ele>
        <time>2016-07-20T17:09:57Z</time>
      </trkpt>
      <trkpt lat="43.53686" lon="3.3758">
        <ele>189.8</ele>
        <time>2016-07-20T17:09:59Z</time>
      </trkpt>
      <trkpt lat="43.53687" lon="3.37593">
        <ele>185.4</ele>
        <time>2016-07-20T17:10:01Z</time>
      </trkpt>
      <trkpt lat="43.53686" lon="3.37609">
        <ele>181.6</ele>
        <time>2016-07-20T17:10:03Z</time>
      </trkpt>
      <trkpt lat="43.53682" lon="3.37622">
        <ele>179.3</ele>
        <time>2016-07-20T17:10:05Z</time>
      </trkpt>
      <trkpt lat="43.53682" lon="3.37632">
        <ele>174</ele>
        <time>2016-07-20T17:10:07Z</time>
      </trkpt>
      <trkpt lat="43.53689" lon="3.37643">
        <ele>169.2</ele>
        <time>2016-07-20T17:10:09Z</time>
      </trkpt>
      <trkpt lat="43.53692" lon="3.37652">
        <ele>166.9</ele>
        <time>2016-07-20T17:10:10Z</time>
      </trkpt>
      <trkpt lat="43.53696" lon="3.37663">
        <ele>164.4</ele>
        <time>2016-07-20T17:10:11Z</time>
      </trkpt>
      <trkpt lat="43.53701" lon="3.3768">
        <ele>160.5</ele>
        <time>2016-07-20T17:10:13Z</time>
      </trkpt>
      <trkpt lat="43.53706" lon="3.37688">
        <ele>158.9</ele>
        <time>2016-07-20T17:10:15Z</time>
      </trkpt>
      <trkpt lat="43.53716" lon="3.37694">
        <ele>156.9</ele>
        <time>2016-07-20T17:10:17Z</time>
      </trkpt>
      <trkpt lat="43.53727" lon="3.37704">
        <ele>154.7</ele>
        <time>2016-07-20T17:10:19Z</time>
      </trkpt>
      <trkpt lat="43.53733" lon="3.37709">
        <ele>153.8</ele>
        <time>2016-07-20T17:10:20Z</time>
      </trkpt>
      <trkpt lat="43.53744" lon="3.3772">
        <ele>153.1</ele>
        <time>2016-07-20T17:10:22Z</time>
      </trkpt>
      <trkpt lat="43.5375" lon="3.37725">
        <ele>152.7</ele>
        <time>2016-07-20T17:10:23Z</time>
      </trkpt>
      <trkpt lat="43.53758" lon="3.37734">
        <ele>152.2</ele>
        <time>2016-07-20T17:10:25Z</time>
      </trkpt>
      <trkpt lat="43.53764" lon="3.37742">
        <ele>152.1</ele>
        <time>2016-07-20T17:10:28Z</time>
      </trkpt>
      <trkpt lat="43.53772" lon="3.37739">
        <ele>151.6</ele>
        <time>2016-07-20T17:10:33Z</time>
      </trkpt>
      <trkpt lat="43.5378" lon="3.37736">
        <ele>151.4</ele>
        <time>2016-07-20T17:10:36Z</time>
      </trkpt>
      <trkpt lat="43.53787" lon="3.37741">
        <ele>151.1</ele>
        <time>2016-07-20T17:10:40Z</time>
      </trkpt>
      <trkpt lat="43.53794" lon="3.37745">
        <ele>150.6</ele>
        <time>2016-07-20T17:10:44Z</time>
      </trkpt>
      <trkpt lat="43.53803" lon="3.37746">
        <ele>150.1</ele>
        <time>2016-07-20T17:10:50Z</time>
      </trkpt>
      <trkpt lat="43.53809" lon="3.37752">
        <ele>149.8</ele>
        <time>2016-07-20T17:10:55Z</time>
      </trkpt>
      <trkpt lat="43.53817" lon="3.37759">
        <ele>149</ele>
        <time>2016-07-20T17:11:02Z</time>
      </trkpt>
      <trkpt lat="43.53823" lon="3.37766">
        <ele>148.8</ele>
        <time>2016-07-20T17:11:05Z</time>
      </trkpt>
      <trkpt lat="43.5383" lon="3.37774">
        <ele>148.4</ele>
        <time>2016-07-20T17:11:09Z</time>
      </trkpt>
      <trkpt lat="43.53836" lon="3.37779">
        <ele>148.5</ele>
        <time>2016-07-20T17:11:12Z</time>
      </trkpt>
      <trkpt lat="43.53845" lon="3.37784">
        <ele>148.5</ele>
        <time>2016-07-20T17:11:15Z</time>
      </trkpt>
      <trkpt lat="43.53854" lon="3.37791">
        <ele>148.4</ele>
        <time>2016-07-20T17:11:18Z</time>
      </trkpt>
      <trkpt lat="43.53863" lon="3.37797">
        <ele>148.3</ele>
        <time>2016-07-20T17:11:21Z</time>
      </trkpt>
      <trkpt lat="43.5387" lon="3.37802">
        <ele>148.2</ele>
        <time>2016-07-20T17:11:23Z</time>
      </trkpt>
      <trkpt lat="43.53878" lon="3.37807">
        <ele>148.1</ele>
        <time>2016-07-20T17:11:26Z</time>
      </trkpt>
      <trkpt lat="43.53885" lon="3.37811">
        <ele>147.9</ele>
        <time>2016-07-20T17:11:29Z</time>
      </trkpt>
      <trkpt lat="43.53893" lon="3.37817">
        <ele>148</ele>
        <time>2016-07-20T17:11:32Z</time>
      </trkpt>
      <trkpt lat="43.53902" lon="3.37822">
        <ele>147.9</ele>
        <time>2016-07-20T17:11:35Z</time>
      </trkpt>
      <trkpt lat="43.53908" lon="3.37817">
        <ele>148.2</ele>
        <time>2016-07-20T17:11:39Z</time>
      </trkpt>
      <trkpt lat="43.53918" lon="3.37815">
        <ele>148.6</ele>
        <time>2016-07-20T17:11:43Z</time>
      </trkpt>
      <trkpt lat="43.53928" lon="3.37816">
        <ele>150.4</ele>
        <time>2016-07-20T17:11:46Z</time>
      </trkpt>
      <trkpt lat="43.53937" lon="3.37822">
        <ele>151.8</ele>
        <time>2016-07-20T17:11:48Z</time>
      </trkpt>
      <trkpt lat="43.53945" lon="3.37827">
        <ele>153.6</ele>
        <time>2016-07-20T17:11:51Z</time>
      </trkpt>
      <trkpt lat="43.53952" lon="3.37829">
        <ele>153.7</ele>
        <time>2016-07-20T17:11:53Z</time>
      </trkpt>
      <trkpt lat="43.5396" lon="3.37827">
        <ele>153.8</ele>
        <time>2016-07-20T17:11:57Z</time>
      </trkpt>
      <trkpt lat="43.53968" lon="3.37831">
        <ele>153.7</ele>
        <time>2016-07-20T17:12:00Z</time>
      </trkpt>
      <trkpt lat="43.53975" lon="3.37838">
        <ele>153.5</ele>
        <time>2016-07-20T17:12:02Z</time>
      </trkpt>
      <trkpt lat="43.53983" lon="3.37844">
        <ele>152.6</ele>
        <time>2016-07-20T17:12:04Z</time>
      </trkpt>
      <trkpt lat="43.53988" lon="3.37853">
        <ele>152.4</ele>
        <time>2016-07-20T17:12:07Z</time>
      </trkpt>
      <trkpt lat="43.53995" lon="3.37862">
        <ele>152.1</ele>
        <time>2016-07-20T17:12:11Z</time>
      </trkpt>
      <trkpt lat="43.54001" lon="3.37871">
        <ele>152.4</ele>
        <time>2016-07-20T17:12:12Z</time>
      </trkpt>
      <trkpt lat="43.54009" lon="3.37883">
        <ele>152</ele>
        <time>2016-07-20T17:12:15Z</time>
      </trkpt>
      <trkpt lat="43.54015" lon="3.37893">
        <ele>151.9</ele>
        <time>2016-07-20T17:12:17Z</time>
      </trkpt>
      <trkpt lat="43.54022" lon="3.37901">
        <ele>151.8</ele>
        <time>2016-07-20T17:12:20Z</time>
      </trkpt>
      <trkpt lat="43.5403" lon="3.37901">
        <ele>151.8</ele>
        <time>2016-07-20T17:12:23Z</time>
      </trkpt>
      <trkpt lat="43.54038" lon="3.37901">
        <ele>151.3</ele>
        <time>2016-07-20T17:12:25Z</time>
      </trkpt>
      <trkpt lat="43.54049" lon="3.37903">
        <ele>151.5</ele>
        <time>2016-07-20T17:12:28Z</time>
      </trkpt>
      <trkpt lat="43.54061" lon="3.37899">
        <ele>152.7</ele>
        <time>2016-07-20T17:12:30Z</time>
      </trkpt>
      <trkpt lat="43.54069" lon="3.37897">
        <ele>153.4</ele>
        <time>2016-07-20T17:12:31Z</time>
      </trkpt>
      <trkpt lat="43.54076" lon="3.37895">
        <ele>154.3</ele>
        <time>2016-07-20T17:12:32Z</time>
      </trkpt>
      <trkpt lat="43.5409" lon="3.37892">
        <ele>155.2</ele>
        <time>2016-07-20T17:12:34Z</time>
      </trkpt>
      <trkpt lat="43.54101" lon="3.37887">
        <ele>154.9</ele>
        <time>2016-07-20T17:12:36Z</time>
      </trkpt>
      <trkpt lat="43.54114" lon="3.37879">
        <ele>153.6</ele>
        <time>2016-07-20T17:12:38Z</time>
      </trkpt>
      <trkpt lat="43.54119" lon="3.37871">
        <ele>153.1</ele>
        <time>2016-07-20T17:12:39Z</time>
      </trkpt>
      <trkpt lat="43.54125" lon="3.37864">
        <ele>153</ele>
        <time>2016-07-20T17:12:40Z</time>
      </trkpt>
      <trkpt lat="43.54131" lon="3.37856">
        <ele>153.5</ele>
        <time>2016-07-20T17:12:41Z</time>
      </trkpt>
      <trkpt lat="43.54138" lon="3.37848">
        <ele>154</ele>
        <time>2016-07-20T17:12:42Z</time>
      </trkpt>
      <trkpt lat="43.54144" lon="3.37841">
        <ele>153.9</ele>
        <time>2016-07-20T17:12:43Z</time>
      </trkpt>
      <trkpt lat="43.54149" lon="3.37834">
        <ele>153.5</ele>
        <time>2016-07-20T17:12:44Z</time>
      </trkpt>
      <trkpt lat="43.54156" lon="3.37826">
        <ele>151.7</ele>
        <time>2016-07-20T17:12:45Z</time>
      </trkpt>
      <trkpt lat="43.54162" lon="3.3782">
        <ele>149.9</ele>
        <time>2016-07-20T17:12:46Z</time>
      </trkpt>
      <trkpt lat="43.54173" lon="3.37809">
        <ele>143.9</ele>
        <time>2016-07-20T17:12:48Z</time>
      </trkpt>
      <trkpt lat="43.54184" lon="3.37799">
        <ele>138</ele>
        <time>2016-07-20T17:12:50Z</time>
      </trkpt>
      <trkpt lat="43.54194" lon="3.37791">
        <ele>133.5</ele>
        <time>2016-07-20T17:12:52Z</time>
      </trkpt>
      <trkpt lat="43.54204" lon="3.37782">
        <ele>131.2</ele>
        <time>2016-07-20T17:12:54Z</time>
      </trkpt>
      <trkpt lat="43.54212" lon="3.37774">
        <ele>132.1</ele>
        <time>2016-07-20T17:12:56Z</time>
      </trkpt>
      <trkpt lat="43.54219" lon="3.37767">
        <ele>134</ele>
        <time>2016-07-20T17:12:58Z</time>
      </trkpt>
      <trkpt lat="43.54227" lon="3.37761">
        <ele>134.9</ele>
        <time>2016-07-20T17:13:00Z</time>
      </trkpt>
      <trkpt lat="43.5423" lon="3.3775">
        <ele>135.1</ele>
        <time>2016-07-20T17:13:04Z</time>
      </trkpt>
      <trkpt lat="43.54232" lon="3.3774">
        <ele>135.2</ele>
        <time>2016-07-20T17:13:06Z</time>
      </trkpt>
      <trkpt lat="43.54232" lon="3.37727">
        <ele>135.6</ele>
        <time>2016-07-20T17:13:10Z</time>
      </trkpt>
      <trkpt lat="43.54231" lon="3.37715">
        <ele>136</ele>
        <time>2016-07-20T17:13:13Z</time>
      </trkpt>
      <trkpt lat="43.54232" lon="3.37705">
        <ele>136.5</ele>
        <time>2016-07-20T17:13:16Z</time>
      </trkpt>
      <trkpt lat="43.54233" lon="3.37693">
        <ele>136.9</ele>
        <time>2016-07-20T17:13:19Z</time>
      </trkpt>
      <trkpt lat="43.54236" lon="3.37683">
        <ele>137.2</ele>
        <time>2016-07-20T17:13:21Z</time>
      </trkpt>
      <trkpt lat="43.5424" lon="3.37672">
        <ele>137.3</ele>
        <time>2016-07-20T17:13:24Z</time>
      </trkpt>
      <trkpt lat="43.54245" lon="3.3766">
        <ele>137.7</ele>
        <time>2016-07-20T17:13:27Z</time>
      </trkpt>
      <trkpt lat="43.5425" lon="3.37651">
        <ele>138.2</ele>
        <time>2016-07-20T17:13:30Z</time>
      </trkpt>
      <trkpt lat="43.54258" lon="3.37643">
        <ele>138.6</ele>
        <time>2016-07-20T17:13:33Z</time>
      </trkpt>
      <trkpt lat="43.54265" lon="3.37638">
        <ele>139.1</ele>
        <time>2016-07-20T17:13:36Z</time>
      </trkpt>
      <trkpt lat="43.54275" lon="3.37631">
        <ele>139.7</ele>
        <time>2016-07-20T17:13:39Z</time>
      </trkpt>
      <trkpt lat="43.54283" lon="3.37623">
        <ele>140.3</ele>
        <time>2016-07-20T17:13:42Z</time>
      </trkpt>
      <trkpt lat="43.54288" lon="3.37616">
        <ele>140.8</ele>
        <time>2016-07-20T17:13:45Z</time>
      </trkpt>
      <trkpt lat="43.54295" lon="3.37608">
        <ele>141.5</ele>
        <time>2016-07-20T17:13:48Z</time>
      </trkpt>
      <trkpt lat="43.54302" lon="3.37602">
        <ele>141.9</ele>
        <time>2016-07-20T17:13:51Z</time>
      </trkpt>
      <trkpt lat="43.5431" lon="3.37596">
        <ele>142.3</ele>
        <time>2016-07-20T17:13:54Z</time>
      </trkpt>
      <trkpt lat="43.54317" lon="3.37593">
        <ele>142.5</ele>
        <time>2016-07-20T17:13:57Z</time>
      </trkpt>
      <trkpt lat="43.54324" lon="3.37588">
        <ele>142.7</ele>
        <time>2016-07-20T17:13:59Z</time>
      </trkpt>
      <trkpt lat="43.54333" lon="3.37582">
        <ele>144.2</ele>
        <time>2016-07-20T17:14:01Z</time>
      </trkpt>
      <trkpt lat="43.5434" lon="3.37571">
        <ele>144.3</ele>
        <time>2016-07-20T17:14:04Z</time>
      </trkpt>
      <trkpt lat="43.54345" lon="3.37557">
        <ele>144.2</ele>
        <time>2016-07-20T17:14:07Z</time>
      </trkpt>
      <trkpt lat="43.54348" lon="3.37547">
        <ele>144.2</ele>
        <time>2016-07-20T17:14:09Z</time>
      </trkpt>
      <trkpt lat="43.5435" lon="3.37537">
        <ele>144.2</ele>
        <time>2016-07-20T17:14:11Z</time>
      </trkpt>
      <trkpt lat="43.54352" lon="3.37526">
        <ele>144.4</ele>
        <time>2016-07-20T17:14:13Z</time>
      </trkpt>
      <trkpt lat="43.54355" lon="3.37515">
        <ele>144.5</ele>
        <time>2016-07-20T17:14:15Z</time>
      </trkpt>
      <trkpt lat="43.54358" lon="3.37506">
        <ele>144.6</ele>
        <time>2016-07-20T17:14:17Z</time>
      </trkpt>
      <trkpt lat="43.54362" lon="3.37496">
        <ele>144.7</ele>
        <time>2016-07-20T17:14:19Z</time>
      </trkpt>
      <trkpt lat="43.54366" lon="3.37485">
        <ele>145</ele>
        <time>2016-07-20T17:14:22Z</time>
      </trkpt>
      <trkpt lat="43.54372" lon="3.37476">
        <ele>145.3</ele>
        <time>2016-07-20T17:14:24Z</time>
      </trkpt>
      <trkpt lat="43.5438" lon="3.3747">
        <ele>145.7</ele>
        <time>2016-07-20T17:14:27Z</time>
      </trkpt>
      <trkpt lat="43.54389" lon="3.37465">
        <ele>146.2</ele>
        <time>2016-07-20T17:14:30Z</time>
      </trkpt>
      <trkpt lat="43.54398" lon="3.37464">
        <ele>146.7</ele>
        <time>2016-07-20T17:14:33Z</time>
      </trkpt>
      <trkpt lat="43.54406" lon="3.37465">
        <ele>147.2</ele>
        <time>2016-07-20T17:14:36Z</time>
      </trkpt>
      <trkpt lat="43.54415" lon="3.37467">
        <ele>147.6</ele>
        <time>2016-07-20T17:14:39Z</time>
      </trkpt>
      <trkpt lat="43.54424" lon="3.37465">
        <ele>148</ele>
        <time>2016-07-20T17:14:42Z</time>
      </trkpt>
      <trkpt lat="43.54432" lon="3.37464">
        <ele>148.5</ele>
        <time>2016-07-20T17:14:45Z</time>
      </trkpt>
      <trkpt lat="43.5444" lon="3.3746">
        <ele>148.8</ele>
        <time>2016-07-20T17:14:48Z</time>
      </trkpt>
      <trkpt lat="43.54448" lon="3.37457">
        <ele>149.4</ele>
        <time>2016-07-20T17:14:51Z</time>
      </trkpt>
      <trkpt lat="43.54457" lon="3.37455">
        <ele>150</ele>
        <time>2016-07-20T17:14:54Z</time>
      </trkpt>
      <trkpt lat="43.54464" lon="3.37452">
        <ele>150.2</ele>
        <time>2016-07-20T17:14:56Z</time>
      </trkpt>
      <trkpt lat="43.54473" lon="3.37448">
        <ele>150.6</ele>
        <time>2016-07-20T17:14:59Z</time>
      </trkpt>
      <trkpt lat="43.5448" lon="3.37444">
        <ele>150.8</ele>
        <time>2016-07-20T17:15:01Z</time>
      </trkpt>
      <trkpt lat="43.5449" lon="3.37438">
        <ele>151.3</ele>
        <time>2016-07-20T17:15:04Z</time>
      </trkpt>
      <trkpt lat="43.54499" lon="3.3743">
        <ele>151.5</ele>
        <time>2016-07-20T17:15:07Z</time>
      </trkpt>
      <trkpt lat="43.54505" lon="3.37424">
        <ele>151.7</ele>
        <time>2016-07-20T17:15:09Z</time>
      </trkpt>
      <trkpt lat="43.54511" lon="3.37417">
        <ele>152</ele>
        <time>2016-07-20T17:15:11Z</time>
      </trkpt>
      <trkpt lat="43.54521" lon="3.37407">
        <ele>152.2</ele>
        <time>2016-07-20T17:15:14Z</time>
      </trkpt>
      <trkpt lat="43.54527" lon="3.37401">
        <ele>153.3</ele>
        <time>2016-07-20T17:15:16Z</time>
      </trkpt>
      <trkpt lat="43.54532" lon="3.37394">
        <ele>153.5</ele>
        <time>2016-07-20T17:15:18Z</time>
      </trkpt>
      <trkpt lat="43.5454" lon="3.3739">
        <ele>153.2</ele>
        <time>2016-07-20T17:15:20Z</time>
      </trkpt>
      <trkpt lat="43.54547" lon="3.37387">
        <ele>153.9</ele>
        <time>2016-07-20T17:15:22Z</time>
      </trkpt>
      <trkpt lat="43.54554" lon="3.37384">
        <ele>154.2</ele>
        <time>2016-07-20T17:15:24Z</time>
      </trkpt>
      <trkpt lat="43.54563" lon="3.3738">
        <ele>154.5</ele>
        <time>2016-07-20T17:15:26Z</time>
      </trkpt>
      <trkpt lat="43.5457" lon="3.37376">
        <ele>155</ele>
        <time>2016-07-20T17:15:28Z</time>
      </trkpt>
      <trkpt lat="43.54578" lon="3.37372">
        <ele>155.6</ele>
        <time>2016-07-20T17:15:30Z</time>
      </trkpt>
      <trkpt lat="43.54586" lon="3.37369">
        <ele>155.4</ele>
        <time>2016-07-20T17:15:32Z</time>
      </trkpt>
      <trkpt lat="43.54594" lon="3.37364">
        <ele>155.2</ele>
        <time>2016-07-20T17:15:34Z</time>
      </trkpt>
      <trkpt lat="43.54603" lon="3.3736">
        <ele>155.2</ele>
        <time>2016-07-20T17:15:37Z</time>
      </trkpt>
      <trkpt lat="43.5461" lon="3.37357">
        <ele>155.1</ele>
        <time>2016-07-20T17:15:39Z</time>
      </trkpt>
      <trkpt lat="43.54618" lon="3.37352">
        <ele>155.1</ele>
        <time>2016-07-20T17:15:41Z</time>
      </trkpt>
      <trkpt lat="43.54625" lon="3.37347">
        <ele>155.5</ele>
        <time>2016-07-20T17:15:43Z</time>
      </trkpt>
      <trkpt lat="43.54633" lon="3.37343">
        <ele>155.5</ele>
        <time>2016-07-20T17:15:46Z</time>
      </trkpt>
      <trkpt lat="43.54641" lon="3.3734">
        <ele>155.5</ele>
        <time>2016-07-20T17:15:48Z</time>
      </trkpt>
      <trkpt lat="43.54648" lon="3.37336">
        <ele>155.5</ele>
        <time>2016-07-20T17:15:50Z</time>
      </trkpt>
      <trkpt lat="43.54655" lon="3.37332">
        <ele>155.7</ele>
        <time>2016-07-20T17:15:52Z</time>
      </trkpt>
      <trkpt lat="43.54663" lon="3.37328">
        <ele>155.9</ele>
        <time>2016-07-20T17:15:55Z</time>
      </trkpt>
      <trkpt lat="43.5467" lon="3.3732">
        <ele>155.9</ele>
        <time>2016-07-20T17:15:58Z</time>
      </trkpt>
      <trkpt lat="43.54668" lon="3.37306">
        <ele>156.3</ele>
        <time>2016-07-20T17:16:01Z</time>
      </trkpt>
      <trkpt lat="43.54663" lon="3.37294">
        <ele>156.6</ele>
        <time>2016-07-20T17:16:04Z</time>
      </trkpt>
      <trkpt lat="43.54659" lon="3.37285">
        <ele>156.8</ele>
        <time>2016-07-20T17:16:06Z</time>
      </trkpt>
      <trkpt lat="43.54654" lon="3.37273">
        <ele>157</ele>
        <time>2016-07-20T17:16:09Z</time>
      </trkpt>
      <trkpt lat="43.54648" lon="3.37263">
        <ele>157.2</ele>
        <time>2016-07-20T17:16:12Z</time>
      </trkpt>
      <trkpt lat="43.54644" lon="3.37253">
        <ele>157.5</ele>
        <time>2016-07-20T17:16:14Z</time>
      </trkpt>
      <trkpt lat="43.54641" lon="3.37243">
        <ele>157.7</ele>
        <time>2016-07-20T17:16:16Z</time>
      </trkpt>
      <trkpt lat="43.54637" lon="3.37231">
        <ele>162.5</ele>
        <time>2016-07-20T17:16:19Z</time>
      </trkpt>
      <trkpt lat="43.54632" lon="3.37218">
        <ele>163.3</ele>
        <time>2016-07-20T17:16:22Z</time>
      </trkpt>
      <trkpt lat="43.54628" lon="3.37205">
        <ele>163.9</ele>
        <time>2016-07-20T17:16:25Z</time>
      </trkpt>
      <trkpt lat="43.54624" lon="3.3719">
        <ele>164.8</ele>
        <time>2016-07-20T17:16:28Z</time>
      </trkpt>
      <trkpt lat="43.5462" lon="3.37181">
        <ele>165.2</ele>
        <time>2016-07-20T17:16:30Z</time>
      </trkpt>
      <trkpt lat="43.54616" lon="3.3717">
        <ele>165.5</ele>
        <time>2016-07-20T17:16:33Z</time>
      </trkpt>
      <trkpt lat="43.54611" lon="3.37156">
        <ele>165.9</ele>
        <time>2016-07-20T17:16:36Z</time>
      </trkpt>
      <trkpt lat="43.54608" lon="3.37145">
        <ele>165.8</ele>
        <time>2016-07-20T17:16:38Z</time>
      </trkpt>
      <trkpt lat="43.54605" lon="3.3713">
        <ele>166</ele>
        <time>2016-07-20T17:16:41Z</time>
      </trkpt>
      <trkpt lat="43.54603" lon="3.37117">
        <ele>166.4</ele>
        <time>2016-07-20T17:16:44Z</time>
      </trkpt>
      <trkpt lat="43.54599" lon="3.37101">
        <ele>166.5</ele>
        <time>2016-07-20T17:16:47Z</time>
      </trkpt>
      <trkpt lat="43.54597" lon="3.37086">
        <ele>166.6</ele>
        <time>2016-07-20T17:16:50Z</time>
      </trkpt>
      <trkpt lat="43.54595" lon="3.37075">
        <ele>166.6</ele>
        <time>2016-07-20T17:16:52Z</time>
      </trkpt>
      <trkpt lat="43.54593" lon="3.3706">
        <ele>166.7</ele>
        <time>2016-07-20T17:16:55Z</time>
      </trkpt>
      <trkpt lat="43.5459" lon="3.37048">
        <ele>166.7</ele>
        <time>2016-07-20T17:16:58Z</time>
      </trkpt>
      <trkpt lat="43.54587" lon="3.37035">
        <ele>166.5</ele>
        <time>2016-07-20T17:17:01Z</time>
      </trkpt>
      <trkpt lat="43.54583" lon="3.37022">
        <ele>166.3</ele>
        <time>2016-07-20T17:17:04Z</time>
      </trkpt>
      <trkpt lat="43.54579" lon="3.37009">
        <ele>166.2</ele>
        <time>2016-07-20T17:17:07Z</time>
      </trkpt>
      <trkpt lat="43.54576" lon="3.37001">
        <ele>166.3</ele>
        <time>2016-07-20T17:17:09Z</time>
      </trkpt>
      <trkpt lat="43.54573" lon="3.3699">
        <ele>166.3</ele>
        <time>2016-07-20T17:17:11Z</time>
      </trkpt>
      <trkpt lat="43.5457" lon="3.36977">
        <ele>166.4</ele>
        <time>2016-07-20T17:17:14Z</time>
      </trkpt>
      <trkpt lat="43.54567" lon="3.36967">
        <ele>166.4</ele>
        <time>2016-07-20T17:17:16Z</time>
      </trkpt>
      <trkpt lat="43.54565" lon="3.36954">
        <ele>166.6</ele>
        <time>2016-07-20T17:17:19Z</time>
      </trkpt>
      <trkpt lat="43.54565" lon="3.36939">
        <ele>166.8</ele>
        <time>2016-07-20T17:17:22Z</time>
      </trkpt>
      <trkpt lat="43.54563" lon="3.36929">
        <ele>166.9</ele>
        <time>2016-07-20T17:17:24Z</time>
      </trkpt>
      <trkpt lat="43.54561" lon="3.36916">
        <ele>166.9</ele>
        <time>2016-07-20T17:17:27Z</time>
      </trkpt>
      <trkpt lat="43.54558" lon="3.36902">
        <ele>167</ele>
        <time>2016-07-20T17:17:30Z</time>
      </trkpt>
      <trkpt lat="43.54555" lon="3.3689">
        <ele>166.9</ele>
        <time>2016-07-20T17:17:33Z</time>
      </trkpt>
      <trkpt lat="43.54552" lon="3.36881">
        <ele>167</ele>
        <time>2016-07-20T17:17:35Z</time>
      </trkpt>
      <trkpt lat="43.54549" lon="3.36871">
        <ele>167.1</ele>
        <time>2016-07-20T17:17:37Z</time>
      </trkpt>
      <trkpt lat="43.54549" lon="3.36859">
        <ele>167.1</ele>
        <time>2016-07-20T17:17:39Z</time>
      </trkpt>
      <trkpt lat="43.54553" lon="3.36845">
        <ele>166.9</ele>
        <time>2016-07-20T17:17:42Z</time>
      </trkpt>
      <trkpt lat="43.54556" lon="3.36835">
        <ele>166.9</ele>
        <time>2016-07-20T17:17:44Z</time>
      </trkpt>
      <trkpt lat="43.5456" lon="3.36825">
        <ele>166.8</ele>
        <time>2016-07-20T17:17:47Z</time>
      </trkpt>
      <trkpt lat="43.54565" lon="3.36816">
        <ele>166.9</ele>
        <time>2016-07-20T17:17:50Z</time>
      </trkpt>
      <trkpt lat="43.5457" lon="3.36806">
        <ele>167.2</ele>
        <time>2016-07-20T17:17:54Z</time>
      </trkpt>
      <trkpt lat="43.54576" lon="3.36798">
        <ele>167.3</ele>
        <time>2016-07-20T17:17:57Z</time>
      </trkpt>
      <trkpt lat="43.54581" lon="3.36789">
        <ele>167.4</ele>
        <time>2016-07-20T17:18:01Z</time>
      </trkpt>
      <trkpt lat="43.54583" lon="3.36779">
        <ele>167.5</ele>
        <time>2016-07-20T17:18:06Z</time>
      </trkpt>
      <trkpt lat="43.54588" lon="3.36768">
        <ele>167.8</ele>
        <time>2016-07-20T17:18:09Z</time>
      </trkpt>
      <trkpt lat="43.54592" lon="3.36758">
        <ele>168.4</ele>
        <time>2016-07-20T17:18:13Z</time>
      </trkpt>
      <trkpt lat="43.54596" lon="3.3675">
        <ele>168.7</ele>
        <time>2016-07-20T17:18:16Z</time>
      </trkpt>
      <trkpt lat="43.54598" lon="3.36738">
        <ele>169.2</ele>
        <time>2016-07-20T17:18:20Z</time>
      </trkpt>
      <trkpt lat="43.54602" lon="3.36726">
        <ele>169.6</ele>
        <time>2016-07-20T17:18:24Z</time>
      </trkpt>
      <trkpt lat="43.54601" lon="3.36716">
        <ele>170.4</ele>
        <time>2016-07-20T17:18:28Z</time>
      </trkpt>
      <trkpt lat="43.54601" lon="3.36706">
        <ele>171.1</ele>
        <time>2016-07-20T17:18:32Z</time>
      </trkpt>
      <trkpt lat="43.54601" lon="3.36694">
        <ele>171.7</ele>
        <time>2016-07-20T17:18:35Z</time>
      </trkpt>
      <trkpt lat="43.54602" lon="3.36684">
        <ele>172.1</ele>
        <time>2016-07-20T17:18:38Z</time>
      </trkpt>
      <trkpt lat="43.54603" lon="3.36671">
        <ele>172.7</ele>
        <time>2016-07-20T17:18:42Z</time>
      </trkpt>
      <trkpt lat="43.54602" lon="3.3666">
        <ele>173.3</ele>
        <time>2016-07-20T17:18:46Z</time>
      </trkpt>
      <trkpt lat="43.54604" lon="3.36648">
        <ele>173.9</ele>
        <time>2016-07-20T17:18:49Z</time>
      </trkpt>
      <trkpt lat="43.5461" lon="3.36641">
        <ele>174.4</ele>
        <time>2016-07-20T17:18:52Z</time>
      </trkpt>
      <trkpt lat="43.54618" lon="3.3664">
        <ele>175</ele>
        <time>2016-07-20T17:18:55Z</time>
      </trkpt>
      <trkpt lat="43.54626" lon="3.3664">
        <ele>175.9</ele>
        <time>2016-07-20T17:18:59Z</time>
      </trkpt>
      <trkpt lat="43.54633" lon="3.36639">
        <ele>176.5</ele>
        <time>2016-07-20T17:19:02Z</time>
      </trkpt>
      <trkpt lat="43.54641" lon="3.36636">
        <ele>177.6</ele>
        <time>2016-07-20T17:19:06Z</time>
      </trkpt>
      <trkpt lat="43.54649" lon="3.36632">
        <ele>178.9</ele>
        <time>2016-07-20T17:19:10Z</time>
      </trkpt>
      <trkpt lat="43.54656" lon="3.36627">
        <ele>179.7</ele>
        <time>2016-07-20T17:19:13Z</time>
      </trkpt>
      <trkpt lat="43.54661" lon="3.36621">
        <ele>180.3</ele>
        <time>2016-07-20T17:19:16Z</time>
      </trkpt>
      <trkpt lat="43.54668" lon="3.36616">
        <ele>180.8</ele>
        <time>2016-07-20T17:19:19Z</time>
      </trkpt>
      <trkpt lat="43.54675" lon="3.3661">
        <ele>181</ele>
        <time>2016-07-20T17:19:22Z</time>
      </trkpt>
      <trkpt lat="43.54684" lon="3.36603">
        <ele>181.3</ele>
        <time>2016-07-20T17:19:25Z</time>
      </trkpt>
      <trkpt lat="43.54691" lon="3.36602">
        <ele>181.4</ele>
        <time>2016-07-20T17:19:27Z</time>
      </trkpt>
      <trkpt lat="43.54697" lon="3.36608">
        <ele>181.7</ele>
        <time>2016-07-20T17:19:30Z</time>
      </trkpt>
      <trkpt lat="43.54702" lon="3.36616">
        <ele>182</ele>
        <time>2016-07-20T17:19:33Z</time>
      </trkpt>
      <trkpt lat="43.54707" lon="3.36627">
        <ele>182.2</ele>
        <time>2016-07-20T17:19:36Z</time>
      </trkpt>
      <trkpt lat="43.54711" lon="3.36638">
        <ele>182.6</ele>
        <time>2016-07-20T17:19:39Z</time>
      </trkpt>
      <trkpt lat="43.54715" lon="3.36649">
        <ele>182.8</ele>
        <time>2016-07-20T17:19:42Z</time>
      </trkpt>
      <trkpt lat="43.5472" lon="3.36658">
        <ele>183.1</ele>
        <time>2016-07-20T17:19:45Z</time>
      </trkpt>
      <trkpt lat="43.54726" lon="3.36668">
        <ele>183.3</ele>
        <time>2016-07-20T17:19:48Z</time>
      </trkpt>
      <trkpt lat="43.54729" lon="3.36677">
        <ele>183.5</ele>
        <time>2016-07-20T17:19:50Z</time>
      </trkpt>
      <trkpt lat="43.54734" lon="3.36686">
        <ele>183.9</ele>
        <time>2016-07-20T17:19:53Z</time>
      </trkpt>
      <trkpt lat="43.54741" lon="3.36697">
        <ele>184.1</ele>
        <time>2016-07-20T17:19:56Z</time>
      </trkpt>
      <trkpt lat="43.54745" lon="3.36708">
        <ele>184.3</ele>
        <time>2016-07-20T17:19:59Z</time>
      </trkpt>
      <trkpt lat="43.5475" lon="3.36723">
        <ele>184.5</ele>
        <time>2016-07-20T17:20:02Z</time>
      </trkpt>
      <trkpt lat="43.54753" lon="3.36734">
        <ele>184.6</ele>
        <time>2016-07-20T17:20:05Z</time>
      </trkpt>
      <trkpt lat="43.54755" lon="3.36745">
        <ele>184.8</ele>
        <time>2016-07-20T17:20:07Z</time>
      </trkpt>
      <trkpt lat="43.54756" lon="3.36756">
        <ele>185.1</ele>
        <time>2016-07-20T17:20:09Z</time>
      </trkpt>
      <trkpt lat="43.54756" lon="3.3677">
        <ele>185.3</ele>
        <time>2016-07-20T17:20:12Z</time>
      </trkpt>
      <trkpt lat="43.54756" lon="3.3678">
        <ele>185.5</ele>
        <time>2016-07-20T17:20:14Z</time>
      </trkpt>
      <trkpt lat="43.54756" lon="3.36792">
        <ele>185.6</ele>
        <time>2016-07-20T17:20:17Z</time>
      </trkpt>
      <trkpt lat="43.5476" lon="3.36805">
        <ele>185.8</ele>
        <time>2016-07-20T17:20:20Z</time>
      </trkpt>
      <trkpt lat="43.54761" lon="3.36815">
        <ele>185.9</ele>
        <time>2016-07-20T17:20:22Z</time>
      </trkpt>
      <trkpt lat="43.54763" lon="3.36827">
        <ele>186.3</ele>
        <time>2016-07-20T17:20:25Z</time>
      </trkpt>
      <trkpt lat="43.54766" lon="3.3684">
        <ele>186.7</ele>
        <time>2016-07-20T17:20:28Z</time>
      </trkpt>
      <trkpt lat="43.5477" lon="3.36851">
        <ele>186.9</ele>
        <time>2016-07-20T17:20:30Z</time>
      </trkpt>
      <trkpt lat="43.54774" lon="3.36864">
        <ele>187.2</ele>
        <time>2016-07-20T17:20:33Z</time>
      </trkpt>
      <trkpt lat="43.54776" lon="3.36875">
        <ele>187.2</ele>
        <time>2016-07-20T17:20:35Z</time>
      </trkpt>
      <trkpt lat="43.54779" lon="3.36888">
        <ele>187.2</ele>
        <time>2016-07-20T17:20:37Z</time>
      </trkpt>
      <trkpt lat="43.54782" lon="3.369">
        <ele>187.3</ele>
        <time>2016-07-20T17:20:40Z</time>
      </trkpt>
      <trkpt lat="43.54787" lon="3.3691">
        <ele>187.5</ele>
        <time>2016-07-20T17:20:43Z</time>
      </trkpt>
      <trkpt lat="43.54794" lon="3.36922">
        <ele>187.6</ele>
        <time>2016-07-20T17:20:46Z</time>
      </trkpt>
      <trkpt lat="43.54799" lon="3.3693">
        <ele>187.7</ele>
        <time>2016-07-20T17:20:48Z</time>
      </trkpt>
      <trkpt lat="43.54803" lon="3.36939">
        <ele>187.7</ele>
        <time>2016-07-20T17:20:50Z</time>
      </trkpt>
      <trkpt lat="43.54807" lon="3.36951">
        <ele>187.8</ele>
        <time>2016-07-20T17:20:52Z</time>
      </trkpt>
      <trkpt lat="43.5481" lon="3.36962">
        <ele>187.8</ele>
        <time>2016-07-20T17:20:54Z</time>
      </trkpt>
      <trkpt lat="43.54813" lon="3.36973">
        <ele>187.8</ele>
        <time>2016-07-20T17:20:56Z</time>
      </trkpt>
      <trkpt lat="43.54816" lon="3.36982">
        <ele>187.9</ele>
        <time>2016-07-20T17:20:58Z</time>
      </trkpt>
      <trkpt lat="43.5482" lon="3.36994">
        <ele>188.9</ele>
        <time>2016-07-20T17:21:00Z</time>
      </trkpt>
      <trkpt lat="43.54824" lon="3.37004">
        <ele>189.6</ele>
        <time>2016-07-20T17:21:02Z</time>
      </trkpt>
      <trkpt lat="43.54828" lon="3.37014">
        <ele>190.3</ele>
        <time>2016-07-20T17:21:04Z</time>
      </trkpt>
      <trkpt lat="43.54833" lon="3.37025">
        <ele>190.1</ele>
        <time>2016-07-20T17:21:06Z</time>
      </trkpt>
      <trkpt lat="43.54838" lon="3.37034">
        <ele>190</ele>
        <time>2016-07-20T17:21:08Z</time>
      </trkpt>
      <trkpt lat="43.54843" lon="3.37049">
        <ele>190</ele>
        <time>2016-07-20T17:21:10Z</time>
      </trkpt>
      <trkpt lat="43.54846" lon="3.37062">
        <ele>189.8</ele>
        <time>2016-07-20T17:21:12Z</time>
      </trkpt>
      <trkpt lat="43.54846" lon="3.37075">
        <ele>189</ele>
        <time>2016-07-20T17:21:14Z</time>
      </trkpt>
      <trkpt lat="43.54846" lon="3.37089">
        <ele>187.6</ele>
        <time>2016-07-20T17:21:16Z</time>
      </trkpt>
      <trkpt lat="43.54843" lon="3.37099">
        <ele>186.6</ele>
        <time>2016-07-20T17:21:18Z</time>
      </trkpt>
      <trkpt lat="43.54838" lon="3.3711">
        <ele>186.1</ele>
        <time>2016-07-20T17:21:20Z</time>
      </trkpt>
      <trkpt lat="43.54832" lon="3.37119">
        <ele>185.3</ele>
        <time>2016-07-20T17:21:22Z</time>
      </trkpt>
      <trkpt lat="43.54827" lon="3.37126">
        <ele>184.9</ele>
        <time>2016-07-20T17:21:24Z</time>
      </trkpt>
      <trkpt lat="43.54822" lon="3.37134">
        <ele>185.5</ele>
        <time>2016-07-20T17:21:26Z</time>
      </trkpt>
      <trkpt lat="43.5482" lon="3.37146">
        <ele>186.6</ele>
        <time>2016-07-20T17:21:28Z</time>
      </trkpt>
      <trkpt lat="43.54824" lon="3.37157">
        <ele>186.8</ele>
        <time>2016-07-20T17:21:31Z</time>
      </trkpt>
      <trkpt lat="43.54829" lon="3.37164">
        <ele>187.1</ele>
        <time>2016-07-20T17:21:34Z</time>
      </trkpt>
      <trkpt lat="43.54837" lon="3.37172">
        <ele>187.3</ele>
        <time>2016-07-20T17:21:37Z</time>
      </trkpt>
      <trkpt lat="43.54843" lon="3.37182">
        <ele>187.6</ele>
        <time>2016-07-20T17:21:40Z</time>
      </trkpt>
      <trkpt lat="43.54849" lon="3.37194">
        <ele>187.9</ele>
        <time>2016-07-20T17:21:43Z</time>
      </trkpt>
      <trkpt lat="43.54852" lon="3.37208">
        <ele>188.2</ele>
        <time>2016-07-20T17:21:46Z</time>
      </trkpt>
      <trkpt lat="43.54853" lon="3.37218">
        <ele>188.5</ele>
        <time>2016-07-20T17:21:48Z</time>
      </trkpt>
      <trkpt lat="43.54856" lon="3.3723">
        <ele>190.2</ele>
        <time>2016-07-20T17:21:50Z</time>
      </trkpt>
      <trkpt lat="43.54862" lon="3.3724">
        <ele>192.4</ele>
        <time>2016-07-20T17:21:52Z</time>
      </trkpt>
      <trkpt lat="43.54867" lon="3.37249">
        <ele>193.2</ele>
        <time>2016-07-20T17:21:54Z</time>
      </trkpt>
      <trkpt lat="43.54873" lon="3.37259">
        <ele>193.8</ele>
        <time>2016-07-20T17:21:56Z</time>
      </trkpt>
      <trkpt lat="43.54878" lon="3.37267">
        <ele>193.9</ele>
        <time>2016-07-20T17:21:58Z</time>
      </trkpt>
      <trkpt lat="43.54882" lon="3.37277">
        <ele>194</ele>
        <time>2016-07-20T17:22:00Z</time>
      </trkpt>
      <trkpt lat="43.54886" lon="3.37285">
        <ele>194.1</ele>
        <time>2016-07-20T17:22:02Z</time>
      </trkpt>
      <trkpt lat="43.54891" lon="3.37296">
        <ele>194.4</ele>
        <time>2016-07-20T17:22:05Z</time>
      </trkpt>
      <trkpt lat="43.54898" lon="3.37308">
        <ele>194.5</ele>
        <time>2016-07-20T17:22:08Z</time>
      </trkpt>
      <trkpt lat="43.54902" lon="3.37322">
        <ele>195</ele>
        <time>2016-07-20T17:22:11Z</time>
      </trkpt>
      <trkpt lat="43.54901" lon="3.37335">
        <ele>195.2</ele>
        <time>2016-07-20T17:22:14Z</time>
      </trkpt>
      <trkpt lat="43.54897" lon="3.37347">
        <ele>195.2</ele>
        <time>2016-07-20T17:22:17Z</time>
      </trkpt>
      <trkpt lat="43.54893" lon="3.37361">
        <ele>195.9</ele>
        <time>2016-07-20T17:22:20Z</time>
      </trkpt>
      <trkpt lat="43.54889" lon="3.37374">
        <ele>196</ele>
        <time>2016-07-20T17:22:22Z</time>
      </trkpt>
      <trkpt lat="43.54888" lon="3.37386">
        <ele>195.7</ele>
        <time>2016-07-20T17:22:24Z</time>
      </trkpt>
      <trkpt lat="43.54886" lon="3.37397">
        <ele>195.4</ele>
        <time>2016-07-20T17:22:26Z</time>
      </trkpt>
      <trkpt lat="43.54886" lon="3.37409">
        <ele>194.8</ele>
        <time>2016-07-20T17:22:28Z</time>
      </trkpt>
      <trkpt lat="43.54883" lon="3.37423">
        <ele>195</ele>
        <time>2016-07-20T17:22:30Z</time>
      </trkpt>
      <trkpt lat="43.54881" lon="3.37437">
        <ele>194.8</ele>
        <time>2016-07-20T17:22:32Z</time>
      </trkpt>
      <trkpt lat="43.54878" lon="3.37455">
        <ele>193.7</ele>
        <time>2016-07-20T17:22:34Z</time>
      </trkpt>
      <trkpt lat="43.54878" lon="3.37474">
        <ele>192.9</ele>
        <time>2016-07-20T17:22:36Z</time>
      </trkpt>
      <trkpt lat="43.54878" lon="3.37493">
        <ele>192.8</ele>
        <time>2016-07-20T17:22:38Z</time>
      </trkpt>
      <trkpt lat="43.54877" lon="3.37513">
        <ele>191.6</ele>
        <time>2016-07-20T17:22:40Z</time>
      </trkpt>
      <trkpt lat="43.54877" lon="3.37523">
        <ele>191.6</ele>
        <time>2016-07-20T17:22:41Z</time>
      </trkpt>
      <trkpt lat="43.54874" lon="3.3754">
        <ele>190.6</ele>
        <time>2016-07-20T17:22:43Z</time>
      </trkpt>
      <trkpt lat="43.5487" lon="3.37555">
        <ele>189.4</ele>
        <time>2016-07-20T17:22:45Z</time>
      </trkpt>
      <trkpt lat="43.54868" lon="3.37568">
        <ele>189.7</ele>
        <time>2016-07-20T17:22:47Z</time>
      </trkpt>
      <trkpt lat="43.54872" lon="3.37577">
        <ele>189.2</ele>
        <time>2016-07-20T17:22:52Z</time>
      </trkpt>
      <trkpt lat="43.54879" lon="3.37579">
        <ele>188.8</ele>
        <time>2016-07-20T17:22:56Z</time>
      </trkpt>
      <trkpt lat="43.54877" lon="3.37593">
        <ele>188.6</ele>
        <time>2016-07-20T17:22:58Z</time>
      </trkpt>
      <trkpt lat="43.54874" lon="3.37606">
        <ele>188</ele>
        <time>2016-07-20T17:23:00Z</time>
      </trkpt>
      <trkpt lat="43.5487" lon="3.37615">
        <ele>186.5</ele>
        <time>2016-07-20T17:23:02Z</time>
      </trkpt>
      <trkpt lat="43.54869" lon="3.37627">
        <ele>185.7</ele>
        <time>2016-07-20T17:23:04Z</time>
      </trkpt>
      <trkpt lat="43.54874" lon="3.37639">
        <ele>185.1</ele>
        <time>2016-07-20T17:23:07Z</time>
      </trkpt>
      <trkpt lat="43.54873" lon="3.37649">
        <ele>184</ele>
        <time>2016-07-20T17:23:08Z</time>
      </trkpt>
      <trkpt lat="43.54874" lon="3.37663">
        <ele>182.3</ele>
        <time>2016-07-20T17:23:10Z</time>
      </trkpt>
      <trkpt lat="43.54875" lon="3.37676">
        <ele>180.6</ele>
        <time>2016-07-20T17:23:12Z</time>
      </trkpt>
      <trkpt lat="43.54876" lon="3.37687">
        <ele>177.8</ele>
        <time>2016-07-20T17:23:14Z</time>
      </trkpt>
      <trkpt lat="43.54876" lon="3.37701">
        <ele>174.4</ele>
        <time>2016-07-20T17:23:16Z</time>
      </trkpt>
      <trkpt lat="43.54877" lon="3.37719">
        <ele>171</ele>
        <time>2016-07-20T17:23:18Z</time>
      </trkpt>
      <trkpt lat="43.54879" lon="3.3773">
        <ele>169.5</ele>
        <time>2016-07-20T17:23:19Z</time>
      </trkpt>
      <trkpt lat="43.54882" lon="3.37743">
        <ele>167</ele>
        <time>2016-07-20T17:23:21Z</time>
      </trkpt>
      <trkpt lat="43.54882" lon="3.37758">
        <ele>166</ele>
        <time>2016-07-20T17:23:23Z</time>
      </trkpt>
      <trkpt lat="43.54881" lon="3.37771">
        <ele>164.6</ele>
        <time>2016-07-20T17:23:25Z</time>
      </trkpt>
      <trkpt lat="43.54881" lon="3.37785">
        <ele>163.5</ele>
        <time>2016-07-20T17:23:27Z</time>
      </trkpt>
      <trkpt lat="43.54882" lon="3.37798">
        <ele>162.8</ele>
        <time>2016-07-20T17:23:29Z</time>
      </trkpt>
      <trkpt lat="43.54883" lon="3.37809">
        <ele>162</ele>
        <time>2016-07-20T17:23:31Z</time>
      </trkpt>
      <trkpt lat="43.54887" lon="3.37821">
        <ele>160.9</ele>
        <time>2016-07-20T17:23:33Z</time>
      </trkpt>
      <trkpt lat="43.54884" lon="3.37835">
        <ele>160.7</ele>
        <time>2016-07-20T17:23:35Z</time>
      </trkpt>
      <trkpt lat="43.54887" lon="3.37847">
        <ele>159.7</ele>
        <time>2016-07-20T17:23:38Z</time>
      </trkpt>
      <trkpt lat="43.54892" lon="3.3786">
        <ele>159.1</ele>
        <time>2016-07-20T17:23:40Z</time>
      </trkpt>
      <trkpt lat="43.54891" lon="3.37871">
        <ele>158.9</ele>
        <time>2016-07-20T17:23:42Z</time>
      </trkpt>
      <trkpt lat="43.54894" lon="3.37883">
        <ele>158.6</ele>
        <time>2016-07-20T17:23:45Z</time>
      </trkpt>
      <trkpt lat="43.54897" lon="3.37894">
        <ele>157.1</ele>
        <time>2016-07-20T17:23:47Z</time>
      </trkpt>
      <trkpt lat="43.54902" lon="3.37903">
        <ele>155.4</ele>
        <time>2016-07-20T17:23:49Z</time>
      </trkpt>
      <trkpt lat="43.54899" lon="3.37918">
        <ele>153.9</ele>
        <time>2016-07-20T17:23:51Z</time>
      </trkpt>
      <trkpt lat="43.54899" lon="3.37931">
        <ele>153.5</ele>
        <time>2016-07-20T17:23:53Z</time>
      </trkpt>
      <trkpt lat="43.54899" lon="3.37947">
        <ele>153</ele>
        <time>2016-07-20T17:23:56Z</time>
      </trkpt>
      <trkpt lat="43.549" lon="3.37962">
        <ele>151.1</ele>
        <time>2016-07-20T17:23:58Z</time>
      </trkpt>
      <trkpt lat="43.54899" lon="3.37975">
        <ele>150.5</ele>
        <time>2016-07-20T17:24:00Z</time>
      </trkpt>
      <trkpt lat="43.54898" lon="3.3799">
        <ele>150.3</ele>
        <time>2016-07-20T17:24:02Z</time>
      </trkpt>
      <trkpt lat="43.54894" lon="3.38004">
        <ele>149.5</ele>
        <time>2016-07-20T17:24:04Z</time>
      </trkpt>
      <trkpt lat="43.54896" lon="3.38019">
        <ele>149.4</ele>
        <time>2016-07-20T17:24:07Z</time>
      </trkpt>
      <trkpt lat="43.54892" lon="3.38029">
        <ele>149.3</ele>
        <time>2016-07-20T17:24:10Z</time>
      </trkpt>
      <trkpt lat="43.54891" lon="3.38042">
        <ele>149.1</ele>
        <time>2016-07-20T17:24:13Z</time>
      </trkpt>
      <trkpt lat="43.5489" lon="3.38052">
        <ele>148.8</ele>
        <time>2016-07-20T17:24:15Z</time>
      </trkpt>
      <trkpt lat="43.54889" lon="3.38063">
        <ele>148.4</ele>
        <time>2016-07-20T17:24:17Z</time>
      </trkpt>
      <trkpt lat="43.54891" lon="3.38074">
        <ele>147.9</ele>
        <time>2016-07-20T17:24:21Z</time>
      </trkpt>
      <trkpt lat="43.54893" lon="3.38089">
        <ele>147.7</ele>
        <time>2016-07-20T17:24:24Z</time>
      </trkpt>
      <trkpt lat="43.54895" lon="3.38104">
        <ele>147.6</ele>
        <time>2016-07-20T17:24:26Z</time>
      </trkpt>
      <trkpt lat="43.54897" lon="3.38117">
        <ele>147.4</ele>
        <time>2016-07-20T17:24:28Z</time>
      </trkpt>
      <trkpt lat="43.54901" lon="3.38127">
        <ele>146.7</ele>
        <time>2016-07-20T17:24:31Z</time>
      </trkpt>
      <trkpt lat="43.5491" lon="3.38129">
        <ele>146</ele>
        <time>2016-07-20T17:24:34Z</time>
      </trkpt>
      <trkpt lat="43.54918" lon="3.38133">
        <ele>145.5</ele>
        <time>2016-07-20T17:24:36Z</time>
      </trkpt>
      <trkpt lat="43.54925" lon="3.38136">
        <ele>141.3</ele>
        <time>2016-07-20T17:24:38Z</time>
      </trkpt>
      <trkpt lat="43.54932" lon="3.38143">
        <ele>138.7</ele>
        <time>2016-07-20T17:24:40Z</time>
      </trkpt>
      <trkpt lat="43.54941" lon="3.38147">
        <ele>136.7</ele>
        <time>2016-07-20T17:24:42Z</time>
      </trkpt>
      <trkpt lat="43.54952" lon="3.38151">
        <ele>134.2</ele>
        <time>2016-07-20T17:24:44Z</time>
      </trkpt>
      <trkpt lat="43.54963" lon="3.38157">
        <ele>133.2</ele>
        <time>2016-07-20T17:24:46Z</time>
      </trkpt>
      <trkpt lat="43.54974" lon="3.38161">
        <ele>133.3</ele>
        <time>2016-07-20T17:24:48Z</time>
      </trkpt>
      <trkpt lat="43.54985" lon="3.38166">
        <ele>133.8</ele>
        <time>2016-07-20T17:24:50Z</time>
      </trkpt>
      <trkpt lat="43.54995" lon="3.3817">
        <ele>134</ele>
        <time>2016-07-20T17:24:52Z</time>
      </trkpt>
      <trkpt lat="43.55006" lon="3.38175">
        <ele>134</ele>
        <time>2016-07-20T17:24:54Z</time>
      </trkpt>
      <trkpt lat="43.55018" lon="3.38181">
        <ele>133.8</ele>
        <time>2016-07-20T17:24:56Z</time>
      </trkpt>
      <trkpt lat="43.55028" lon="3.38185">
        <ele>132.6</ele>
        <time>2016-07-20T17:24:58Z</time>
      </trkpt>
      <trkpt lat="43.55037" lon="3.38188">
        <ele>132.2</ele>
        <time>2016-07-20T17:25:00Z</time>
      </trkpt>
      <trkpt lat="43.55047" lon="3.38193">
        <ele>132.1</ele>
        <time>2016-07-20T17:25:02Z</time>
      </trkpt>
      <trkpt lat="43.55057" lon="3.38197">
        <ele>132.8</ele>
        <time>2016-07-20T17:25:04Z</time>
      </trkpt>
      <trkpt lat="43.55066" lon="3.38201">
        <ele>132.7</ele>
        <time>2016-07-20T17:25:06Z</time>
      </trkpt>
      <trkpt lat="43.55075" lon="3.38204">
        <ele>132.4</ele>
        <time>2016-07-20T17:25:08Z</time>
      </trkpt>
      <trkpt lat="43.55085" lon="3.38209">
        <ele>132.4</ele>
        <time>2016-07-20T17:25:10Z</time>
      </trkpt>
      <trkpt lat="43.55094" lon="3.38213">
        <ele>131.8</ele>
        <time>2016-07-20T17:25:12Z</time>
      </trkpt>
      <trkpt lat="43.55103" lon="3.38216">
        <ele>131.2</ele>
        <time>2016-07-20T17:25:14Z</time>
      </trkpt>
      <trkpt lat="43.55113" lon="3.3822">
        <ele>130.9</ele>
        <time>2016-07-20T17:25:16Z</time>
      </trkpt>
      <trkpt lat="43.55122" lon="3.38223">
        <ele>130.3</ele>
        <time>2016-07-20T17:25:18Z</time>
      </trkpt>
      <trkpt lat="43.5513" lon="3.38225">
        <ele>130.1</ele>
        <time>2016-07-20T17:25:20Z</time>
      </trkpt>
      <trkpt lat="43.5514" lon="3.38228">
        <ele>131</ele>
        <time>2016-07-20T17:25:22Z</time>
      </trkpt>
      <trkpt lat="43.55151" lon="3.38231">
        <ele>130.7</ele>
        <time>2016-07-20T17:25:24Z</time>
      </trkpt>
      <trkpt lat="43.55161" lon="3.38233">
        <ele>130.9</ele>
        <time>2016-07-20T17:25:26Z</time>
      </trkpt>
      <trkpt lat="43.55171" lon="3.38235">
        <ele>130.5</ele>
        <time>2016-07-20T17:25:28Z</time>
      </trkpt>
      <trkpt lat="43.55179" lon="3.38237">
        <ele>131.9</ele>
        <time>2016-07-20T17:25:30Z</time>
      </trkpt>
      <trkpt lat="43.5519" lon="3.3824">
        <ele>133.2</ele>
        <time>2016-07-20T17:25:32Z</time>
      </trkpt>
      <trkpt lat="43.552" lon="3.38242">
        <ele>133</ele>
        <time>2016-07-20T17:25:34Z</time>
      </trkpt>
      <trkpt lat="43.5521" lon="3.38243">
        <ele>132.5</ele>
        <time>2016-07-20T17:25:36Z</time>
      </trkpt>
      <trkpt lat="43.55222" lon="3.38245">
        <ele>132.9</ele>
        <time>2016-07-20T17:25:38Z</time>
      </trkpt>
      <trkpt lat="43.55232" lon="3.38248">
        <ele>133.1</ele>
        <time>2016-07-20T17:25:40Z</time>
      </trkpt>
      <trkpt lat="43.55244" lon="3.38251">
        <ele>132.7</ele>
        <time>2016-07-20T17:25:42Z</time>
      </trkpt>
      <trkpt lat="43.55254" lon="3.38254">
        <ele>132.3</ele>
        <time>2016-07-20T17:25:44Z</time>
      </trkpt>
      <trkpt lat="43.55265" lon="3.38256">
        <ele>132.4</ele>
        <time>2016-07-20T17:25:46Z</time>
      </trkpt>
      <trkpt lat="43.55276" lon="3.38256">
        <ele>132.8</ele>
        <time>2016-07-20T17:25:48Z</time>
      </trkpt>
      <trkpt lat="43.55286" lon="3.38256">
        <ele>132.7</ele>
        <time>2016-07-20T17:25:50Z</time>
      </trkpt>
      <trkpt lat="43.55296" lon="3.38255">
        <ele>133.2</ele>
        <time>2016-07-20T17:25:52Z</time>
      </trkpt>
      <trkpt lat="43.55306" lon="3.38252">
        <ele>132.9</ele>
        <time>2016-07-20T17:25:54Z</time>
      </trkpt>
      <trkpt lat="43.55316" lon="3.38249">
        <ele>131.6</ele>
        <time>2016-07-20T17:25:56Z</time>
      </trkpt>
      <trkpt lat="43.55325" lon="3.38245">
        <ele>131.1</ele>
        <time>2016-07-20T17:25:58Z</time>
      </trkpt>
      <trkpt lat="43.55334" lon="3.38242">
        <ele>130.6</ele>
        <time>2016-07-20T17:26:00Z</time>
      </trkpt>
      <trkpt lat="43.55343" lon="3.38238">
        <ele>130.5</ele>
        <time>2016-07-20T17:26:02Z</time>
      </trkpt>
      <trkpt lat="43.55353" lon="3.38233">
        <ele>130.1</ele>
        <time>2016-07-20T17:26:04Z</time>
      </trkpt>
      <trkpt lat="43.55363" lon="3.38229">
        <ele>130.7</ele>
        <time>2016-07-20T17:26:06Z</time>
      </trkpt>
      <trkpt lat="43.55372" lon="3.38225">
        <ele>130.3</ele>
        <time>2016-07-20T17:26:08Z</time>
      </trkpt>
      <trkpt lat="43.55381" lon="3.38221">
        <ele>130.7</ele>
        <time>2016-07-20T17:26:10Z</time>
      </trkpt>
      <trkpt lat="43.55391" lon="3.38217">
        <ele>131.3</ele>
        <time>2016-07-20T17:26:12Z</time>
      </trkpt>
      <trkpt lat="43.55399" lon="3.38213">
        <ele>132.7</ele>
        <time>2016-07-20T17:26:14Z</time>
      </trkpt>
      <trkpt lat="43.55409" lon="3.38208">
        <ele>133.4</ele>
        <time>2016-07-20T17:26:16Z</time>
      </trkpt>
      <trkpt lat="43.55419" lon="3.38204">
        <ele>133.3</ele>
        <time>2016-07-20T17:26:18Z</time>
      </trkpt>
      <trkpt lat="43.55427" lon="3.382">
        <ele>133.3</ele>
        <time>2016-07-20T17:26:20Z</time>
      </trkpt>
      <trkpt lat="43.55436" lon="3.38196">
        <ele>132.7</ele>
        <time>2016-07-20T17:26:22Z</time>
      </trkpt>
      <trkpt lat="43.55446" lon="3.38191">
        <ele>132.6</ele>
        <time>2016-07-20T17:26:24Z</time>
      </trkpt>
      <trkpt lat="43.55458" lon="3.38186">
        <ele>133</ele>
        <time>2016-07-20T17:26:26Z</time>
      </trkpt>
      <trkpt lat="43.55469" lon="3.38182">
        <ele>132.5</ele>
        <time>2016-07-20T17:26:28Z</time>
      </trkpt>
      <trkpt lat="43.55479" lon="3.38177">
        <ele>131.8</ele>
        <time>2016-07-20T17:26:30Z</time>
      </trkpt>
      <trkpt lat="43.5549" lon="3.38172">
        <ele>131.5</ele>
        <time>2016-07-20T17:26:32Z</time>
      </trkpt>
      <trkpt lat="43.555" lon="3.38168">
        <ele>132.5</ele>
        <time>2016-07-20T17:26:34Z</time>
      </trkpt>
      <trkpt lat="43.55509" lon="3.38163">
        <ele>133.2</ele>
        <time>2016-07-20T17:26:36Z</time>
      </trkpt>
      <trkpt lat="43.55519" lon="3.38159">
        <ele>133.9</ele>
        <time>2016-07-20T17:26:38Z</time>
      </trkpt>
      <trkpt lat="43.5553" lon="3.38154">
        <ele>134.6</ele>
        <time>2016-07-20T17:26:40Z</time>
      </trkpt>
      <trkpt lat="43.55539" lon="3.3815">
        <ele>134.1</ele>
        <time>2016-07-20T17:26:42Z</time>
      </trkpt>
      <trkpt lat="43.55548" lon="3.38146">
        <ele>134.8</ele>
        <time>2016-07-20T17:26:44Z</time>
      </trkpt>
      <trkpt lat="43.55559" lon="3.38142">
        <ele>135.1</ele>
        <time>2016-07-20T17:26:46Z</time>
      </trkpt>
      <trkpt lat="43.55568" lon="3.38138">
        <ele>135.3</ele>
        <time>2016-07-20T17:26:48Z</time>
      </trkpt>
      <trkpt lat="43.55578" lon="3.38134">
        <ele>135.8</ele>
        <time>2016-07-20T17:26:50Z</time>
      </trkpt>
      <trkpt lat="43.55588" lon="3.38129">
        <ele>136.4</ele>
        <time>2016-07-20T17:26:52Z</time>
      </trkpt>
      <trkpt lat="43.55598" lon="3.38125">
        <ele>136.2</ele>
        <time>2016-07-20T17:26:54Z</time>
      </trkpt>
      <trkpt lat="43.55606" lon="3.38122">
        <ele>136.4</ele>
        <time>2016-07-20T17:26:56Z</time>
      </trkpt>
      <trkpt lat="43.55614" lon="3.38117">
        <ele>137.5</ele>
        <time>2016-07-20T17:26:58Z</time>
      </trkpt>
      <trkpt lat="43.55624" lon="3.38113">
        <ele>137.1</ele>
        <time>2016-07-20T17:27:00Z</time>
      </trkpt>
      <trkpt lat="43.55631" lon="3.38109">
        <ele>136.4</ele>
        <time>2016-07-20T17:27:02Z</time>
      </trkpt>
      <trkpt lat="43.5564" lon="3.38105">
        <ele>135.1</ele>
        <time>2016-07-20T17:27:04Z</time>
      </trkpt>
      <trkpt lat="43.55648" lon="3.38101">
        <ele>134.6</ele>
        <time>2016-07-20T17:27:06Z</time>
      </trkpt>
      <trkpt lat="43.55655" lon="3.38098">
        <ele>134.3</ele>
        <time>2016-07-20T17:27:08Z</time>
      </trkpt>
      <trkpt lat="43.55664" lon="3.38094">
        <ele>135</ele>
        <time>2016-07-20T17:27:10Z</time>
      </trkpt>
      <trkpt lat="43.55674" lon="3.3809">
        <ele>136</ele>
        <time>2016-07-20T17:27:12Z</time>
      </trkpt>
      <trkpt lat="43.55682" lon="3.38087">
        <ele>135.2</ele>
        <time>2016-07-20T17:27:14Z</time>
      </trkpt>
      <trkpt lat="43.55691" lon="3.38084">
        <ele>134.3</ele>
        <time>2016-07-20T17:27:16Z</time>
      </trkpt>
      <trkpt lat="43.55699" lon="3.3808">
        <ele>133.6</ele>
        <time>2016-07-20T17:27:18Z</time>
      </trkpt>
      <trkpt lat="43.55707" lon="3.38076">
        <ele>133.9</ele>
        <time>2016-07-20T17:27:20Z</time>
      </trkpt>
      <trkpt lat="43.55716" lon="3.38071">
        <ele>133.8</ele>
        <time>2016-07-20T17:27:22Z</time>
      </trkpt>
      <trkpt lat="43.55724" lon="3.38067">
        <ele>134.4</ele>
        <time>2016-07-20T17:27:24Z</time>
      </trkpt>
      <trkpt lat="43.55733" lon="3.38062">
        <ele>135.7</ele>
        <time>2016-07-20T17:27:26Z</time>
      </trkpt>
      <trkpt lat="43.55742" lon="3.38056">
        <ele>136</ele>
        <time>2016-07-20T17:27:28Z</time>
      </trkpt>
      <trkpt lat="43.55752" lon="3.3805">
        <ele>135.3</ele>
        <time>2016-07-20T17:27:30Z</time>
      </trkpt>
      <trkpt lat="43.55761" lon="3.38046">
        <ele>136.5</ele>
        <time>2016-07-20T17:27:32Z</time>
      </trkpt>
      <trkpt lat="43.55769" lon="3.38041">
        <ele>136.3</ele>
        <time>2016-07-20T17:27:34Z</time>
      </trkpt>
      <trkpt lat="43.55778" lon="3.38036">
        <ele>137.1</ele>
        <time>2016-07-20T17:27:36Z</time>
      </trkpt>
      <trkpt lat="43.55787" lon="3.3803">
        <ele>137.9</ele>
        <time>2016-07-20T17:27:38Z</time>
      </trkpt>
      <trkpt lat="43.55795" lon="3.38025">
        <ele>138.5</ele>
        <time>2016-07-20T17:27:40Z</time>
      </trkpt>
      <trkpt lat="43.55803" lon="3.3802">
        <ele>138.8</ele>
        <time>2016-07-20T17:27:42Z</time>
      </trkpt>
      <trkpt lat="43.55812" lon="3.38015">
        <ele>138.1</ele>
        <time>2016-07-20T17:27:44Z</time>
      </trkpt>
      <trkpt lat="43.55821" lon="3.38008">
        <ele>137</ele>
        <time>2016-07-20T17:27:46Z</time>
      </trkpt>
      <trkpt lat="43.55829" lon="3.38001">
        <ele>136.7</ele>
        <time>2016-07-20T17:27:48Z</time>
      </trkpt>
      <trkpt lat="43.55836" lon="3.37994">
        <ele>138.7</ele>
        <time>2016-07-20T17:27:50Z</time>
      </trkpt>
      <trkpt lat="43.55842" lon="3.37987">
        <ele>140.4</ele>
        <time>2016-07-20T17:27:52Z</time>
      </trkpt>
      <trkpt lat="43.55847" lon="3.37979">
        <ele>141.2</ele>
        <time>2016-07-20T17:27:54Z</time>
      </trkpt>
      <trkpt lat="43.55852" lon="3.37969">
        <ele>141.4</ele>
        <time>2016-07-20T17:27:56Z</time>
      </trkpt>
      <trkpt lat="43.55857" lon="3.3796">
        <ele>140.8</ele>
        <time>2016-07-20T17:27:58Z</time>
      </trkpt>
      <trkpt lat="43.5586" lon="3.3795">
        <ele>139.9</ele>
        <time>2016-07-20T17:28:00Z</time>
      </trkpt>
      <trkpt lat="43.55864" lon="3.37939">
        <ele>137.6</ele>
        <time>2016-07-20T17:28:02Z</time>
      </trkpt>
      <trkpt lat="43.55869" lon="3.37927">
        <ele>136.6</ele>
        <time>2016-07-20T17:28:04Z</time>
      </trkpt>
      <trkpt lat="43.55874" lon="3.37915">
        <ele>136.6</ele>
        <time>2016-07-20T17:28:06Z</time>
      </trkpt>
      <trkpt lat="43.5588" lon="3.37901">
        <ele>136.2</ele>
        <time>2016-07-20T17:28:08Z</time>
      </trkpt>
      <trkpt lat="43.55886" lon="3.37889">
        <ele>136.2</ele>
        <time>2016-07-20T17:28:10Z</time>
      </trkpt>
      <trkpt lat="43.55891" lon="3.37877">
        <ele>135.8</ele>
        <time>2016-07-20T17:28:12Z</time>
      </trkpt>
      <trkpt lat="43.55897" lon="3.37864">
        <ele>136.5</ele>
        <time>2016-07-20T17:28:14Z</time>
      </trkpt>
      <trkpt lat="43.55902" lon="3.3785">
        <ele>136.7</ele>
        <time>2016-07-20T17:28:16Z</time>
      </trkpt>
      <trkpt lat="43.55907" lon="3.37838">
        <ele>136.4</ele>
        <time>2016-07-20T17:28:18Z</time>
      </trkpt>
      <trkpt lat="43.55911" lon="3.37827">
        <ele>135.8</ele>
        <time>2016-07-20T17:28:20Z</time>
      </trkpt>
      <trkpt lat="43.55917" lon="3.37816">
        <ele>135.6</ele>
        <time>2016-07-20T17:28:22Z</time>
      </trkpt>
      <trkpt lat="43.55922" lon="3.37803">
        <ele>136.1</ele>
        <time>2016-07-20T17:28:24Z</time>
      </trkpt>
      <trkpt lat="43.55927" lon="3.37792">
        <ele>136.7</ele>
        <time>2016-07-20T17:28:26Z</time>
      </trkpt>
      <trkpt lat="43.55931" lon="3.3778">
        <ele>136.4</ele>
        <time>2016-07-20T17:28:28Z</time>
      </trkpt>
      <trkpt lat="43.55936" lon="3.37769">
        <ele>136.9</ele>
        <time>2016-07-20T17:28:30Z</time>
      </trkpt>
      <trkpt lat="43.55941" lon="3.37758">
        <ele>137.6</ele>
        <time>2016-07-20T17:28:32Z</time>
      </trkpt>
      <trkpt lat="43.55945" lon="3.37747">
        <ele>137.3</ele>
        <time>2016-07-20T17:28:34Z</time>
      </trkpt>
      <trkpt lat="43.55949" lon="3.37736">
        <ele>138.3</ele>
        <time>2016-07-20T17:28:36Z</time>
      </trkpt>
      <trkpt lat="43.55954" lon="3.37725">
        <ele>137.9</ele>
        <time>2016-07-20T17:28:38Z</time>
      </trkpt>
      <trkpt lat="43.55959" lon="3.37714">
        <ele>138.5</ele>
        <time>2016-07-20T17:28:40Z</time>
      </trkpt>
      <trkpt lat="43.55963" lon="3.37703">
        <ele>138.1</ele>
        <time>2016-07-20T17:28:42Z</time>
      </trkpt>
      <trkpt lat="43.55968" lon="3.37692">
        <ele>138.2</ele>
        <time>2016-07-20T17:28:44Z</time>
      </trkpt>
      <trkpt lat="43.55973" lon="3.37679">
        <ele>138.2</ele>
        <time>2016-07-20T17:28:46Z</time>
      </trkpt>
      <trkpt lat="43.55978" lon="3.37666">
        <ele>138.4</ele>
        <time>2016-07-20T17:28:48Z</time>
      </trkpt>
      <trkpt lat="43.55982" lon="3.37654">
        <ele>137.6</ele>
        <time>2016-07-20T17:28:50Z</time>
      </trkpt>
      <trkpt lat="43.55987" lon="3.37643">
        <ele>138</ele>
        <time>2016-07-20T17:28:52Z</time>
      </trkpt>
      <trkpt lat="43.55992" lon="3.3763">
        <ele>137.8</ele>
        <time>2016-07-20T17:28:54Z</time>
      </trkpt>
      <trkpt lat="43.55996" lon="3.37619">
        <ele>137.6</ele>
        <time>2016-07-20T17:28:56Z</time>
      </trkpt>
      <trkpt lat="43.56001" lon="3.37607">
        <ele>138</ele>
        <time>2016-07-20T17:28:58Z</time>
      </trkpt>
      <trkpt lat="43.56005" lon="3.37598">
        <ele>137.5</ele>
        <time>2016-07-20T17:29:00Z</time>
      </trkpt>
      <trkpt lat="43.5601" lon="3.37587">
        <ele>137.3</ele>
        <time>2016-07-20T17:29:02Z</time>
      </trkpt>
      <trkpt lat="43.56016" lon="3.37576">
        <ele>137.9</ele>
        <time>2016-07-20T17:29:04Z</time>
      </trkpt>
      <trkpt lat="43.56021" lon="3.37565">
        <ele>137.6</ele>
        <time>2016-07-20T17:29:06Z</time>
      </trkpt>
      <trkpt lat="43.56027" lon="3.37553">
        <ele>136.9</ele>
        <time>2016-07-20T17:29:08Z</time>
      </trkpt>
      <trkpt lat="43.56033" lon="3.37542">
        <ele>137.3</ele>
        <time>2016-07-20T17:29:10Z</time>
      </trkpt>
      <trkpt lat="43.56038" lon="3.37533">
        <ele>137</ele>
        <time>2016-07-20T17:29:12Z</time>
      </trkpt>
      <trkpt lat="43.56044" lon="3.37524">
        <ele>137.2</ele>
        <time>2016-07-20T17:29:14Z</time>
      </trkpt>
      <trkpt lat="43.56049" lon="3.37515">
        <ele>137.5</ele>
        <time>2016-07-20T17:29:16Z</time>
      </trkpt>
      <trkpt lat="43.56055" lon="3.37505">
        <ele>137.8</ele>
        <time>2016-07-20T17:29:18Z</time>
      </trkpt>
      <trkpt lat="43.5606" lon="3.37497">
        <ele>138.3</ele>
        <time>2016-07-20T17:29:20Z</time>
      </trkpt>
      <trkpt lat="43.56066" lon="3.37487">
        <ele>139</ele>
        <time>2016-07-20T17:29:22Z</time>
      </trkpt>
      <trkpt lat="43.56072" lon="3.37478">
        <ele>139.7</ele>
        <time>2016-07-20T17:29:24Z</time>
      </trkpt>
      <trkpt lat="43.56078" lon="3.37468">
        <ele>139.6</ele>
        <time>2016-07-20T17:29:26Z</time>
      </trkpt>
      <trkpt lat="43.56084" lon="3.37456">
        <ele>139.3</ele>
        <time>2016-07-20T17:29:28Z</time>
      </trkpt>
      <trkpt lat="43.56089" lon="3.37444">
        <ele>139.5</ele>
        <time>2016-07-20T17:29:31Z</time>
      </trkpt>
      <trkpt lat="43.56092" lon="3.37435">
        <ele>139.4</ele>
        <time>2016-07-20T17:29:33Z</time>
      </trkpt>
      <trkpt lat="43.56094" lon="3.3742">
        <ele>139.4</ele>
        <time>2016-07-20T17:29:36Z</time>
      </trkpt>
      <trkpt lat="43.56099" lon="3.37412">
        <ele>139.2</ele>
        <time>2016-07-20T17:29:38Z</time>
      </trkpt>
      <trkpt lat="43.56106" lon="3.37404">
        <ele>139.2</ele>
        <time>2016-07-20T17:29:40Z</time>
      </trkpt>
      <trkpt lat="43.56114" lon="3.37396">
        <ele>139.9</ele>
        <time>2016-07-20T17:29:42Z</time>
      </trkpt>
      <trkpt lat="43.5612" lon="3.37388">
        <ele>140</ele>
        <time>2016-07-20T17:29:44Z</time>
      </trkpt>
      <trkpt lat="43.56127" lon="3.37381">
        <ele>139.6</ele>
        <time>2016-07-20T17:29:46Z</time>
      </trkpt>
      <trkpt lat="43.56132" lon="3.37375">
        <ele>139.3</ele>
        <time>2016-07-20T17:29:48Z</time>
      </trkpt>
      <trkpt lat="43.5614" lon="3.37368">
        <ele>138.3</ele>
        <time>2016-07-20T17:29:50Z</time>
      </trkpt>
      <trkpt lat="43.56148" lon="3.37358">
        <ele>138.2</ele>
        <time>2016-07-20T17:29:52Z</time>
      </trkpt>
      <trkpt lat="43.56154" lon="3.3735">
        <ele>138.4</ele>
        <time>2016-07-20T17:29:54Z</time>
      </trkpt>
      <trkpt lat="43.5616" lon="3.37344">
        <ele>139.1</ele>
        <time>2016-07-20T17:29:56Z</time>
      </trkpt>
      <trkpt lat="43.56167" lon="3.37336">
        <ele>139.3</ele>
        <time>2016-07-20T17:29:58Z</time>
      </trkpt>
      <trkpt lat="43.56175" lon="3.37327">
        <ele>139.4</ele>
        <time>2016-07-20T17:30:00Z</time>
      </trkpt>
      <trkpt lat="43.56183" lon="3.37318">
        <ele>139.1</ele>
        <time>2016-07-20T17:30:02Z</time>
      </trkpt>
      <trkpt lat="43.56188" lon="3.37312">
        <ele>138.6</ele>
        <time>2016-07-20T17:30:04Z</time>
      </trkpt>
      <trkpt lat="43.56194" lon="3.37304">
        <ele>138.6</ele>
        <time>2016-07-20T17:30:06Z</time>
      </trkpt>
      <trkpt lat="43.56201" lon="3.37295">
        <ele>140</ele>
        <time>2016-07-20T17:30:08Z</time>
      </trkpt>
      <trkpt lat="43.56206" lon="3.37287">
        <ele>141</ele>
        <time>2016-07-20T17:30:10Z</time>
      </trkpt>
      <trkpt lat="43.56212" lon="3.37277">
        <ele>141.4</ele>
        <time>2016-07-20T17:30:12Z</time>
      </trkpt>
      <trkpt lat="43.56217" lon="3.37266">
        <ele>141.2</ele>
        <time>2016-07-20T17:30:14Z</time>
      </trkpt>
      <trkpt lat="43.56222" lon="3.37256">
        <ele>141.4</ele>
        <time>2016-07-20T17:30:16Z</time>
      </trkpt>
      <trkpt lat="43.56227" lon="3.37247">
        <ele>142.8</ele>
        <time>2016-07-20T17:30:18Z</time>
      </trkpt>
      <trkpt lat="43.56231" lon="3.37237">
        <ele>143.5</ele>
        <time>2016-07-20T17:30:20Z</time>
      </trkpt>
      <trkpt lat="43.56236" lon="3.37228">
        <ele>144.1</ele>
        <time>2016-07-20T17:30:22Z</time>
      </trkpt>
      <trkpt lat="43.56241" lon="3.37218">
        <ele>144.5</ele>
        <time>2016-07-20T17:30:24Z</time>
      </trkpt>
      <trkpt lat="43.56246" lon="3.37207">
        <ele>145.6</ele>
        <time>2016-07-20T17:30:26Z</time>
      </trkpt>
      <trkpt lat="43.56251" lon="3.37195">
        <ele>145.7</ele>
        <time>2016-07-20T17:30:28Z</time>
      </trkpt>
      <trkpt lat="43.56255" lon="3.37186">
        <ele>145.4</ele>
        <time>2016-07-20T17:30:30Z</time>
      </trkpt>
      <trkpt lat="43.56259" lon="3.37175">
        <ele>145</ele>
        <time>2016-07-20T17:30:32Z</time>
      </trkpt>
      <trkpt lat="43.56264" lon="3.37166">
        <ele>145.4</ele>
        <time>2016-07-20T17:30:34Z</time>
      </trkpt>
      <trkpt lat="43.56267" lon="3.37156">
        <ele>145.6</ele>
        <time>2016-07-20T17:30:36Z</time>
      </trkpt>
      <trkpt lat="43.56269" lon="3.37145">
        <ele>145.4</ele>
        <time>2016-07-20T17:30:38Z</time>
      </trkpt>
      <trkpt lat="43.56272" lon="3.37134">
        <ele>145.7</ele>
        <time>2016-07-20T17:30:40Z</time>
      </trkpt>
      <trkpt lat="43.56275" lon="3.37124">
        <ele>145.9</ele>
        <time>2016-07-20T17:30:42Z</time>
      </trkpt>
      <trkpt lat="43.56278" lon="3.37113">
        <ele>145.9</ele>
        <time>2016-07-20T17:30:44Z</time>
      </trkpt>
      <trkpt lat="43.5628" lon="3.37103">
        <ele>145.9</ele>
        <time>2016-07-20T17:30:46Z</time>
      </trkpt>
      <trkpt lat="43.56283" lon="3.37092">
        <ele>145.8</ele>
        <time>2016-07-20T17:30:48Z</time>
      </trkpt>
      <trkpt lat="43.56287" lon="3.37078">
        <ele>145.4</ele>
        <time>2016-07-20T17:30:51Z</time>
      </trkpt>
      <trkpt lat="43.56291" lon="3.37065">
        <ele>145</ele>
        <time>2016-07-20T17:30:53Z</time>
      </trkpt>
      <trkpt lat="43.56297" lon="3.37054">
        <ele>144.7</ele>
        <time>2016-07-20T17:30:55Z</time>
      </trkpt>
      <trkpt lat="43.56304" lon="3.37041">
        <ele>144.6</ele>
        <time>2016-07-20T17:30:57Z</time>
      </trkpt>
      <trkpt lat="43.56311" lon="3.37032">
        <ele>144.8</ele>
        <time>2016-07-20T17:30:59Z</time>
      </trkpt>
      <trkpt lat="43.56316" lon="3.37021">
        <ele>144.8</ele>
        <time>2016-07-20T17:31:01Z</time>
      </trkpt>
      <trkpt lat="43.5632" lon="3.37011">
        <ele>144.4</ele>
        <time>2016-07-20T17:31:03Z</time>
      </trkpt>
      <trkpt lat="43.56324" lon="3.37001">
        <ele>145</ele>
        <time>2016-07-20T17:31:05Z</time>
      </trkpt>
      <trkpt lat="43.56328" lon="3.36992">
        <ele>145.3</ele>
        <time>2016-07-20T17:31:07Z</time>
      </trkpt>
      <trkpt lat="43.56333" lon="3.36982">
        <ele>145.4</ele>
        <time>2016-07-20T17:31:09Z</time>
      </trkpt>
      <trkpt lat="43.56337" lon="3.36972">
        <ele>145.4</ele>
        <time>2016-07-20T17:31:11Z</time>
      </trkpt>
      <trkpt lat="43.56342" lon="3.36961">
        <ele>145.4</ele>
        <time>2016-07-20T17:31:14Z</time>
      </trkpt>
      <trkpt lat="43.56346" lon="3.36951">
        <ele>145.4</ele>
        <time>2016-07-20T17:31:16Z</time>
      </trkpt>
      <trkpt lat="43.5635" lon="3.3694">
        <ele>145.5</ele>
        <time>2016-07-20T17:31:19Z</time>
      </trkpt>
      <trkpt lat="43.56353" lon="3.3693">
        <ele>145.7</ele>
        <time>2016-07-20T17:31:21Z</time>
      </trkpt>
      <trkpt lat="43.56357" lon="3.36916">
        <ele>146.4</ele>
        <time>2016-07-20T17:31:24Z</time>
      </trkpt>
      <trkpt lat="43.5636" lon="3.36906">
        <ele>146.9</ele>
        <time>2016-07-20T17:31:26Z</time>
      </trkpt>
      <trkpt lat="43.56363" lon="3.36895">
        <ele>146.6</ele>
        <time>2016-07-20T17:31:28Z</time>
      </trkpt>
      <trkpt lat="43.56366" lon="3.36884">
        <ele>146.2</ele>
        <time>2016-07-20T17:31:30Z</time>
      </trkpt>
      <trkpt lat="43.56371" lon="3.36873">
        <ele>145.8</ele>
        <time>2016-07-20T17:31:32Z</time>
      </trkpt>
      <trkpt lat="43.56376" lon="3.36865">
        <ele>146.5</ele>
        <time>2016-07-20T17:31:34Z</time>
      </trkpt>
      <trkpt lat="43.56381" lon="3.36858">
        <ele>146.7</ele>
        <time>2016-07-20T17:31:36Z</time>
      </trkpt>
      <trkpt lat="43.56389" lon="3.36849">
        <ele>146.7</ele>
        <time>2016-07-20T17:31:38Z</time>
      </trkpt>
      <trkpt lat="43.56395" lon="3.3684">
        <ele>146.4</ele>
        <time>2016-07-20T17:31:40Z</time>
      </trkpt>
      <trkpt lat="43.564" lon="3.36832">
        <ele>146.6</ele>
        <time>2016-07-20T17:31:42Z</time>
      </trkpt>
      <trkpt lat="43.56405" lon="3.36823">
        <ele>146.4</ele>
        <time>2016-07-20T17:31:44Z</time>
      </trkpt>
      <trkpt lat="43.56409" lon="3.36812">
        <ele>147.3</ele>
        <time>2016-07-20T17:31:46Z</time>
      </trkpt>
      <trkpt lat="43.56412" lon="3.36801">
        <ele>147.9</ele>
        <time>2016-07-20T17:31:48Z</time>
      </trkpt>
      <trkpt lat="43.56416" lon="3.36792">
        <ele>149.7</ele>
        <time>2016-07-20T17:31:50Z</time>
      </trkpt>
      <trkpt lat="43.56421" lon="3.3678">
        <ele>150</ele>
        <time>2016-07-20T17:31:52Z</time>
      </trkpt>
      <trkpt lat="43.56427" lon="3.36769">
        <ele>148.6</ele>
        <time>2016-07-20T17:31:54Z</time>
      </trkpt>
      <trkpt lat="43.56433" lon="3.36759">
        <ele>147.5</ele>
        <time>2016-07-20T17:31:56Z</time>
      </trkpt>
      <trkpt lat="43.56439" lon="3.36749">
        <ele>147.1</ele>
        <time>2016-07-20T17:31:58Z</time>
      </trkpt>
      <trkpt lat="43.56445" lon="3.36739">
        <ele>146</ele>
        <time>2016-07-20T17:32:00Z</time>
      </trkpt>
      <trkpt lat="43.5645" lon="3.3673">
        <ele>145.6</ele>
        <time>2016-07-20T17:32:02Z</time>
      </trkpt>
      <trkpt lat="43.56457" lon="3.36722">
        <ele>145.8</ele>
        <time>2016-07-20T17:32:04Z</time>
      </trkpt>
      <trkpt lat="43.56464" lon="3.36715">
        <ele>146.3</ele>
        <time>2016-07-20T17:32:06Z</time>
      </trkpt>
      <trkpt lat="43.5647" lon="3.36706">
        <ele>146.3</ele>
        <time>2016-07-20T17:32:08Z</time>
      </trkpt>
      <trkpt lat="43.56475" lon="3.36696">
        <ele>146.2</ele>
        <time>2016-07-20T17:32:10Z</time>
      </trkpt>
      <trkpt lat="43.5648" lon="3.36685">
        <ele>146.4</ele>
        <time>2016-07-20T17:32:12Z</time>
      </trkpt>
      <trkpt lat="43.56485" lon="3.36674">
        <ele>146.6</ele>
        <time>2016-07-20T17:32:14Z</time>
      </trkpt>
      <trkpt lat="43.56488" lon="3.36665">
        <ele>146.5</ele>
        <time>2016-07-20T17:32:16Z</time>
      </trkpt>
      <trkpt lat="43.56493" lon="3.36656">
        <ele>147.3</ele>
        <time>2016-07-20T17:32:18Z</time>
      </trkpt>
      <trkpt lat="43.56502" lon="3.36646">
        <ele>147.9</ele>
        <time>2016-07-20T17:32:20Z</time>
      </trkpt>
      <trkpt lat="43.56509" lon="3.36638">
        <ele>147</ele>
        <time>2016-07-20T17:32:22Z</time>
      </trkpt>
      <trkpt lat="43.56516" lon="3.36632">
        <ele>146.1</ele>
        <time>2016-07-20T17:32:24Z</time>
      </trkpt>
      <trkpt lat="43.56524" lon="3.36624">
        <ele>145.9</ele>
        <time>2016-07-20T17:32:26Z</time>
      </trkpt>
      <trkpt lat="43.56532" lon="3.36616">
        <ele>146.6</ele>
        <time>2016-07-20T17:32:28Z</time>
      </trkpt>
      <trkpt lat="43.56539" lon="3.36609">
        <ele>148.3</ele>
        <time>2016-07-20T17:32:30Z</time>
      </trkpt>
      <trkpt lat="43.56547" lon="3.36601">
        <ele>148.9</ele>
        <time>2016-07-20T17:32:32Z</time>
      </trkpt>
      <trkpt lat="43.56556" lon="3.36591">
        <ele>148.6</ele>
        <time>2016-07-20T17:32:34Z</time>
      </trkpt>
      <trkpt lat="43.56563" lon="3.36583">
        <ele>147.2</ele>
        <time>2016-07-20T17:32:36Z</time>
      </trkpt>
      <trkpt lat="43.56571" lon="3.36572">
        <ele>145.8</ele>
        <time>2016-07-20T17:32:38Z</time>
      </trkpt>
      <trkpt lat="43.56578" lon="3.36563">
        <ele>146</ele>
        <time>2016-07-20T17:32:40Z</time>
      </trkpt>
      <trkpt lat="43.56585" lon="3.36555">
        <ele>145.4</ele>
        <time>2016-07-20T17:32:42Z</time>
      </trkpt>
      <trkpt lat="43.56592" lon="3.36547">
        <ele>144.4</ele>
        <time>2016-07-20T17:32:44Z</time>
      </trkpt>
      <trkpt lat="43.56599" lon="3.36538">
        <ele>144.9</ele>
        <time>2016-07-20T17:32:46Z</time>
      </trkpt>
      <trkpt lat="43.56605" lon="3.36529">
        <ele>145.4</ele>
        <time>2016-07-20T17:32:48Z</time>
      </trkpt>
      <trkpt lat="43.56611" lon="3.36519">
        <ele>145.4</ele>
        <time>2016-07-20T17:32:50Z</time>
      </trkpt>
      <trkpt lat="43.5662" lon="3.36508">
        <ele>145.3</ele>
        <time>2016-07-20T17:32:53Z</time>
      </trkpt>
      <trkpt lat="43.56626" lon="3.365">
        <ele>145</ele>
        <time>2016-07-20T17:32:55Z</time>
      </trkpt>
      <trkpt lat="43.56632" lon="3.36491">
        <ele>144.6</ele>
        <time>2016-07-20T17:32:57Z</time>
      </trkpt>
      <trkpt lat="43.56638" lon="3.36483">
        <ele>144.5</ele>
        <time>2016-07-20T17:32:59Z</time>
      </trkpt>
      <trkpt lat="43.56644" lon="3.36474">
        <ele>144.5</ele>
        <time>2016-07-20T17:33:01Z</time>
      </trkpt>
      <trkpt lat="43.5665" lon="3.36467">
        <ele>144.4</ele>
        <time>2016-07-20T17:33:03Z</time>
      </trkpt>
      <trkpt lat="43.56655" lon="3.36461">
        <ele>144.3</ele>
        <time>2016-07-20T17:33:05Z</time>
      </trkpt>
      <trkpt lat="43.56662" lon="3.36454">
        <ele>143.3</ele>
        <time>2016-07-20T17:33:07Z</time>
      </trkpt>
      <trkpt lat="43.5667" lon="3.36448">
        <ele>143.2</ele>
        <time>2016-07-20T17:33:09Z</time>
      </trkpt>
      <trkpt lat="43.56679" lon="3.36442">
        <ele>143.3</ele>
        <time>2016-07-20T17:33:11Z</time>
      </trkpt>
      <trkpt lat="43.56688" lon="3.36435">
        <ele>144.7</ele>
        <time>2016-07-20T17:33:13Z</time>
      </trkpt>
      <trkpt lat="43.56697" lon="3.3643">
        <ele>146.6</ele>
        <time>2016-07-20T17:33:15Z</time>
      </trkpt>
      <trkpt lat="43.56704" lon="3.36426">
        <ele>146.5</ele>
        <time>2016-07-20T17:33:17Z</time>
      </trkpt>
      <trkpt lat="43.56714" lon="3.3642">
        <ele>147.7</ele>
        <time>2016-07-20T17:33:20Z</time>
      </trkpt>
      <trkpt lat="43.56723" lon="3.36416">
        <ele>147.9</ele>
        <time>2016-07-20T17:33:22Z</time>
      </trkpt>
      <trkpt lat="43.56732" lon="3.36412">
        <ele>148.5</ele>
        <time>2016-07-20T17:33:24Z</time>
      </trkpt>
      <trkpt lat="43.5674" lon="3.36409">
        <ele>149.4</ele>
        <time>2016-07-20T17:33:26Z</time>
      </trkpt>
      <trkpt lat="43.56746" lon="3.36406">
        <ele>149.7</ele>
        <time>2016-07-20T17:33:28Z</time>
      </trkpt>
      <trkpt lat="43.56754" lon="3.364">
        <ele>149.9</ele>
        <time>2016-07-20T17:33:31Z</time>
      </trkpt>
      <trkpt lat="43.56763" lon="3.3639">
        <ele>150.6</ele>
        <time>2016-07-20T17:33:34Z</time>
      </trkpt>
      <trkpt lat="43.56771" lon="3.36384">
        <ele>151</ele>
        <time>2016-07-20T17:33:36Z</time>
      </trkpt>
      <trkpt lat="43.56777" lon="3.36379">
        <ele>151</ele>
        <time>2016-07-20T17:33:38Z</time>
      </trkpt>
      <trkpt lat="43.56785" lon="3.36373">
        <ele>150</ele>
        <time>2016-07-20T17:33:40Z</time>
      </trkpt>
      <trkpt lat="43.56794" lon="3.36366">
        <ele>149.3</ele>
        <time>2016-07-20T17:33:42Z</time>
      </trkpt>
      <trkpt lat="43.56801" lon="3.3636">
        <ele>149.2</ele>
        <time>2016-07-20T17:33:44Z</time>
      </trkpt>
      <trkpt lat="43.56809" lon="3.36354">
        <ele>149.4</ele>
        <time>2016-07-20T17:33:46Z</time>
      </trkpt>
      <trkpt lat="43.56816" lon="3.36347">
        <ele>150.3</ele>
        <time>2016-07-20T17:33:48Z</time>
      </trkpt>
      <trkpt lat="43.56824" lon="3.3634">
        <ele>149.6</ele>
        <time>2016-07-20T17:33:50Z</time>
      </trkpt>
      <trkpt lat="43.5683" lon="3.36333">
        <ele>148.8</ele>
        <time>2016-07-20T17:33:52Z</time>
      </trkpt>
      <trkpt lat="43.56837" lon="3.36328">
        <ele>149</ele>
        <time>2016-07-20T17:33:54Z</time>
      </trkpt>
      <trkpt lat="43.56845" lon="3.36324">
        <ele>149.3</ele>
        <time>2016-07-20T17:33:56Z</time>
      </trkpt>
      <trkpt lat="43.56853" lon="3.3632">
        <ele>150.4</ele>
        <time>2016-07-20T17:33:58Z</time>
      </trkpt>
      <trkpt lat="43.56862" lon="3.36316">
        <ele>150.6</ele>
        <time>2016-07-20T17:34:00Z</time>
      </trkpt>
      <trkpt lat="43.56872" lon="3.36314">
        <ele>150.6</ele>
        <time>2016-07-20T17:34:02Z</time>
      </trkpt>
      <trkpt lat="43.5688" lon="3.36313">
        <ele>151.1</ele>
        <time>2016-07-20T17:34:04Z</time>
      </trkpt>
      <trkpt lat="43.56888" lon="3.36312">
        <ele>151.3</ele>
        <time>2016-07-20T17:34:06Z</time>
      </trkpt>
      <trkpt lat="43.56896" lon="3.3631">
        <ele>151.5</ele>
        <time>2016-07-20T17:34:08Z</time>
      </trkpt>
      <trkpt lat="43.56903" lon="3.36309">
        <ele>151.8</ele>
        <time>2016-07-20T17:34:10Z</time>
      </trkpt>
      <trkpt lat="43.56911" lon="3.36307">
        <ele>151.5</ele>
        <time>2016-07-20T17:34:12Z</time>
      </trkpt>
      <trkpt lat="43.5692" lon="3.36305">
        <ele>151.7</ele>
        <time>2016-07-20T17:34:14Z</time>
      </trkpt>
      <trkpt lat="43.56929" lon="3.36303">
        <ele>151.3</ele>
        <time>2016-07-20T17:34:16Z</time>
      </trkpt>
      <trkpt lat="43.56938" lon="3.36301">
        <ele>153.3</ele>
        <time>2016-07-20T17:34:18Z</time>
      </trkpt>
      <trkpt lat="43.56948" lon="3.36298">
        <ele>153.9</ele>
        <time>2016-07-20T17:34:20Z</time>
      </trkpt>
      <trkpt lat="43.56955" lon="3.36296">
        <ele>154.2</ele>
        <time>2016-07-20T17:34:22Z</time>
      </trkpt>
      <trkpt lat="43.56965" lon="3.36294">
        <ele>154.2</ele>
        <time>2016-07-20T17:34:24Z</time>
      </trkpt>
      <trkpt lat="43.56974" lon="3.36292">
        <ele>154.5</ele>
        <time>2016-07-20T17:34:26Z</time>
      </trkpt>
      <trkpt lat="43.56984" lon="3.36289">
        <ele>154.4</ele>
        <time>2016-07-20T17:34:28Z</time>
      </trkpt>
      <trkpt lat="43.56993" lon="3.36287">
        <ele>154.9</ele>
        <time>2016-07-20T17:34:30Z</time>
      </trkpt>
      <trkpt lat="43.57003" lon="3.36287">
        <ele>155.4</ele>
        <time>2016-07-20T17:34:32Z</time>
      </trkpt>
      <trkpt lat="43.57013" lon="3.36287">
        <ele>154.9</ele>
        <time>2016-07-20T17:34:34Z</time>
      </trkpt>
      <trkpt lat="43.57021" lon="3.36287">
        <ele>155.5</ele>
        <time>2016-07-20T17:34:36Z</time>
      </trkpt>
      <trkpt lat="43.5703" lon="3.36288">
        <ele>155.5</ele>
        <time>2016-07-20T17:34:38Z</time>
      </trkpt>
      <trkpt lat="43.5704" lon="3.36289">
        <ele>154.7</ele>
        <time>2016-07-20T17:34:40Z</time>
      </trkpt>
      <trkpt lat="43.5705" lon="3.36291">
        <ele>154.4</ele>
        <time>2016-07-20T17:34:42Z</time>
      </trkpt>
      <trkpt lat="43.5706" lon="3.36293">
        <ele>155.1</ele>
        <time>2016-07-20T17:34:44Z</time>
      </trkpt>
      <trkpt lat="43.57069" lon="3.36295">
        <ele>155.1</ele>
        <time>2016-07-20T17:34:46Z</time>
      </trkpt>
      <trkpt lat="43.57077" lon="3.36298">
        <ele>154.6</ele>
        <time>2016-07-20T17:34:48Z</time>
      </trkpt>
      <trkpt lat="43.57088" lon="3.36301">
        <ele>154.9</ele>
        <time>2016-07-20T17:34:50Z</time>
      </trkpt>
      <trkpt lat="43.57098" lon="3.36304">
        <ele>154.4</ele>
        <time>2016-07-20T17:34:52Z</time>
      </trkpt>
      <trkpt lat="43.57107" lon="3.36307">
        <ele>153.8</ele>
        <time>2016-07-20T17:34:54Z</time>
      </trkpt>
      <trkpt lat="43.57116" lon="3.3631">
        <ele>153.4</ele>
        <time>2016-07-20T17:34:56Z</time>
      </trkpt>
      <trkpt lat="43.57126" lon="3.36312">
        <ele>154.8</ele>
        <time>2016-07-20T17:34:58Z</time>
      </trkpt>
      <trkpt lat="43.57133" lon="3.36313">
        <ele>154.7</ele>
        <time>2016-07-20T17:35:00Z</time>
      </trkpt>
      <trkpt lat="43.57142" lon="3.36314">
        <ele>155.6</ele>
        <time>2016-07-20T17:35:02Z</time>
      </trkpt>
      <trkpt lat="43.57152" lon="3.36317">
        <ele>156.9</ele>
        <time>2016-07-20T17:35:04Z</time>
      </trkpt>
      <trkpt lat="43.57162" lon="3.3632">
        <ele>156.7</ele>
        <time>2016-07-20T17:35:06Z</time>
      </trkpt>
      <trkpt lat="43.57172" lon="3.36323">
        <ele>156.7</ele>
        <time>2016-07-20T17:35:08Z</time>
      </trkpt>
      <trkpt lat="43.57182" lon="3.36326">
        <ele>156.9</ele>
        <time>2016-07-20T17:35:10Z</time>
      </trkpt>
      <trkpt lat="43.57191" lon="3.36327">
        <ele>157</ele>
        <time>2016-07-20T17:35:12Z</time>
      </trkpt>
      <trkpt lat="43.57202" lon="3.3633">
        <ele>157.6</ele>
        <time>2016-07-20T17:35:14Z</time>
      </trkpt>
      <trkpt lat="43.57211" lon="3.36332">
        <ele>158</ele>
        <time>2016-07-20T17:35:16Z</time>
      </trkpt>
      <trkpt lat="43.5722" lon="3.36334">
        <ele>158.9</ele>
        <time>2016-07-20T17:35:18Z</time>
      </trkpt>
      <trkpt lat="43.5723" lon="3.36337">
        <ele>159.6</ele>
        <time>2016-07-20T17:35:20Z</time>
      </trkpt>
      <trkpt lat="43.5724" lon="3.36339">
        <ele>158.6</ele>
        <time>2016-07-20T17:35:22Z</time>
      </trkpt>
      <trkpt lat="43.57249" lon="3.3634">
        <ele>157.7</ele>
        <time>2016-07-20T17:35:24Z</time>
      </trkpt>
      <trkpt lat="43.57259" lon="3.36345">
        <ele>158.5</ele>
        <time>2016-07-20T17:35:26Z</time>
      </trkpt>
      <trkpt lat="43.57269" lon="3.36347">
        <ele>158.1</ele>
        <time>2016-07-20T17:35:28Z</time>
      </trkpt>
      <trkpt lat="43.57281" lon="3.36349">
        <ele>157.9</ele>
        <time>2016-07-20T17:35:31Z</time>
      </trkpt>
      <trkpt lat="43.57291" lon="3.36352">
        <ele>156.1</ele>
        <time>2016-07-20T17:35:32Z</time>
      </trkpt>
      <trkpt lat="43.573" lon="3.36355">
        <ele>156.1</ele>
        <time>2016-07-20T17:35:34Z</time>
      </trkpt>
      <trkpt lat="43.57311" lon="3.36356">
        <ele>156.5</ele>
        <time>2016-07-20T17:35:36Z</time>
      </trkpt>
      <trkpt lat="43.5732" lon="3.36357">
        <ele>156.8</ele>
        <time>2016-07-20T17:35:38Z</time>
      </trkpt>
      <trkpt lat="43.57329" lon="3.36359">
        <ele>156.7</ele>
        <time>2016-07-20T17:35:40Z</time>
      </trkpt>
      <trkpt lat="43.57338" lon="3.36359">
        <ele>157.6</ele>
        <time>2016-07-20T17:35:42Z</time>
      </trkpt>
      <trkpt lat="43.57347" lon="3.3636">
        <ele>158.2</ele>
        <time>2016-07-20T17:35:44Z</time>
      </trkpt>
      <trkpt lat="43.57356" lon="3.36364">
        <ele>158.8</ele>
        <time>2016-07-20T17:35:46Z</time>
      </trkpt>
      <trkpt lat="43.57365" lon="3.36367">
        <ele>158.9</ele>
        <time>2016-07-20T17:35:48Z</time>
      </trkpt>
      <trkpt lat="43.57374" lon="3.36367">
        <ele>159.6</ele>
        <time>2016-07-20T17:35:50Z</time>
      </trkpt>
      <trkpt lat="43.57383" lon="3.36365">
        <ele>160.6</ele>
        <time>2016-07-20T17:35:52Z</time>
      </trkpt>
      <trkpt lat="43.57394" lon="3.36362">
        <ele>161</ele>
        <time>2016-07-20T17:35:54Z</time>
      </trkpt>
      <trkpt lat="43.57402" lon="3.3636">
        <ele>160.6</ele>
        <time>2016-07-20T17:35:56Z</time>
      </trkpt>
      <trkpt lat="43.57412" lon="3.36357">
        <ele>158.7</ele>
        <time>2016-07-20T17:35:58Z</time>
      </trkpt>
      <trkpt lat="43.57421" lon="3.36355">
        <ele>157.2</ele>
        <time>2016-07-20T17:36:00Z</time>
      </trkpt>
      <trkpt lat="43.57431" lon="3.36354">
        <ele>156.4</ele>
        <time>2016-07-20T17:36:02Z</time>
      </trkpt>
      <trkpt lat="43.57439" lon="3.36354">
        <ele>155.9</ele>
        <time>2016-07-20T17:36:04Z</time>
      </trkpt>
      <trkpt lat="43.57448" lon="3.36355">
        <ele>157.2</ele>
        <time>2016-07-20T17:36:06Z</time>
      </trkpt>
      <trkpt lat="43.57457" lon="3.36356">
        <ele>158.9</ele>
        <time>2016-07-20T17:36:08Z</time>
      </trkpt>
      <trkpt lat="43.57468" lon="3.36356">
        <ele>159.2</ele>
        <time>2016-07-20T17:36:11Z</time>
      </trkpt>
      <trkpt lat="43.57477" lon="3.36357">
        <ele>159.5</ele>
        <time>2016-07-20T17:36:13Z</time>
      </trkpt>
      <trkpt lat="43.57486" lon="3.36358">
        <ele>158.7</ele>
        <time>2016-07-20T17:36:15Z</time>
      </trkpt>
      <trkpt lat="43.57496" lon="3.3636">
        <ele>158.3</ele>
        <time>2016-07-20T17:36:17Z</time>
      </trkpt>
      <trkpt lat="43.57504" lon="3.36362">
        <ele>158.3</ele>
        <time>2016-07-20T17:36:19Z</time>
      </trkpt>
      <trkpt lat="43.57512" lon="3.36364">
        <ele>159.9</ele>
        <time>2016-07-20T17:36:21Z</time>
      </trkpt>
      <trkpt lat="43.57521" lon="3.36366">
        <ele>160.9</ele>
        <time>2016-07-20T17:36:23Z</time>
      </trkpt>
      <trkpt lat="43.57531" lon="3.36368">
        <ele>160.5</ele>
        <time>2016-07-20T17:36:25Z</time>
      </trkpt>
      <trkpt lat="43.57539" lon="3.3637">
        <ele>161.4</ele>
        <time>2016-07-20T17:36:27Z</time>
      </trkpt>
      <trkpt lat="43.57547" lon="3.36371">
        <ele>162.4</ele>
        <time>2016-07-20T17:36:29Z</time>
      </trkpt>
      <trkpt lat="43.57556" lon="3.36372">
        <ele>162.3</ele>
        <time>2016-07-20T17:36:31Z</time>
      </trkpt>
      <trkpt lat="43.57563" lon="3.36374">
        <ele>161.8</ele>
        <time>2016-07-20T17:36:33Z</time>
      </trkpt>
      <trkpt lat="43.57573" lon="3.36376">
        <ele>162.6</ele>
        <time>2016-07-20T17:36:35Z</time>
      </trkpt>
      <trkpt lat="43.57582" lon="3.36379">
        <ele>163.5</ele>
        <time>2016-07-20T17:36:37Z</time>
      </trkpt>
      <trkpt lat="43.57592" lon="3.36382">
        <ele>164.1</ele>
        <time>2016-07-20T17:36:40Z</time>
      </trkpt>
      <trkpt lat="43.576" lon="3.36384">
        <ele>164.5</ele>
        <time>2016-07-20T17:36:42Z</time>
      </trkpt>
      <trkpt lat="43.57609" lon="3.36384">
        <ele>165</ele>
        <time>2016-07-20T17:36:44Z</time>
      </trkpt>
      <trkpt lat="43.57618" lon="3.36385">
        <ele>165.8</ele>
        <time>2016-07-20T17:36:46Z</time>
      </trkpt>
      <trkpt lat="43.57627" lon="3.36384">
        <ele>167</ele>
        <time>2016-07-20T17:36:48Z</time>
      </trkpt>
      <trkpt lat="43.57636" lon="3.36385">
        <ele>169.1</ele>
        <time>2016-07-20T17:36:50Z</time>
      </trkpt>
      <trkpt lat="43.57644" lon="3.36385">
        <ele>168.8</ele>
        <time>2016-07-20T17:36:52Z</time>
      </trkpt>
      <trkpt lat="43.57651" lon="3.36386">
        <ele>169.9</ele>
        <time>2016-07-20T17:36:54Z</time>
      </trkpt>
      <trkpt lat="43.5766" lon="3.36388">
        <ele>172.5</ele>
        <time>2016-07-20T17:36:56Z</time>
      </trkpt>
      <trkpt lat="43.57669" lon="3.36389">
        <ele>174.7</ele>
        <time>2016-07-20T17:36:58Z</time>
      </trkpt>
      <trkpt lat="43.57677" lon="3.36391">
        <ele>175.8</ele>
        <time>2016-07-20T17:37:00Z</time>
      </trkpt>
      <trkpt lat="43.57687" lon="3.36394">
        <ele>176.1</ele>
        <time>2016-07-20T17:37:03Z</time>
      </trkpt>
      <trkpt lat="43.57698" lon="3.36395">
        <ele>176</ele>
        <time>2016-07-20T17:37:05Z</time>
      </trkpt>
      <trkpt lat="43.57703" lon="3.36386">
        <ele>174.4</ele>
        <time>2016-07-20T17:37:11Z</time>
      </trkpt>
      <trkpt lat="43.57703" lon="3.36374">
        <ele>173.2</ele>
        <time>2016-07-20T17:37:14Z</time>
      </trkpt>
      <trkpt lat="43.57704" lon="3.36361">
        <ele>174</ele>
        <time>2016-07-20T17:37:16Z</time>
      </trkpt>
      <trkpt lat="43.57708" lon="3.36346">
        <ele>174.5</ele>
        <time>2016-07-20T17:37:19Z</time>
      </trkpt>
      <trkpt lat="43.57714" lon="3.36337">
        <ele>174.6</ele>
        <time>2016-07-20T17:37:21Z</time>
      </trkpt>
      <trkpt lat="43.57716" lon="3.36327">
        <ele>174.7</ele>
        <time>2016-07-20T17:37:23Z</time>
      </trkpt>
      <trkpt lat="43.57715" lon="3.36315">
        <ele>174.7</ele>
        <time>2016-07-20T17:37:26Z</time>
      </trkpt>
      <trkpt lat="43.57718" lon="3.36304">
        <ele>174.5</ele>
        <time>2016-07-20T17:37:29Z</time>
      </trkpt>
      <trkpt lat="43.57725" lon="3.36302">
        <ele>174.4</ele>
        <time>2016-07-20T17:37:32Z</time>
      </trkpt>
      <trkpt lat="43.57732" lon="3.36303">
        <ele>174.3</ele>
        <time>2016-07-20T17:37:34Z</time>
      </trkpt>
      <trkpt lat="43.57742" lon="3.36303">
        <ele>174</ele>
        <time>2016-07-20T17:37:36Z</time>
      </trkpt>
      <trkpt lat="43.57739" lon="3.36294">
        <ele>173.8</ele>
        <time>2016-07-20T17:37:41Z</time>
      </trkpt>
      <trkpt lat="43.57734" lon="3.36286">
        <ele>173.5</ele>
        <time>2016-07-20T17:37:44Z</time>
      </trkpt>
      <trkpt lat="43.57731" lon="3.36275">
        <ele>173.1</ele>
        <time>2016-07-20T17:37:49Z</time>
      </trkpt>
      <trkpt lat="43.57735" lon="3.36264">
        <ele>173.1</ele>
        <time>2016-07-20T17:37:52Z</time>
      </trkpt>
      <trkpt lat="43.57736" lon="3.36259">
        <ele>172.6</ele>
        <time>2016-07-20T17:37:59Z</time>
      </trkpt>
      <trkpt lat="43.57738" lon="3.3626">
        <ele>172.3</ele>
        <time>2016-07-20T17:38:06Z</time>
      </trkpt>
      <trkpt lat="43.57739" lon="3.36257">
        <ele>168.5</ele>
        <time>2016-07-20T17:38:47Z</time>
      </trkpt>
      <trkpt lat="43.57737" lon="3.36257">
        <ele>168.4</ele>
        <time>2016-07-20T17:39:07Z</time>
      </trkpt>
      <trkpt lat="43.57734" lon="3.36256">
        <ele>167.6</ele>
        <time>2016-07-20T17:39:14Z</time>
      </trkpt>
      <trkpt lat="43.57734" lon="3.3626">
        <ele>166.6</ele>
        <time>2016-07-20T17:39:27Z</time>
      </trkpt>
      <trkpt lat="43.57736" lon="3.36263">
        <ele>167.5</ele>
        <time>2016-07-20T17:39:52Z</time>
      </trkpt>
      <trkpt lat="43.57736" lon="3.36259">
        <ele>166.9</ele>
        <time>2016-07-20T17:40:04Z</time>
      </trkpt>
    </trkseg>
  </trk>
</gpx>